Date StartTime U_cm/s V_cm/s W_cm/s Ustd_cm/s Vstd_cm/s Wstd_cm/s Uvar_(cm/s)^2 Vvar_(cm/s)^2 Wvar_(cm/s)^2 KE_(m/s)^2 TurbulentKE_(m/s)^2 HorizWindSpeed_cm/s FrictionSpeec_cm/s DragCoef SpeedOfSound_m/s SonicTemperature_C Pressure_mb 
12/05/2014  00:00:00      -84.902      -34.099       -8.799       19.738       17.010       13.734      389.583      289.332      188.626        0.466        0.043       91.494        8.478        0.009      334.895        5.170      862.117
12/05/2014  00:01:00      -90.708      -22.032       -5.311       22.125       23.806       14.006      489.525      566.711      196.176        0.500        0.063       93.346        6.190        0.004      334.833        5.066      862.112
12/05/2014  00:02:00      -46.113        5.699        2.549       29.686       20.520       12.554      881.240      421.062      157.605        0.181        0.073       46.464        8.542        0.034      334.912        5.199      862.112
12/05/2014  00:03:00      -33.259        7.295       -9.839       19.040       13.913       10.540      362.519      193.565      111.095        0.096        0.033       34.049        7.817        0.053      335.035        5.402      862.124
12/05/2014  00:04:00       26.026       -1.379        3.182       12.647       11.121       11.084      159.943      123.679      122.863        0.055        0.020       26.063        6.346        0.059      335.194        5.665      862.150
12/05/2014  00:05:00        5.755      -29.320       10.708       11.206       11.400       10.159      125.566      129.952      103.203        0.068        0.018       29.879        6.115        0.042      335.244        5.747      862.169
12/05/2014  00:06:00      -24.171      -19.686       -7.125       24.987       19.854       14.076      624.354      394.199      198.137        0.112        0.061       31.173        9.360        0.090      335.211        5.693      862.182
12/05/2014  00:07:00      -33.967      -18.065        0.045       18.677       15.177       13.280      348.814      230.334      176.355        0.112        0.038       38.472        9.577        0.062      335.055        5.436      862.195
12/05/2014  00:08:00      -43.384      -21.873       -2.333       11.519       12.026        4.828      132.690      144.618       23.305        0.133        0.015       48.586        5.173        0.011      335.180        5.642      862.202
12/05/2014  00:09:00      -41.296      -17.674       -3.526       10.461       13.992        8.562      109.433      195.775       73.300        0.120        0.019       44.920        3.607        0.006      335.094        5.502      862.210
12/05/2014  00:10:00      -12.364      -19.890       -5.425       21.694       10.015        8.509      470.612      100.297       72.406        0.061        0.032       23.419        4.131        0.031      335.119        5.541      862.218
12/05/2014  00:11:00        9.800       16.768       19.780       12.815       17.334       14.678      164.222      300.482      215.446        0.072        0.034       19.422       15.504        0.637      335.035        5.403      862.239
12/05/2014  00:12:00       -3.270       40.282       47.444       19.170       15.076       14.200      367.475      227.283      201.630        0.234        0.040       40.414       11.727        0.084      334.839        5.077      862.255
12/05/2014  00:13:00       15.201       -4.857       18.854       35.469       53.114       29.053     1258.036     2821.059      844.087        0.277        0.246       15.958       36.336        5.185      334.851        5.095      862.271
12/05/2014  00:14:00       57.548      -31.703      -10.329       35.015       50.598       33.630     1226.066     2560.113     1130.983        0.467        0.246       65.703       31.933        0.236      334.955        5.269      862.274
12/05/2014  00:15:00        8.447       26.910       42.093       24.918       19.579       16.468      620.921      383.344      271.199        0.192        0.064       28.205       15.571        0.305      334.971        5.296      862.264
12/05/2014  00:16:00       -4.989       19.362       32.892        6.924       12.334        8.865       47.939      152.137       78.591        0.088        0.014       19.995        8.290        0.172      335.047        5.422      862.250
12/05/2014  00:17:00        2.219       10.119        7.691        8.593        8.335       10.834       73.840       69.475      117.384        0.021        0.013       10.360        7.054        0.464      335.043        5.416      862.246
12/05/2014  00:18:00        6.698        3.964        6.244        9.124        9.965        5.206       83.253       99.305       27.098        0.015        0.010        7.783        3.863        0.246      335.058        5.440      862.260
12/05/2014  00:19:00       10.419       -7.327        5.006        7.439        9.750        6.786       55.345       95.063       46.054        0.019        0.010       12.738        4.369        0.118      334.988        5.323      862.273
12/05/2014  00:20:00       15.644        3.718        2.223       15.024        6.678        8.098      225.730       44.591       65.575        0.030        0.017       16.080        3.320        0.043      334.923        5.216      862.279
12/05/2014  00:21:00       32.379       18.419        3.910       15.985       10.918        6.624      255.531      119.204       43.879        0.091        0.021       37.251        2.885        0.006      334.926        5.221      862.293
12/05/2014  00:22:00       45.602       25.378        2.468        9.152        8.983        7.077       83.764       80.700       50.079        0.147        0.011       52.188        4.612        0.008      334.929        5.226      862.309
12/05/2014  00:23:00       31.568       27.180        4.806       11.076        6.857        6.918      122.682       47.023       47.854        0.099        0.011       41.657        5.174        0.015      334.930        5.228      862.328
12/05/2014  00:24:00       17.032       23.449        3.164        9.823       14.975        7.956       96.489      224.260       63.294        0.062        0.019       28.982        8.173        0.080      334.919        5.209      862.346
12/05/2014  00:25:00       -1.835       66.299      -11.685        6.274        9.913        5.066       39.369       98.259       25.667        0.235        0.008       66.324        2.929        0.002      334.969        5.293      862.359
12/05/2014  00:26:00      -42.086       36.929       -7.116       22.469       27.264       13.844      504.842      743.348      191.657        0.231        0.072       55.991       12.050        0.046      334.859        5.109      862.360
12/05/2014  00:27:00      -64.746       45.753      -12.910       17.180       23.117       12.303      295.157      534.384      151.363        0.372        0.049       79.280       10.933        0.019      334.850        5.096      862.355
12/05/2014  00:28:00      -63.462       26.058      -10.971       17.151       14.620       11.269      294.143      213.746      127.001        0.273        0.032       68.603        9.785        0.020      334.819        5.045      862.357
12/05/2014  00:29:00      -51.078        3.092       -4.080       13.770       16.036        7.684      189.603      257.141       59.041        0.157        0.025       51.172        6.953        0.018      334.669        4.794      862.354
12/05/2014  00:30:00      -44.154      -11.114       -6.312        9.742        9.836        7.291       94.910       96.738       53.164        0.118        0.012       45.532        3.549        0.006      334.622        4.716      862.349
12/05/2014  00:31:00      -72.928       -4.682      -12.585       13.281       15.082        6.937      176.381      227.452       48.119        0.298        0.023       73.078        4.568        0.004      334.717        4.873      862.339
12/05/2014  00:32:00      -54.259      -41.172      -12.417       15.926       16.092       11.488      253.624      258.958      131.967        0.272        0.032       68.112        9.674        0.020      334.649        4.761      862.328
12/05/2014  00:33:00      -76.413      -41.207      -16.666       17.839       14.241       12.691      318.219      202.820      161.055        0.425        0.034       86.815        9.956        0.013      334.596        4.673      862.322
12/05/2014  00:34:00      -85.466      -29.021       -6.354       32.285       17.723       16.745     1042.290      314.088      280.394        0.491        0.082       90.259       14.008        0.024      334.501        4.517      862.325
12/05/2014  00:35:00      -76.424      -27.700      -11.998       29.365       23.276       16.167      862.321      541.759      261.371        0.421        0.083       81.289       13.675        0.028      334.416        4.373      862.325
12/05/2014  00:36:00      -95.327      -28.472      -11.278       30.855       21.764       17.562      952.027      473.689      308.436        0.588        0.087       99.488       16.053        0.026      334.373        4.304      862.327
12/05/2014  00:37:00      -82.927      -26.868       -1.585       29.086       27.091       18.629      845.971      733.915      347.030        0.476        0.096       87.171       13.925        0.026      334.332        4.235      862.324
12/05/2014  00:38:00      -34.163      -29.152       -1.485       36.793       32.823       25.512     1353.689     1077.360      650.874        0.255        0.154       44.911       16.691        0.138      334.386        4.327      862.322
12/05/2014  00:39:00      -80.865      -18.982       -1.467       44.717       37.583       28.833     1999.651     1412.506      831.368        0.557        0.212       83.063       28.852        0.121      334.423        4.388      862.316
12/05/2014  00:40:00     -142.286       -2.413      -13.994       54.105       37.743       24.776     2927.367     1424.502      613.827        1.271        0.248      142.306       19.045        0.018      334.446        4.425      862.320
12/05/2014  00:41:00     -143.319      -20.246       -7.735       57.771       49.363       28.519     3337.529     2436.734      813.358        1.380        0.329      144.742       29.402        0.041      334.368        4.294      862.317
12/05/2014  00:42:00     -117.614       -7.837       -7.637       57.280       36.126       28.523     3281.015     1305.060      813.556        0.968        0.270      117.875       31.617        0.072      334.342        4.252      862.305
12/05/2014  00:43:00     -123.219       -3.865      -10.664       40.342       31.104       21.204     1627.441      967.471      449.593        0.918        0.152      123.280       17.674        0.021      334.326        4.225      862.280
12/05/2014  00:44:00     -146.023       30.608      -13.778       39.385       29.579       21.136     1551.195      874.941      446.731        1.266        0.144      149.196       11.908        0.006      334.482        4.482      862.258
12/05/2014  00:45:00     -130.443       32.651       -6.912       47.756       31.052       19.933     2280.623      964.238      397.340        1.088        0.182      134.467       15.401        0.013      334.581        4.648      862.241
12/05/2014  00:46:00     -141.200       17.596      -16.439       40.237       37.914       24.524     1618.992     1437.482      601.419        1.209        0.183      142.292       18.646        0.017      334.615        4.705      862.240
12/05/2014  00:47:00     -129.377        1.846       -7.083       41.890       29.994       20.951     1754.805      899.668      438.959        0.994        0.155      129.391       23.721        0.034      334.578        4.643      862.238
12/05/2014  00:48:00     -163.890       45.910      -18.255       36.290       35.182       24.575     1316.930     1237.790      603.942        1.623        0.158      170.199       18.057        0.011      334.523        4.551      862.231
12/05/2014  00:49:00     -108.620       27.866      -16.026       41.311       30.933       19.664     1706.569      956.831      386.677        0.794        0.153      112.137       13.795        0.015      334.446        4.425      862.226
12/05/2014  00:50:00     -128.817       24.904      -15.507       30.878       44.629       25.644      953.438     1991.761      657.639        1.053        0.180      131.202       11.372        0.008      334.346        4.259      862.221
12/05/2014  00:51:00     -110.553       -4.407      -15.726       21.641       23.141       23.784      468.350      535.503      565.683        0.703        0.078      110.641       10.283        0.009      334.364        4.288      862.223
12/05/2014  00:52:00      -98.952      -15.300      -13.682       31.175       34.791       22.564      971.903     1210.407      509.129        0.645        0.135      100.128       13.659        0.019      334.430        4.397      862.216
12/05/2014  00:53:00     -120.052        2.977      -11.708       33.775       32.113       21.489     1140.764     1031.246      461.756        0.860        0.132      120.089       14.059        0.014      334.393        4.338      862.219
12/05/2014  00:54:00     -134.248       -2.954      -14.931       26.700       36.550       16.891      712.868     1335.870      285.307        1.029        0.117      134.281       12.292        0.008      334.350        4.265      862.241
12/05/2014  00:55:00     -120.664        0.906      -10.037       39.535       40.973       24.924     1563.023     1678.788      621.228        0.926        0.193      120.668       17.441        0.021      334.341        4.250      862.271
12/05/2014  00:56:00     -106.082      -24.686      -13.996       40.689       36.759       22.857     1655.583     1351.204      522.422        0.779        0.176      108.917       19.025        0.031      334.287        4.161      862.288
12/05/2014  00:57:00     -144.655      -10.762      -16.607       57.001       32.813       26.494     3249.133     1076.712      701.951        1.317        0.251      145.054       31.449        0.047      334.282        4.151      862.305
12/05/2014  00:58:00     -106.450      -31.199       -2.342       36.882       40.131       20.295     1360.245     1610.458      411.872        0.785        0.169      110.927       15.852        0.020      334.277        4.145      862.328
12/05/2014  00:59:00      -83.842       -7.564        1.422       30.683       32.509       23.824      941.428     1056.822      567.606        0.483        0.128       84.183       15.331        0.033      334.258        4.112      862.334
12/05/2014  01:00:00      -76.058      -12.729        0.569       37.680       29.497       20.924     1419.796      870.047      437.835        0.434        0.136       77.116       20.385        0.070      334.253        4.103      862.338
12/05/2014  01:01:00      -75.883       -9.755       -0.078       32.668       25.316       20.080     1067.207      640.898      403.190        0.398        0.106       76.507       20.544        0.072      334.310        4.198      862.363
12/05/2014  01:02:00      -20.620      -34.036        7.319       21.509       19.161       17.786      462.616      367.129      316.358        0.139        0.057       39.795       16.625        0.175      334.384        4.323      862.378
12/05/2014  01:03:00      -13.516      -15.458        3.521       23.921       14.022       11.104      572.194      196.604      123.301        0.066        0.045       20.534        7.686        0.140      334.313        4.206      862.390
12/05/2014  01:04:00      -79.536      -34.426      -11.989       17.258       13.376        8.596      297.851      178.916       73.887        0.410        0.028       86.667        7.050        0.007      334.363        4.286      862.394
12/05/2014  01:05:00      -97.899      -23.338      -15.499       12.037        9.893        9.302      144.901       97.870       86.529        0.535        0.016      100.642        4.582        0.002      334.355        4.274      862.395
12/05/2014  01:06:00      -99.985      -22.548      -14.622        7.412       13.953        6.809       54.939      194.677       46.365        0.551        0.015      102.495        2.533        0.001      334.367        4.292      862.374
12/05/2014  01:07:00     -121.229      -35.144      -17.796        8.511       12.045        7.531       72.438      145.080       56.710        0.826        0.014      126.220        4.480        0.001      334.367        4.292      862.348
12/05/2014  01:08:00      -97.738      -45.304      -20.281       14.799       13.960       10.929      219.009      194.891      119.449        0.627        0.027      107.728        8.418        0.006      334.341        4.250      862.326
12/05/2014  01:09:00      -69.707      -61.971       -6.745       26.027       23.368       16.260      677.408      546.063      264.379        0.512        0.074       93.271       11.679        0.016      334.338        4.246      862.323
12/05/2014  01:10:00      -67.801      -26.894       -9.713       27.258       22.536       13.601      742.971      507.872      184.998        0.342        0.072       72.940       16.267        0.050      334.372        4.301      862.306
12/05/2014  01:11:00      -64.346      -24.938       -9.139       20.610       27.642       16.900      424.785      764.062      285.598        0.316        0.074       69.009       15.564        0.051      334.384        4.323      862.291
12/05/2014  01:12:00      -33.007      -28.110       -4.547       29.861       22.197       13.775      891.662      492.696      189.738        0.174        0.079       43.355       15.406        0.126      334.388        4.328      862.288
12/05/2014  01:13:00      -76.488      -30.825      -12.148       18.669       15.263       12.282      348.520      232.959      150.854        0.384        0.037       82.465        7.176        0.008      334.390        4.333      862.294
12/05/2014  01:14:00      -90.146      -12.529      -15.734       12.596       16.772       11.863      158.657      281.305      140.730        0.456        0.029       91.012        8.102        0.008      334.379        4.313      862.304
12/05/2014  01:15:00      -89.055      -25.563      -12.359       16.543       19.250       11.905      273.666      370.562      141.727        0.476        0.039       92.651        9.742        0.011      334.344        4.255      862.299
12/05/2014  01:16:00      -97.648      -24.546      -16.386       17.838       15.740       14.357      318.185      247.752      206.134        0.559        0.039      100.686       11.387        0.013      334.289        4.164      862.308
12/05/2014  01:17:00     -117.583      -34.966      -17.624       23.191       22.586       14.639      537.818      510.144      214.299        0.831        0.063      122.672        8.699        0.005      334.274        4.139      862.309
12/05/2014  01:18:00     -105.462      -46.122       -5.694       32.703       24.687       20.011     1069.515      609.465      400.431        0.768        0.104      115.106       18.341        0.025      334.241        4.084      862.315
12/05/2014  01:19:00     -128.273      -43.272      -20.514       27.733       30.323       21.640      769.140      919.468      468.301        1.045        0.108      135.376       14.036        0.011      334.212        4.036      862.318
12/05/2014  01:20:00     -143.679      -37.307       -9.702       38.636       37.618       22.383     1492.772     1415.136      501.020        1.277        0.170      148.443       20.479        0.019      334.165        3.956      862.332
12/05/2014  01:21:00      -94.080      -41.021       -1.349       38.434       38.454       21.992     1477.204     1478.713      483.666        0.699        0.172      102.634       21.735        0.045      334.178        3.978      862.336
12/05/2014  01:22:00     -117.819      -23.969      -12.709       44.522       41.104       20.752     1982.202     1689.541      430.642        0.936        0.205      120.232       15.948        0.018      334.166        3.959      862.343
12/05/2014  01:23:00     -144.109       -1.627      -15.943       39.831       34.004       22.029     1586.496     1156.291      485.292        1.213        0.161      144.119       19.979        0.019      334.172        3.970      862.365
12/05/2014  01:24:00     -115.315        5.811       -1.577       60.345       43.797       28.301     3641.509     1918.173      800.954        0.985        0.318      115.461       26.880        0.054      334.160        3.949      862.383
12/05/2014  01:25:00     -148.922       46.434      -11.983       53.021       28.982       32.082     2811.226      839.940     1029.253        1.458        0.234      155.994       25.037        0.026      334.293        4.170      862.395
12/05/2014  01:26:00     -109.509      -10.719       -6.844       53.140       40.246       23.857     2823.838     1619.777      569.173        0.858        0.251      110.033       27.299        0.062      334.250        4.099      862.400
12/05/2014  01:27:00      -83.370       -6.590       -8.381       39.243       22.211       16.469     1540.045      493.319      271.243        0.468        0.115       83.630       14.972        0.032      334.299        4.179      862.398
12/05/2014  01:28:00      -65.432      -12.605      -19.651       32.986       22.989       20.260     1088.067      528.474      410.477        0.343        0.101       66.635       12.978        0.038      334.302        4.185      862.397
12/05/2014  01:29:00      -26.858      -19.470      -11.056       29.637       17.097       14.530      878.324      292.314      211.126        0.130        0.069       33.173        6.451        0.038      334.289        4.164      862.389
12/05/2014  01:30:00      -20.958      -10.681       -2.542       16.209       12.121       16.438      262.747      146.924      270.214        0.062        0.034       23.523       13.768        0.343      334.268        4.130      862.393
12/05/2014  01:31:00      -30.095      -17.012       -6.627       15.538       10.597       11.847      241.425      112.294      140.352        0.087        0.025       34.571        9.556        0.076      334.290        4.164      862.405
12/05/2014  01:32:00      -47.978      -28.461      -16.443       15.026       10.449       11.765      225.777      109.173      138.425        0.193        0.024       55.785        7.429        0.018      334.363        4.288      862.421
12/05/2014  01:33:00      -56.424      -23.837      -11.869       17.306       11.006        8.022      299.509      121.127       64.355        0.219        0.024       61.253        3.361        0.003      334.351        4.268      862.426
12/05/2014  01:34:00      -49.629      -19.225      -10.039       17.770       11.391       10.842      315.755      129.744      117.548        0.175        0.028       53.223        7.652        0.021      334.423        4.385      862.432
12/05/2014  01:35:00      -43.368      -27.674       -2.374       21.776       16.023       19.185      474.193      256.725      368.063        0.188        0.055       51.445        6.894        0.018      334.416        4.375      862.425
12/05/2014  01:36:00      -77.935      -42.931      -10.518       22.153       18.847       12.091      490.743      355.207      146.203        0.451        0.050       88.977        5.388        0.004      334.322        4.219      862.418
12/05/2014  01:37:00      -85.344      -20.231       -5.352       35.357       24.156       17.894     1250.141      583.514      320.205        0.494        0.108       87.709       16.387        0.035      334.287        4.162      862.419
12/05/2014  01:38:00     -101.995       -2.286      -15.383       27.403       28.811       17.622      750.911      830.048      310.521        0.627        0.095      102.021       16.360        0.026      334.245        4.091      862.421
12/05/2014  01:39:00      -85.965       -3.114       -6.130       33.619       36.981       24.111     1130.217     1367.624      581.333        0.526        0.154       86.021       18.354        0.046      334.257        4.112      862.426
12/05/2014  01:40:00      -72.150        0.861       -8.957       39.760       29.414       20.412     1580.891      865.213      416.662        0.407        0.143       72.156       15.548        0.046      334.241        4.084      862.423
12/05/2014  01:41:00     -115.264       21.954      -15.804       41.190       31.580       24.114     1696.656      997.316      581.487        0.865        0.164      117.336       19.677        0.028      334.309        4.198      862.417
12/05/2014  01:42:00      -89.640       16.885      -18.602       39.453       35.871       21.753     1556.538     1286.712      473.208        0.599        0.166       91.216       17.911        0.039      334.293        4.171      862.411
12/05/2014  01:43:00      -75.933        2.639       -6.592       30.674       32.110       21.703      940.890     1031.045      471.005        0.413        0.122       75.979       18.704        0.061      334.273        4.138      862.407
12/05/2014  01:44:00      -84.618       -9.300      -13.357       22.347       28.480       15.495      499.372      811.130      240.110        0.449        0.078       85.128       12.126        0.020      334.322        4.218      862.407
12/05/2014  01:45:00      -76.009       -8.389       -7.470       24.424       21.719       15.177      596.548      471.703      230.332        0.360        0.065       76.471       11.718        0.023      334.355        4.275      862.415
12/05/2014  01:46:00      -62.854       -1.315       -7.916       25.654       21.724       16.576      658.120      471.947      274.747        0.271        0.070       62.868       14.654        0.054      334.387        4.328      862.438
12/05/2014  01:47:00      -73.140      -18.933      -16.225       14.933       19.417        9.999      223.009      377.027       99.970        0.334        0.035       75.551        6.408        0.007      334.440        4.414      862.459
12/05/2014  01:48:00      -55.831      -39.034       -8.742       13.075       20.723       11.313      170.944      429.429      127.986        0.272        0.036       68.123        7.757        0.013      334.323        4.221      862.478
12/05/2014  01:49:00      -48.623      -36.542      -15.952       20.073       19.167       11.876      402.911      367.382      141.036        0.243        0.046       60.824        9.686        0.025      334.321        4.218      862.494
12/05/2014  01:50:00      -59.116      -55.497      -13.616       36.469       27.563       14.412     1329.979      759.726      207.715        0.453        0.115       81.084       15.586        0.037      334.296        4.177      862.502
12/05/2014  01:51:00     -111.554      -11.267      -21.823       17.204       15.988       18.365      295.972      255.608      337.275        0.697        0.044      112.122       10.480        0.009      334.383        4.320      862.517
12/05/2014  01:52:00     -113.372      -10.917      -24.503       14.659       11.733       10.565      214.897      137.670      111.617        0.702        0.023      113.896        8.085        0.005      334.433        4.403      862.528
12/05/2014  01:53:00     -108.802       -6.661      -17.873       13.395        8.708       10.476      179.439       75.823      109.738        0.628        0.018      109.005        5.172        0.002      334.399        4.346      862.539
12/05/2014  01:54:00     -102.540       -7.077      -15.046       14.336       13.916       10.224      205.534      193.647      104.537        0.565        0.025      102.784        6.046        0.003      334.453        4.435      862.550
12/05/2014  01:55:00      -98.632      -15.580      -14.454       12.123       12.536       10.948      146.959      157.141      119.851        0.530        0.021       99.854        7.788        0.006      334.473        4.470      862.556
12/05/2014  01:56:00      -82.298      -37.042      -11.689       14.286       13.195       17.759      204.097      174.112      315.398        0.449        0.035       90.251       11.147        0.015      334.441        4.415      862.561
12/05/2014  01:57:00      -76.823      -16.132      -14.955       14.102       16.367       10.171      198.872      267.872      103.450        0.348        0.029       78.498        6.299        0.006      334.404        4.353      862.568
12/05/2014  01:58:00      -81.810      -32.511      -15.897       18.720       10.968        9.218      350.435      120.300       84.965        0.428        0.028       88.033        7.655        0.008      334.438        4.410      862.581
12/05/2014  01:59:00      -99.148      -38.036      -12.058       24.816       22.593       14.806      615.816      510.457      219.231        0.638        0.067      106.193        8.186        0.006      334.440        4.416      862.600
12/05/2014  02:00:00     -126.763      -29.207      -15.601       18.325       19.630       15.708      335.808      385.351      246.738        0.907        0.048      130.084       12.999        0.010      334.451        4.433      862.625
12/05/2014  02:01:00     -128.825      -27.158      -12.491       20.234       17.953       13.210      409.422      322.320      174.492        0.920        0.045      131.657        7.764        0.003      334.429        4.396      862.653
12/05/2014  02:02:00     -119.133      -33.549       -7.757       28.280       21.402       15.883      799.740      458.032      252.281        0.844        0.076      123.767       14.343        0.013      334.432        4.400      862.668
12/05/2014  02:03:00     -137.402      -34.529       -6.634       27.824       29.960       18.507      774.173      897.628      342.495        1.106        0.101      141.674       15.936        0.013      334.399        4.345      862.682
12/05/2014  02:04:00     -117.496      -36.232       -0.784       42.849       25.919       22.854     1836.028      671.813      522.313        0.907        0.152      122.956       21.849        0.032      334.399        4.347      862.690
12/05/2014  02:05:00     -106.386      -47.311      -10.064       31.998       20.602       16.937     1023.855      424.425      286.878        0.770        0.087      116.431        9.501        0.007      334.358        4.279      862.693
12/05/2014  02:06:00     -127.937      -46.598      -12.430       25.290       19.199       12.903      639.605      368.621      166.476        0.993        0.059      136.159       11.111        0.007      334.359        4.283      862.695
12/05/2014  02:07:00     -108.947      -21.928       -4.381       26.340       21.210       18.274      693.808      449.882      333.938        0.692        0.074      111.132       16.247        0.021      334.315        4.207      862.695
12/05/2014  02:08:00      -68.723      -20.523        1.886       22.846       18.545       12.854      521.947      343.923      165.219        0.309        0.052       71.722       13.247        0.034      334.320        4.215      862.697
12/05/2014  02:09:00      -92.538      -13.085       -5.909       17.588       15.229       10.091      309.353      231.934      101.833        0.471        0.032       93.458       10.312        0.012      334.391        4.333      862.707
12/05/2014  02:10:00      -77.630      -33.667       -6.547       13.493       16.575        9.946      182.070      274.716       98.923        0.388        0.028       84.616        5.610        0.004      334.388        4.330      862.712
12/05/2014  02:11:00      -72.419      -34.495       -9.768       11.708       13.691        8.309      137.073      187.434       69.045        0.346        0.020       80.215        4.894        0.004      334.378        4.311      862.727
12/05/2014  02:12:00      -83.620      -14.507      -15.420       10.150        9.674        8.530      103.021       93.587       72.759        0.385        0.013       84.869        5.001        0.003      334.345        4.256      862.732
12/05/2014  02:13:00      -77.919        2.059       -7.016        8.603       11.919        8.111       74.017      142.056       65.790        0.320        0.014       77.946        1.281        0.000      334.334        4.239      862.742
12/05/2014  02:14:00      -51.396      -24.466      -11.574       23.536        9.965        8.498      553.938       99.306       72.222        0.205        0.036       56.922        3.538        0.004      334.307        4.193      862.747
12/05/2014  02:15:00      -38.482      -21.647       -4.425       15.470        8.975        8.150      239.325       80.554       66.421        0.118        0.019       44.153        5.900        0.018      334.363        4.289      862.746
12/05/2014  02:16:00      -24.656      -21.979        3.861       20.333       14.882        9.400      413.419      221.482       88.361        0.091        0.036       33.030       10.568        0.102      334.312        4.203      862.743
12/05/2014  02:17:00      -57.556       -7.662       -3.389       20.148        9.915        8.427      405.960       98.304       71.013        0.198        0.029       58.064       10.082        0.030      334.343        4.253      862.736
12/05/2014  02:18:00      -73.864      -12.154       -7.628       12.163       10.506        5.885      147.939      110.367       34.634        0.298        0.015       74.858        5.139        0.005      334.350        4.266      862.725
12/05/2014  02:19:00      -84.373      -19.437      -11.786        8.196       10.294        6.672       67.180      105.961       44.514        0.393        0.011       86.583        3.697        0.002      334.351        4.266      862.714
12/05/2014  02:20:00      -83.901      -12.143      -10.284       11.395       11.492        8.269      129.843      132.062       68.378        0.381        0.017       84.775        6.434        0.006      334.324        4.222      862.710
12/05/2014  02:21:00      -84.620      -21.874       -8.225        9.583       11.450        8.597       91.837      131.094       73.909        0.400        0.015       87.401        3.900        0.002      334.349        4.264      862.720
12/05/2014  02:22:00      -66.306      -16.812       -9.998       10.520        5.930        4.153      110.668       35.161       17.251        0.247        0.008       68.404        1.887        0.001      334.403        4.348      862.729
12/05/2014  02:23:00      -38.993      -11.218       -4.736       13.978        7.715        7.201      195.376       59.521       51.859        0.099        0.015       40.574        6.482        0.026      334.335        4.241      862.747
12/05/2014  02:24:00      -18.580      -15.196       -2.150       14.801        9.371        3.184      219.078       87.810       10.137        0.045        0.016       24.003        4.026        0.028      334.419        4.383      862.765
12/05/2014  02:25:00       -4.973        0.629        0.715        3.698        3.893        4.983       13.676       15.154       24.834        0.004        0.003        5.013        3.387        0.456      334.428        4.395      862.783
12/05/2014  02:26:00       -3.180       24.162       25.179        9.429       10.865       13.779       88.901      118.049      189.868        0.081        0.020       24.371        8.726        0.128      334.347        4.259      862.798
12/05/2014  02:27:00       20.338       13.323       10.953       12.644       10.503       12.875      159.859      110.315      165.760        0.057        0.022       24.313        6.686        0.076      334.269        4.130      862.804
12/05/2014  02:28:00        6.984        5.243        6.396        9.415        6.438        5.395       88.639       41.453       29.103        0.014        0.008        8.733        4.918        0.317      334.289        4.164      862.810
12/05/2014  02:29:00        8.370        6.857       12.006        5.907        6.452        5.100       34.897       41.625       26.014        0.018        0.005       10.820        4.195        0.150      334.240        4.082      862.817
12/05/2014  02:30:00       17.463        9.687        3.876        5.932        7.030        6.563       35.188       49.422       43.070        0.027        0.006       19.969        3.085        0.024      334.181        3.985      862.821
12/05/2014  02:31:00       10.815       24.940        0.380        5.394        5.598        3.949       29.098       31.340       15.593        0.041        0.004       27.183        2.411        0.008      334.134        3.906      862.829
12/05/2014  02:32:00        9.279       13.753       -1.995        4.829        4.449        2.669       23.319       19.794        7.125        0.016        0.003       16.590        2.341        0.020      334.124        3.888      862.832
12/05/2014  02:33:00       18.424       14.652       -1.951        7.513        5.974       11.392       56.445       35.686      129.769        0.039        0.011       23.540        5.609        0.057      334.091        3.834      862.836
12/05/2014  02:34:00       26.361       15.510       10.757       11.642        7.445        9.596      135.535       55.435       92.081        0.067        0.014       30.585        5.886        0.037      334.100        3.849      862.843
12/05/2014  02:35:00       30.967       25.605       15.143       16.967       16.775       10.376      287.874      281.394      107.659        0.126        0.034       40.181        8.968        0.050      334.090        3.833      862.845
12/05/2014  02:36:00       22.696       24.708       19.453       13.840       15.448       15.000      191.549      238.634      224.988        0.108        0.033       33.550        7.802        0.054      334.059        3.781      862.853
12/05/2014  02:37:00        6.396       10.638       14.810        8.724       12.924        7.641       76.114      167.040       58.381        0.034        0.015       12.413        3.749        0.091      334.090        3.832      862.862
12/05/2014  02:38:00       -8.407       -3.945        8.538        7.272        7.349        9.228       52.877       54.007       85.163        0.018        0.010        9.287        5.708        0.378      334.100        3.850      862.877
12/05/2014  02:39:00       -2.080       -1.525       -1.406        4.957        5.658        3.541       24.570       32.018       12.540        0.004        0.003        2.579        2.233        0.749      334.159        3.949      862.896
12/05/2014  02:40:00      -32.931      -11.908       -2.616       13.039       11.054        7.927      170.004      122.187       62.830        0.079        0.018       35.018        6.966        0.040      334.032        3.737      862.912
12/05/2014  02:41:00      -42.503       -2.509       -5.403       10.686       12.612        8.781      114.199      159.066       77.103        0.110        0.018       42.577        5.917        0.019      333.988        3.667      862.922
12/05/2014  02:42:00      -54.330        3.271       -7.790       12.908       10.302        9.477      166.620      106.140       89.815        0.169        0.018       54.429        6.428        0.014      334.010        3.701      862.915
12/05/2014  02:43:00      -40.023       -3.280       -5.221       15.462        7.590        9.538      239.080       57.608       90.979        0.101        0.019       40.157        9.745        0.059      333.948        3.598      862.905
12/05/2014  02:44:00      -52.088       -3.224       -5.478       15.309        9.138       12.697      234.351       83.502      161.208        0.162        0.024       52.188       11.066        0.045      333.949        3.602      862.889
12/05/2014  02:45:00      -48.814      -10.428       -5.866        9.518       11.807        7.995       90.586      139.414       63.925        0.141        0.015       49.915        4.513        0.008      334.028        3.731      862.881
12/05/2014  02:46:00      -33.762      -29.823       -0.842       10.216        9.639        7.738      104.358       92.904       59.874        0.114        0.013       45.048        5.132        0.013      334.044        3.756      862.887
12/05/2014  02:47:00      -29.219      -15.631       -7.599        9.164        9.741        7.916       83.975       94.888       62.662        0.070        0.012       33.138        7.874        0.056      334.065        3.792      862.887
12/05/2014  02:48:00      -21.329       -9.757       -4.075        9.051       13.875        5.478       81.924      192.528       30.004        0.044        0.015       23.455        5.690        0.059      334.261        4.118      862.899
12/05/2014  02:49:00      -14.469       10.370       -3.672        6.863        7.647        8.905       47.105       58.482       79.297        0.026        0.009       17.801        3.281        0.034      334.240        4.082      862.899
12/05/2014  02:50:00      -22.699        3.827       -5.992        6.060        4.980        4.579       36.728       24.802       20.971        0.032        0.004       23.019        2.074        0.008      334.188        3.997      862.887
12/05/2014  02:51:00      -13.132        0.657        4.415       10.658        7.858        9.335      113.587       61.750       87.142        0.023        0.013       13.149        7.303        0.308      334.133        3.906      862.874
12/05/2014  02:52:00       -9.521       28.891       -5.813       19.817       21.704        8.357      392.730      471.070       69.846        0.095        0.047       30.420        3.616        0.014      334.105        3.857      862.859
12/05/2014  02:53:00       -2.908       28.793       -1.886       16.026       27.523        9.094      256.827      757.496       82.697        0.097        0.055       28.940       12.909        0.199      334.058        3.781      862.854
12/05/2014  02:54:00       19.221       20.182        0.902       12.392       14.891       11.399      153.568      221.734      129.931        0.064        0.025       27.871       11.207        0.162      334.067        3.796      862.855
12/05/2014  02:55:00       41.886       30.384        1.920       10.140       12.127        7.977      102.815      147.054       63.636        0.150        0.016       51.746        5.400        0.011      333.988        3.665      862.860
12/05/2014  02:56:00       54.966       43.671       -2.636       14.325        8.280       10.107      205.211       68.562      102.150        0.266        0.019       70.203        6.840        0.009      333.922        3.556      862.860
12/05/2014  02:57:00       37.430       24.254       -3.445       21.752       15.484       14.384      473.137      239.749      206.887        0.146        0.046       44.601       10.038        0.051      333.926        3.563      862.855
12/05/2014  02:58:00       11.518       50.221       -6.661        9.831       23.243        8.784       96.656      540.233       77.167        0.171        0.036       51.525       10.594        0.042      333.934        3.575      862.842
12/05/2014  02:59:00       -0.686       67.644      -14.612        5.027        9.708        6.099       25.267       94.237       37.203        0.247        0.008       67.647        4.674        0.005      334.030        3.734      862.840
12/05/2014  03:00:00      -24.007       28.901       -2.995       15.235       34.354       15.895      232.119     1180.181      252.660        0.154        0.083       37.571       11.164        0.088      333.945        3.592      862.840
12/05/2014  03:01:00      -53.598        5.181       -9.121       13.299        9.739        8.451      176.875       94.852       71.422        0.166        0.017       53.847        6.354        0.014      333.973        3.641      862.844
12/05/2014  03:02:00      -54.909      -16.641       -6.894       12.426       10.977        7.023      154.393      120.504       49.319        0.183        0.016       57.375        3.702        0.004      333.921        3.554      862.854
12/05/2014  03:03:00      -73.339      -15.025      -11.434        7.238        9.135        8.140       52.384       83.452       66.254        0.297        0.010       74.862        3.944        0.003      333.878        3.480      862.864
12/05/2014  03:04:00      -87.106       -5.392      -10.996       12.071       11.464        9.870      145.702      131.412       97.407        0.406        0.019       87.272        7.274        0.007      333.868        3.467      862.876
12/05/2014  03:05:00      -94.130      -12.206      -11.822       15.233       17.140        9.261      232.043      293.787       85.767        0.488        0.031       94.918        7.809        0.007      333.800        3.352      862.876
12/05/2014  03:06:00      -73.255        3.739       -3.871       26.030       15.824       12.243      677.550      250.399      149.881        0.324        0.054       73.350       12.167        0.028      333.817        3.379      862.883
12/05/2014  03:07:00      -79.149       12.944      -15.657       13.565       14.710        9.544      184.010      216.372       91.096        0.358        0.025       80.201        7.843        0.010      333.955        3.610      862.869
12/05/2014  03:08:00      -53.169       30.291      -11.761       16.159       19.676       14.430      261.119      387.161      208.238        0.237        0.043       61.192       13.026        0.045      334.197        4.011      862.861
12/05/2014  03:09:00       -5.172       44.894      -11.446       21.976       20.342        8.947      482.962      413.777       80.045        0.157        0.049       45.191        7.185        0.025      334.478        4.478      862.859
12/05/2014  03:10:00       14.371       77.547       -9.731       17.415       11.490        9.808      303.278      132.018       96.206        0.342        0.027       78.868        7.060        0.008      334.559        4.611      862.856
12/05/2014  03:11:00        7.821       96.745      -12.633        8.959       15.428        6.540       80.257      238.022       42.767        0.497        0.018       97.061        3.633        0.001      334.497        4.508      862.856
12/05/2014  03:12:00       27.089      104.127      -22.501       10.912       11.793        6.254      119.066      139.074       39.107        0.619        0.015      107.593        3.607        0.001      334.511        4.531      862.852
12/05/2014  03:13:00        6.700      103.935      -17.575        8.511       10.893        3.960       72.436      118.648       15.680        0.568        0.010      104.151        4.546        0.002      334.571        4.630      862.843
12/05/2014  03:14:00       -1.640       94.047      -13.757        5.805       10.246        5.338       33.693      104.987       28.499        0.460        0.008       94.062        4.039        0.002      334.600        4.682      862.833
12/05/2014  03:15:00       -7.444       89.939       -1.975       12.241       24.741       11.032      149.841      612.136      121.702        0.452        0.044       90.247       12.609        0.020      334.483        4.486      862.818
12/05/2014  03:16:00      -42.797       -1.533       -3.793        7.958       11.990        9.247       63.330      143.759       85.513        0.107        0.015       42.824        3.465        0.007      334.091        3.836      862.831
12/05/2014  03:17:00      -51.961      -14.896       -6.083       11.694       11.191        8.484      136.747      125.231       71.970        0.165        0.017       54.054        5.126        0.009      333.968        3.631      862.845
12/05/2014  03:18:00      -90.777        8.681      -11.604       22.525       14.382       12.551      507.385      206.846      157.522        0.466        0.044       91.191        9.636        0.011      333.883        3.491      862.850
12/05/2014  03:19:00      -56.237       -0.366       -6.643       17.859       18.525       12.204      318.936      343.178      148.939        0.201        0.041       56.238       10.492        0.035      333.983        3.656      862.858
12/05/2014  03:20:00      -55.180        4.424       -5.641       21.468       10.051       11.387      460.883      101.018      129.655        0.189        0.035       55.357       14.201        0.066      334.059        3.783      862.851
12/05/2014  03:21:00      -13.246       17.888        7.318       13.590       18.898       12.064      184.686      357.119      145.529        0.062        0.034       22.259        9.279        0.174      334.235        4.075      862.841
12/05/2014  03:22:00       -9.801        2.431       -2.350        9.923        7.102        9.745       98.466       50.435       94.961        0.018        0.012       10.098        6.625        0.430      334.229        4.065      862.830
12/05/2014  03:23:00       -1.415       14.577       -0.325       13.851        9.610       10.583      191.844       92.346      111.997        0.031        0.020       14.646        7.517        0.263      334.493        4.501      862.822
12/05/2014  03:24:00        4.803        0.664        6.837       13.546        8.315        9.752      183.502       69.141       95.094        0.021        0.017        4.849        3.756        0.600      334.519        4.545      862.821
12/05/2014  03:25:00        1.275      -11.918       -0.037       16.061       15.247        6.969      257.971      232.471       48.564        0.034        0.027       11.986        2.442        0.042      334.472        4.466      862.838
12/05/2014  03:26:00      -84.787      -25.488       -7.715       27.292        9.451        9.395      744.873       89.320       88.275        0.441        0.046       88.535        3.024        0.001      333.964        3.623      862.860
12/05/2014  03:27:00     -134.798       -6.281      -15.909       49.139       29.818       26.698     2414.654      889.124      712.776        1.124        0.201      134.944       30.954        0.053      333.835        3.409      862.880
12/05/2014  03:28:00     -151.990       12.589      -12.084       51.974       39.240       25.512     2701.320     1539.799      650.859        1.415        0.245      152.511       24.678        0.026      333.834        3.408      862.890
12/05/2014  03:29:00     -120.133       42.678      -10.191       52.758       33.187       25.810     2783.366     1101.378      666.151        1.045        0.228      127.488       20.153        0.025      333.841        3.420      862.895
12/05/2014  03:30:00     -156.596       44.264       -9.215       30.449       32.972       20.061      927.140     1087.148      402.457        1.449        0.121      162.732       14.258        0.008      333.900        3.518      862.900
12/05/2014  03:31:00     -129.951       17.625       -9.314       36.096       31.066       24.793     1302.914      965.105      614.696        1.008        0.144      131.141       20.288        0.024      333.870        3.468      862.908
12/05/2014  03:32:00      -98.060       27.668      -10.547       36.662       28.274       21.817     1344.072      799.415      475.989        0.656        0.131      101.889       16.291        0.026      333.928        3.565      862.908
12/05/2014  03:33:00      -32.603       10.909       -2.866       29.762       16.104       14.752      885.795      259.345      217.627        0.128        0.068       34.379       13.343        0.151      334.084        3.823      862.896
12/05/2014  03:34:00      -47.850       44.092      -15.088       13.443       12.468        8.434      180.718      155.446       71.131        0.243        0.020       65.067        2.452        0.001      334.355        4.273      862.884
12/05/2014  03:35:00      -45.052       46.436      -12.722       24.751       19.208       12.841      612.589      368.931      164.902        0.275        0.057       64.700       11.688        0.033      334.422        4.385      862.861
12/05/2014  03:36:00      -48.758       50.403      -13.380       30.211       25.660       18.991      912.688      658.459      360.668        0.351        0.097       70.127       13.456        0.037      334.410        4.366      862.844
12/05/2014  03:37:00      -44.195        6.066       -8.345       15.083       26.492       10.823      227.504      701.813      117.131        0.155        0.052       44.610       10.891        0.060      334.281        4.152      862.847
12/05/2014  03:38:00      -61.556      -16.686       -7.617       13.969       19.311        9.635      195.124      372.931       92.835        0.239        0.033       63.777        9.814        0.024      334.114        3.871      862.855
12/05/2014  03:39:00     -100.796        1.322       -8.958       48.697       33.196       22.276     2371.381     1101.969      496.225        0.710        0.198      100.805       21.916        0.047      334.248        4.095      862.854
12/05/2014  03:40:00      -45.759      -14.819       -0.218       32.250       29.736       18.891     1040.077      884.246      356.858        0.230        0.114       48.099       18.284        0.144      334.200        4.015      862.856
12/05/2014  03:41:00      -79.022      -14.345       -8.218       30.984       28.689       15.573      959.996      823.046      242.505        0.427        0.101       80.313       11.112        0.019      334.152        3.937      862.853
12/05/2014  03:42:00      -63.720       -8.842       -7.442       33.296       20.509       20.760     1108.641      420.629      430.995        0.308        0.098       64.331       16.164        0.063      333.925        3.559      862.850
12/05/2014  03:43:00      -43.809      -23.206      -10.093       19.913       18.601       12.285      396.512      346.006      150.911        0.173        0.045       49.575       10.179        0.042      333.884        3.493      862.846
12/05/2014  03:44:00       -0.747      -22.873       -7.757       20.585       13.058       11.986      423.742      170.516      143.670        0.066        0.037       22.885       10.870        0.226      333.955        3.610      862.847
12/05/2014  03:45:00      -11.888      -32.030       -5.462       15.116       10.701        9.305      228.493      114.513       86.586        0.081        0.021       34.164        4.562        0.018      334.232        4.069      862.847
12/05/2014  03:46:00      -14.519      -25.227       -2.758        6.904        5.300        6.963       47.672       28.090       48.479        0.049        0.006       29.107        4.322        0.022      334.396        4.341      862.859
12/05/2014  03:47:00      -11.276      -27.620        3.404        9.293        7.188        7.833       86.368       51.665       61.355        0.055        0.010       29.833        3.396        0.013      334.568        4.627      862.864
12/05/2014  03:48:00      -16.654      -25.360       -2.823       13.725        9.010        8.487      188.377       81.183       72.030        0.063        0.017       30.339        3.853        0.016      334.395        4.340      862.866
12/05/2014  03:49:00      -11.568      -13.778        1.162       10.098        7.057        8.932      101.967       49.808       79.773        0.028        0.012       17.991        3.595        0.040      334.510        4.530      862.864
12/05/2014  03:50:00      -32.467      -14.766       -5.276        7.912        6.368        5.236       62.594       40.546       27.415        0.072        0.007       35.667        2.704        0.006      334.211        4.034      862.862
12/05/2014  03:51:00      -32.349      -20.030       -8.328       12.581        9.737        7.538      158.280       94.808       56.828        0.091        0.015       38.048        2.882        0.006      334.121        3.883      862.858
12/05/2014  03:52:00      -46.581       -3.983       -5.379       17.048       14.333        7.422      290.635      205.438       55.090        0.138        0.028       46.751        6.627        0.020      334.066        3.795      862.857
12/05/2014  03:53:00      -62.378       -8.636      -11.176       10.459        9.947        8.580      109.393       98.946       73.611        0.219        0.014       62.973        4.776        0.006      334.027        3.730      862.854
12/05/2014  03:54:00      -87.587      -13.513      -19.073       16.740       14.740        9.436      280.215      217.275       89.037        0.440        0.029       88.624        6.193        0.005      333.978        3.649      862.858
12/05/2014  03:55:00      -78.350      -40.123      -12.218       16.753       16.920       15.188      280.668      286.288      230.689        0.435        0.040       88.027       11.139        0.016      333.866        3.463      862.867
12/05/2014  03:56:00      -96.074      -54.519       -8.933       26.775       21.924       13.563      716.924      480.648      183.945        0.683        0.069      110.465        7.169        0.004      333.844        3.425      862.881
12/05/2014  03:57:00      -84.956      -56.875       -9.844       54.131       22.761       21.949     2930.130      518.076      481.759        0.724        0.196      102.237       24.636        0.058      333.862        3.455      862.904
12/05/2014  03:58:00     -106.089      -51.724        2.907       44.208       37.755       23.976     1954.366     1425.422      574.830        0.895        0.198      118.026       24.268        0.042      333.885        3.494      862.928
12/05/2014  03:59:00      -96.904      -35.063       -2.068       26.727       23.031       14.029      714.310      530.420      196.802        0.603        0.072      103.052       15.643        0.023      333.950        3.601      862.935
12/05/2014  04:00:00      -43.841      -18.963       -6.439       16.469       14.573       10.055      271.225      212.375      101.098        0.145        0.029       47.766        9.042        0.036      333.985        3.662      862.937
12/05/2014  04:01:00      -29.431       -6.259       -1.695       20.958       10.140        8.277      439.255      102.819       68.509        0.076        0.031       30.089       11.147        0.137      334.028        3.731      862.921
12/05/2014  04:02:00        3.140       23.119        2.599       17.394       13.673        6.399      302.555      186.954       40.951        0.054        0.027       23.331        7.028        0.091      334.103        3.856      862.897
12/05/2014  04:03:00       52.246       30.642        5.492       24.111       16.444       11.714      581.356      270.415      137.213        0.234        0.049       60.569       12.263        0.041      334.108        3.862      862.877
12/05/2014  04:04:00       76.073       32.582       -1.575       26.101       20.204       18.500      681.275      408.216      342.251        0.414        0.072       82.757       12.516        0.023      334.019        3.717      862.868
12/05/2014  04:05:00       84.917       30.820        3.967       26.148       17.003       21.068      683.727      289.118      443.870        0.480        0.071       90.337        8.844        0.010      333.978        3.652      862.870
12/05/2014  04:06:00       45.543        7.098       -2.526       18.304       20.030       11.977      335.026      401.210      143.460        0.151        0.044       46.092        4.805        0.011      333.979        3.650      862.875
12/05/2014  04:07:00       14.675       -2.230        1.557       14.343       10.567        8.147      205.735      111.663       66.366        0.030        0.019       14.843        7.491        0.255      334.040        3.752      862.878
12/05/2014  04:08:00      -33.059      -13.770       -6.213       10.860       11.745        8.935      117.937      137.934       79.833        0.083        0.017       35.812        6.319        0.031      334.234        4.073      862.875
12/05/2014  04:09:00      -76.731      -21.468       -3.407       22.925       24.704       12.864      525.541      610.303      165.470        0.383        0.065       79.677       12.108        0.023      334.005        3.692      862.870
12/05/2014  04:10:00      -95.122      -30.176       -6.056       14.931       19.913        8.459      222.936      396.539       71.553        0.534        0.035       99.794        7.867        0.006      334.077        3.810      862.861
12/05/2014  04:11:00      -61.466       -6.184       -8.867       10.349       12.632        6.885      107.099      159.557       47.401        0.210        0.016       61.776        3.669        0.004      334.131        3.900      862.842
12/05/2014  04:12:00      -51.185        8.967       -8.315        7.868        6.913        6.041       61.902       47.789       36.488        0.146        0.007       51.965        4.269        0.007      334.166        3.958      862.817
12/05/2014  04:13:00      -51.294       14.665      -11.945       11.443       10.118        5.578      130.947      102.381       31.109        0.163        0.013       53.349        3.652        0.005      334.238        4.080      862.795
12/05/2014  04:14:00      -42.837      -10.703       -9.180        6.407       13.755        6.591       41.053      189.205       43.444        0.115        0.014       44.154        7.365        0.028      334.263        4.121      862.790
12/05/2014  04:15:00      -26.523      -27.057        0.309       13.195        8.503        9.901      174.104       72.298       98.028        0.089        0.017       37.888        8.661        0.052      334.257        4.109      862.802
12/05/2014  04:16:00      -41.267      -30.614        3.117       17.619       13.092       14.294      310.412      171.399      204.320        0.167        0.034       51.383       10.913        0.045      334.200        4.015      862.823
12/05/2014  04:17:00      -29.327      -22.549        4.961       29.792       17.152       15.249      887.570      294.199      232.521        0.140        0.071       36.994       14.720        0.158      334.195        4.007      862.849
12/05/2014  04:18:00      -27.382      -32.427       -4.748       14.484       12.387       11.029      209.793      153.448      121.637        0.115        0.024       42.441        5.573        0.017      334.280        4.148      862.867
12/05/2014  04:19:00       -6.131      -17.092        3.401       15.583       13.931       11.749      242.833      194.080      138.042        0.046        0.029       18.158       10.201        0.316      334.233        4.071      862.874
12/05/2014  04:20:00      -21.267      -11.692        2.264        8.727        5.898        5.366       76.167       34.788       28.793        0.037        0.007       24.269        3.548        0.021      334.172        3.969      862.868
12/05/2014  04:21:00      -30.546       -3.709        0.978        6.481        4.791        2.902       42.003       22.951        8.419        0.051        0.004       30.770        2.205        0.005      334.145        3.925      862.853
12/05/2014  04:22:00      -51.314       -5.493       -6.239       13.910        8.808        6.743      193.501       77.577       45.473        0.151        0.016       51.607        7.177        0.019      334.167        3.960      862.837
12/05/2014  04:23:00      -63.060      -26.104       -5.578       11.636        9.842        8.653      135.407       96.863       74.880        0.250        0.015       68.250        5.177        0.006      334.122        3.885      862.823
12/05/2014  04:24:00      -97.722      -29.846      -13.839       16.980       18.349        9.677      288.334      336.681       93.644        0.568        0.036      102.178        5.454        0.003      334.009        3.699      862.819
12/05/2014  04:25:00     -114.624      -29.280       -4.389       34.915       21.874       18.843     1219.045      478.455      355.055        0.803        0.103      118.305       19.292        0.027      333.912        3.540      862.823
12/05/2014  04:26:00     -133.591      -47.974       -4.532       24.968       18.198       18.887      623.382      331.170      356.709        1.074        0.066      141.944       16.746        0.014      333.951        3.602      862.842
12/05/2014  04:27:00     -129.709      -46.275       -3.847       17.408       18.874       11.191      303.041      356.213      125.243        0.988        0.039      137.716        6.726        0.002      333.955        3.610      862.870
12/05/2014  04:28:00     -102.763      -31.922        1.639       30.978       21.880       14.472      959.659      478.717      209.451        0.661        0.082      107.607       15.289        0.020      333.907        3.531      862.891
12/05/2014  04:29:00      -76.875      -17.495        3.546       20.488       24.456       16.108      419.778      598.078      259.453        0.375        0.064       78.841       10.833        0.019      333.911        3.539      862.901
12/05/2014  04:30:00      -70.643      -22.381        0.487       26.203       17.318       15.442      686.592      299.913      238.463        0.336        0.061       74.104       16.052        0.047      333.931        3.570      862.895
12/05/2014  04:31:00      -76.121      -25.494       -7.109       12.309       13.749        9.060      151.518      189.028       82.078        0.346        0.021       80.277        6.641        0.007      333.947        3.597      862.880
12/05/2014  04:32:00      -65.034       -6.427       -7.355       13.423       12.830       10.671      180.182      164.609      113.879        0.239        0.023       65.350        9.677        0.022      333.951        3.603      862.870
12/05/2014  04:33:00      -58.922       -0.924       -5.266       15.220       10.544        8.868      231.637      111.177       78.642        0.196        0.021       58.930        4.183        0.005      334.144        3.922      862.873
12/05/2014  04:34:00      -41.709        0.170       -6.914        8.633        6.256        5.293       74.531       39.131       28.014        0.096        0.007       41.709        4.881        0.014      334.238        4.079      862.866
12/05/2014  04:35:00      -37.730       -4.599       -0.488        5.823        5.522        5.852       33.904       30.488       34.248        0.077        0.005       38.009        4.467        0.014      334.313        4.203      862.869
12/05/2014  04:36:00      -36.751      -24.341       -4.639       11.592       11.239        5.341      134.380      126.309       28.523        0.113        0.014       44.080        5.954        0.018      334.232        4.068      862.884
12/05/2014  04:37:00      -59.291      -28.431       -8.324       11.505        8.026        7.592      132.362       64.423       57.640        0.232        0.013       65.755        3.435        0.003      333.990        3.668      862.903
12/05/2014  04:38:00      -22.222      -17.415       -5.675       24.329       12.909       12.666      591.922      166.644      160.429        0.087        0.046       28.233        4.483        0.025      333.986        3.662      862.930
12/05/2014  04:39:00      -21.778      -23.113        7.838       18.640       12.569       12.681      347.457      157.973      160.795        0.087        0.033       31.757       10.634        0.112      333.962        3.624      862.951
12/05/2014  04:40:00      -36.642       -8.886        0.421       19.758       14.598       11.837      390.387      213.116      140.109        0.108        0.037       37.704       11.434        0.092      333.929        3.568      862.966
12/05/2014  04:41:00      -64.451       -8.569       -5.273        9.287       10.620        5.719       86.256      112.775       32.702        0.224        0.012       65.019        2.849        0.002      333.952        3.607      862.974
12/05/2014  04:42:00      -73.432      -20.553      -10.624       11.421       16.988        9.177      130.438      288.602       84.210        0.322        0.025       76.254        7.288        0.009      333.952        3.606      862.985
12/05/2014  04:43:00      -53.358      -27.679       -5.294       13.540       15.442       10.158      183.338      238.449      103.194        0.208        0.026       60.110        5.802        0.009      333.929        3.567      862.991
12/05/2014  04:44:00      -68.819      -25.353      -10.560       15.199       12.998        9.726      230.996      168.938       94.588        0.299        0.025       73.341        4.448        0.004      333.887        3.497      863.002
12/05/2014  04:45:00      -32.790      -22.398        2.034       24.680       18.887       16.916      609.103      356.708      286.152        0.142        0.063       39.710       16.394        0.170      333.834        3.408      863.014
12/05/2014  04:46:00      -34.301       -6.006       -2.087       27.312       27.291       11.493      745.923      744.801      132.090        0.142        0.081       34.823       11.970        0.118      333.834        3.408      863.022
12/05/2014  04:47:00      -37.416       14.552       -3.472       17.385       17.990        9.755      302.252      323.623       95.154        0.117        0.036       40.146        6.926        0.030      333.965        3.627      863.027
12/05/2014  04:48:00      -55.139       25.392       -4.868       20.716       19.822       12.763      429.132      392.898      162.889        0.235        0.049       60.704        8.306        0.019      334.130        3.901      863.035
12/05/2014  04:49:00      -37.203       -7.379       -5.723       19.982       15.158       11.011      399.290      229.772      121.247        0.111        0.038       37.928       12.312        0.105      334.181        3.983      863.037
12/05/2014  04:50:00      -51.229       -1.534       -7.715       17.611       25.840       16.124      310.152      667.705      259.997        0.196        0.062       51.252       13.117        0.066      334.180        3.983      863.035
12/05/2014  04:51:00      -47.735      -17.203       -4.905       17.287       16.103        9.070      298.844      259.318       82.270        0.162        0.032       50.740        8.210        0.026      334.091        3.833      863.032
12/05/2014  04:52:00      -10.363      -16.336       -0.656       14.538       14.227        9.690      211.363      202.412       93.887        0.044        0.025       19.346        7.756        0.161      334.115        3.874      863.028
12/05/2014  04:53:00        2.114       -1.742       -2.429        7.412        8.444        6.587       54.941       71.304       43.385        0.009        0.008        2.739        5.669        4.285      334.111        3.867      863.030
12/05/2014  04:54:00        5.745       -2.743       -3.909       11.862       14.521        6.989      140.696      210.866       48.851        0.023        0.020        6.367        4.617        0.526      334.164        3.958      863.030
12/05/2014  04:55:00       -6.435        5.852       -6.639        6.025        9.672        4.544       36.305       93.540       20.644        0.014        0.008        8.698        4.423        0.259      334.134        3.908      863.032
12/05/2014  04:56:00        0.664       20.316       -4.483        7.280        7.395        5.270       52.996       54.686       27.774        0.028        0.007       20.327        3.399        0.028      334.146        3.926      863.025
12/05/2014  04:57:00      -20.804       -1.146       -0.753       12.241        5.273        8.292      149.833       27.809       68.759        0.034        0.012       20.836        8.168        0.154      334.132        3.903      863.019
12/05/2014  04:58:00      -28.545        0.904       -4.587        7.875        6.599        4.978       62.016       43.545       24.785        0.048        0.007       28.559        3.321        0.014      334.120        3.883      863.006
12/05/2014  04:59:00      -27.118       -2.732       -6.069        6.740        7.890        5.137       45.431       62.252       26.391        0.046        0.007       27.255        3.718        0.019      333.998        3.685      862.999
12/05/2014  05:00:00      -21.152      -12.238       -6.664        6.740        6.582        6.343       45.430       43.328       40.232        0.039        0.006       24.437        2.974        0.015      334.006        3.694      862.987
12/05/2014  05:01:00       -3.934       -7.864        4.026        8.278        9.448        8.207       68.526       89.268       67.360        0.016        0.011        8.793        6.306        0.514      334.099        3.848      862.985
12/05/2014  05:02:00        9.573        8.160        7.941       13.877        6.870        7.816      192.567       47.190       61.094        0.026        0.015       12.579        6.865        0.298      334.238        4.079      862.977
12/05/2014  05:03:00      -12.386       15.193       -1.187       13.312       10.092        9.821      177.207      101.846       96.455        0.038        0.019       19.602        4.322        0.049      334.252        4.101      862.983
12/05/2014  05:04:00      -14.120        8.299       -2.923       19.189       17.531        8.299      368.222      307.336       68.878        0.051        0.037       16.379        3.526        0.046      334.263        4.122      862.989
12/05/2014  05:05:00      -34.163      -13.863       -5.066        7.869        9.883        4.909       61.923       97.668       24.097        0.078        0.009       36.869        2.281        0.004      334.024        3.724      863.007
12/05/2014  05:06:00      -74.754      -20.174      -13.885       13.529        9.304        9.328      183.028       86.558       87.009        0.327        0.018       77.428        2.922        0.001      333.912        3.537      863.020
12/05/2014  05:07:00      -91.380      -26.746       -8.659       29.499       17.666       13.582      870.207      312.092      184.483        0.525        0.068       95.214       15.044        0.025      333.796        3.346      863.029
12/05/2014  05:08:00     -100.414       -4.161       -4.126       34.274       22.705       17.353     1174.688      515.517      301.112        0.605        0.100      100.500       12.294        0.015      333.671        3.138      863.037
12/05/2014  05:09:00      -39.339      -11.211        1.690       21.824       26.823       15.856      476.302      719.496      251.421        0.156        0.072       40.905       12.327        0.091      333.662        3.125      863.041
12/05/2014  05:10:00      -37.494      -22.082        1.331       29.768       24.275       17.261      886.147      589.281      297.944        0.183        0.089       43.513       18.953        0.190      333.739        3.252      863.055
12/05/2014  05:11:00      -59.722      -24.796       -1.112       21.795       15.709       13.303      475.025      246.776      176.974        0.254        0.045       64.665        8.910        0.019      333.694        3.177      863.075
12/05/2014  05:12:00      -65.169      -14.751       -3.459       20.832       10.401        8.867      433.966      108.181       78.627        0.255        0.031       66.817        4.493        0.005      333.817        3.382      863.085
12/05/2014  05:13:00      -44.077      -10.800       -5.192        9.528        8.864        8.031       90.791       78.563       64.496        0.116        0.012       45.381        2.653        0.003      333.891        3.505      863.083
12/05/2014  05:14:00      -44.664        2.195       -6.746        7.304        5.170        4.390       53.347       26.727       19.272        0.107        0.005       44.718        1.948        0.002      333.983        3.656      863.064
12/05/2014  05:15:00       10.806       24.961       -0.763        9.345       12.544        4.315       87.327      157.350       18.622        0.050        0.013       27.199        3.536        0.017      334.373        4.303      863.040
12/05/2014  05:16:00       17.574       37.808       -5.821        6.498       13.573        5.023       42.229      184.235       25.235        0.101        0.013       41.693        2.425        0.003      334.358        4.277      863.014
12/05/2014  05:17:00       33.245       25.236       -4.784        9.003        8.751        7.877       81.062       76.573       62.040        0.099        0.011       41.739        4.017        0.009      334.250        4.099      862.990
12/05/2014  05:18:00       26.889       24.082       -2.356       12.879        7.272        5.454      165.856       52.876       29.746        0.078        0.012       36.097        3.524        0.010      334.107        3.863      862.973
12/05/2014  05:19:00       19.044       16.793        0.712        4.495        4.726        3.086       20.203       22.333        9.526        0.035        0.003       25.391        2.853        0.013      334.230        4.064      862.963
12/05/2014  05:20:00       11.643        6.182        1.082       15.220        6.490        6.487      231.634       42.121       42.082        0.025        0.016       13.183        7.490        0.323      334.164        3.957      862.962
12/05/2014  05:21:00       -1.119       -0.650        3.296       12.380        9.768        6.953      153.276       95.420       48.344        0.015        0.015        1.294        6.232       23.197      334.181        3.985      862.967
12/05/2014  05:22:00        2.854       -1.946        3.994        5.109        9.615        5.788       26.098       92.449       33.496        0.009        0.008        3.454        5.985        3.003      334.212        4.036      862.978
12/05/2014  05:23:00       19.750        2.713        0.348       15.940       13.411        6.411      254.071      179.859       41.106        0.044        0.024       19.936        7.748        0.151      334.201        4.020      862.984
12/05/2014  05:24:00       16.463      -13.431        1.439       10.412       11.405        7.370      108.416      130.083       54.320        0.037        0.015       21.246        6.162        0.084      334.229        4.063      862.983
12/05/2014  05:25:00       -0.256       -0.486        9.051        4.086        6.580        4.563       16.692       43.292       20.817        0.008        0.004        0.549        2.757       25.203      334.129        3.899      862.975
12/05/2014  05:26:00        6.195        0.320       -2.136        6.147        5.853        4.976       37.780       34.252       24.756        0.007        0.005        6.203        2.882        0.216      334.175        3.975      862.960
12/05/2014  05:27:00        1.308       -3.949        1.164        5.562        3.498        4.407       30.939       12.236       19.421        0.004        0.003        4.159        2.059        0.245      334.089        3.832      862.947
12/05/2014  05:28:00        1.658       -3.628        2.158        5.788        3.871        4.284       33.504       14.983       18.353        0.004        0.003        3.989        2.319        0.338      334.136        3.909      862.945
12/05/2014  05:29:00       -0.930       -8.405        2.860        3.708        5.112        5.626       13.749       26.128       31.650        0.008        0.004        8.456        3.778        0.200      334.062        3.786      862.945
12/05/2014  05:30:00        0.144       -5.839        5.432        3.173        7.204        4.882       10.070       51.899       23.834        0.007        0.004        5.841        2.086        0.128      333.994        3.675      862.957
12/05/2014  05:31:00       -6.096      -18.151        3.350        5.796        6.288        6.571       33.588       39.537       43.177        0.025        0.006       19.147        3.921        0.042      334.076        3.809      862.970
12/05/2014  05:32:00      -42.257      -16.837       -3.423       21.584       12.530        6.014      465.867      156.998       36.172        0.137        0.033       45.488        7.792        0.029      334.030        3.736      862.970
12/05/2014  05:33:00      -40.515      -22.147        0.640       23.806       13.948        7.417      566.741      194.555       55.019        0.147        0.041       46.174        9.916        0.046      333.869        3.468      862.980
12/05/2014  05:34:00      -34.852      -24.283        2.043       17.544       13.264        7.276      307.797      175.946       52.944        0.117        0.027       42.477        8.108        0.036      333.828        3.399      862.994
12/05/2014  05:35:00      -23.533      -16.873       -2.179       11.896        9.251        7.080      141.516       85.583       50.132        0.056        0.014       28.957        2.983        0.011      333.822        3.389      863.018
12/05/2014  05:36:00      -26.436      -13.420       -0.610       11.578       12.988        5.848      134.056      168.679       34.197        0.061        0.017       29.647        5.276        0.032      333.786        3.329      863.042
12/05/2014  05:37:00      -30.493       -8.443       -2.363       15.637        8.468        9.795      244.529       71.711       95.939        0.071        0.021       31.640        9.692        0.094      333.770        3.305      863.068
12/05/2014  05:38:00      -37.170       -7.145       -8.968       13.309        7.246        7.679      177.125       52.498       58.965        0.090        0.014       37.850        5.814        0.024      333.784        3.327      863.087
12/05/2014  05:39:00      -23.043      -12.174        3.405       13.806       19.394       11.887      190.597      376.110      141.303        0.070        0.035       26.061        3.087        0.014      333.771        3.304      863.094
12/05/2014  05:40:00      -19.715      -15.657       12.859       28.010       25.302       18.759      784.576      640.173      351.907        0.129        0.089       25.176       14.117        0.314      333.889        3.500      863.091
12/05/2014  05:41:00      -14.269      -22.362        8.741       32.497       22.086       18.510     1056.082      487.796      342.616        0.133        0.094       26.526       17.334        0.427      333.954        3.608      863.098
12/05/2014  05:42:00      -45.366      -27.661        7.021       30.766       29.114       18.281      946.556      847.644      334.205        0.250        0.106       53.134       11.322        0.045      333.967        3.631      863.117
12/05/2014  05:43:00      -23.479      -19.459        2.705       30.556       18.821       13.823      933.664      354.228      191.065        0.121        0.074       30.495        5.978        0.038      333.909        3.535      863.131
12/05/2014  05:44:00      -34.939       -1.250        2.278       10.228        7.565        5.987      104.608       57.223       35.842        0.071        0.010       34.961        5.309        0.023      333.891        3.503      863.146
12/05/2014  05:45:00      -32.531      -13.887       -2.003       11.612       11.394        6.102      134.828      129.813       37.240        0.078        0.015       35.372        4.105        0.013      333.902        3.523      863.159
12/05/2014  05:46:00      -57.229      -26.185       -4.234       15.348        9.252        7.267      235.566       85.595       52.804        0.218        0.019       62.935        3.527        0.003      333.934        3.576      863.165
12/05/2014  05:47:00      -63.496      -36.895       -2.073       22.457       16.855       14.824      504.296      284.100      219.749        0.320        0.050       73.437       11.833        0.026      333.842        3.421      863.163
12/05/2014  05:48:00      -20.785      -18.280        5.122       28.742       20.184       14.709      826.113      407.381      216.364        0.112        0.072       27.680       16.245        0.344      333.896        3.512      863.165
12/05/2014  05:49:00      -32.850      -25.086        3.709       16.450       19.761       14.674      270.609      390.506      215.339        0.130        0.044       41.333       10.501        0.065      333.842        3.423      863.171
12/05/2014  05:50:00        5.472        2.227        6.816       12.720        8.855       10.210      161.798       78.403      104.244        0.021        0.017        5.908        8.508        2.074      333.901        3.521      863.175
12/05/2014  05:51:00      -14.778       -1.114       -6.713        8.599        5.529        4.185       73.946       30.566       17.514        0.019        0.006       14.820        3.854        0.068      333.854        3.440      863.180
12/05/2014  05:52:00      -12.797       -5.622       -0.049       11.281        7.668        9.976      127.259       58.797       99.513        0.024        0.014       13.978        9.534        0.465      333.921        3.554      863.185
12/05/2014  05:53:00      -16.960        7.368       -8.220        9.817        9.102        4.155       96.379       82.840       17.266        0.030        0.010       18.492        3.664        0.039      333.982        3.656      863.182
12/05/2014  05:54:00      -38.811      -14.354       -5.891        8.391       10.609        5.283       70.409      112.547       27.913        0.098        0.011       41.380        4.679        0.013      333.993        3.675      863.182
12/05/2014  05:55:00      -48.960        2.548       -3.007        7.665       11.227        7.420       58.747      126.056       55.058        0.133        0.012       49.026        4.627        0.009      333.916        3.546      863.186
12/05/2014  05:56:00      -34.491        4.878       -1.249       12.263        5.910        5.307      150.379       34.933       28.162        0.071        0.011       34.834        2.159        0.004      333.849        3.436      863.189
12/05/2014  05:57:00      -35.174        1.541       -7.090        8.498        6.472        5.132       72.208       41.892       26.342        0.072        0.007       35.207        2.943        0.007      333.818        3.384      863.198
12/05/2014  05:58:00      -27.799        2.079       -4.777       11.899        4.353        3.182      141.577       18.949       10.122        0.049        0.009       27.877        2.830        0.010      333.929        3.567      863.202
12/05/2014  05:59:00      -25.210        2.735       -4.521        5.978        4.567        6.320       35.738       20.855       39.943        0.038        0.005       25.358        2.044        0.006      334.135        3.907      863.200
12/05/2014  06:00:00      -25.247        5.688        0.626        8.010        6.715        3.776       64.161       45.090       14.259        0.040        0.006       25.880        1.742        0.005      334.083        3.821      863.195
12/05/2014  06:01:00       -2.870       30.993       -4.986        8.041        6.913        5.570       64.650       47.792       31.024        0.057        0.007       31.125        4.212        0.018      333.942        3.588      863.184
12/05/2014  06:02:00       -9.289       16.012       -0.646       19.061       26.624       10.496      363.332      708.829      110.161        0.076        0.059       18.511        8.424        0.207      333.840        3.419      863.183
12/05/2014  06:03:00      -35.998        5.635       -1.839       24.764       12.777        8.488      613.249      163.245       72.051        0.109        0.042       36.436        7.629        0.044      333.713        3.208      863.176
12/05/2014  06:04:00      -39.834        1.231       -4.560       13.523        5.569        7.306      182.878       31.017       53.375        0.094        0.013       39.853        7.442        0.035      333.665        3.127      863.180
12/05/2014  06:05:00      -29.955      -11.958       -3.475       10.295        5.932        4.841      105.997       35.186       23.431        0.061        0.008       32.253        4.606        0.020      333.785        3.329      863.189
12/05/2014  06:06:00       -5.017       -1.967        6.570       11.160        5.177        7.457      124.540       26.800       55.606        0.014        0.010        5.389        8.267        2.354      333.766        3.295      863.199
12/05/2014  06:07:00        7.264       10.816        1.239        8.051        8.862        7.466       64.821       78.540       55.735        0.019        0.010       13.029        5.589        0.184      333.786        3.328      863.211
12/05/2014  06:08:00       -4.148       16.335        7.209       22.679       19.813        9.568      514.347      392.549       91.556        0.067        0.050       16.853        6.143        0.133      333.793        3.340      863.216
12/05/2014  06:09:00        9.996       40.562       -7.953       14.064       14.571        8.768      197.801      212.302       76.883        0.115        0.024       41.776        6.934        0.028      333.735        3.245      863.232
12/05/2014  06:10:00       11.637       12.231       -1.526        9.017       14.078        8.562       81.312      198.182       73.310        0.032        0.018       16.882        5.802        0.118      333.695        3.177      863.249
12/05/2014  06:11:00       23.624       17.652       -1.773       11.290       14.852       10.801      127.469      220.586      116.669        0.067        0.023       29.490        8.099        0.075      333.731        3.237      863.262
12/05/2014  06:12:00       33.233       27.541        0.079        6.980        9.547        5.796       48.718       91.150       33.599        0.102        0.009       43.161        5.417        0.016      333.751        3.271      863.280
12/05/2014  06:13:00       24.164       15.226       -0.063       10.256        8.466        5.867      105.180       71.668       34.422        0.051        0.011       28.561        5.524        0.037      333.763        3.293      863.289
12/05/2014  06:14:00        5.650       10.869        0.267       10.015        9.080        7.930      100.297       82.447       62.881        0.020        0.012       12.250        7.171        0.343      333.752        3.273      863.299
12/05/2014  06:15:00       19.021       17.174       -1.038       10.907       11.215        6.518      118.963      125.771       42.485        0.047        0.014       25.628        5.398        0.044      333.757        3.281      863.311
12/05/2014  06:16:00       16.545       46.116       -5.534        6.329       11.158        4.204       40.058      124.501       17.674        0.131        0.009       48.994        4.699        0.009      333.785        3.329      863.314
12/05/2014  06:17:00       17.317       55.276       -4.805        5.745        6.799        3.310       33.000       46.220       10.959        0.173        0.005       57.925        3.092        0.003      333.822        3.389      863.315
12/05/2014  06:18:00       29.179       38.428       -4.517        8.788       13.912        8.322       77.224      193.531       69.261        0.134        0.017       48.251        8.227        0.029      333.827        3.397      863.320
12/05/2014  06:19:00       23.868       26.905        1.104       18.468       12.461       10.679      341.049      155.288      114.039        0.095        0.031       35.966        8.065        0.050      333.805        3.363      863.324
12/05/2014  06:20:00       38.335       24.835        5.133       15.105       11.901       12.219      228.166      141.640      149.312        0.132        0.026       45.676        9.213        0.041      333.788        3.332      863.331
12/05/2014  06:21:00       29.709       16.144        2.881       10.517        7.462        8.992      110.598       55.676       80.856        0.070        0.012       33.812        5.488        0.026      333.782        3.322      863.348
12/05/2014  06:22:00       17.900       13.530        2.683        9.264        9.138        7.655       85.819       83.505       58.606        0.037        0.011       22.438        4.234        0.036      333.787        3.331      863.356
12/05/2014  06:23:00       17.670       27.059       -1.755        8.636        7.536        4.197       74.589       56.790       17.615        0.060        0.007       32.317        2.658        0.007      333.853        3.441      863.369
12/05/2014  06:24:00       16.592       39.713       -4.491        8.820        7.794        7.087       77.792       60.739       50.219        0.103        0.009       43.040        5.886        0.019      333.863        3.456      863.377
12/05/2014  06:25:00       16.417       24.139       -2.479        9.363       12.040        6.391       87.673      144.965       40.841        0.057        0.014       29.193        4.900        0.028      333.861        3.455      863.391
12/05/2014  06:26:00       16.412       14.657       -3.280        8.977        8.085        6.279       80.592       65.363       39.424        0.034        0.009       22.004        5.026        0.052      333.868        3.466      863.418
12/05/2014  06:27:00       10.072        2.908       -3.409        7.923        5.096        4.830       62.775       25.972       23.333        0.012        0.006       10.484        3.385        0.104      333.908        3.531      863.445
12/05/2014  06:28:00      -14.694      -11.997        1.173       12.593        5.481        4.996      158.589       30.044       24.960        0.029        0.011       18.969        3.956        0.043      333.886        3.495      863.465
12/05/2014  06:29:00      -18.808      -15.042        1.937       13.753        6.551        6.997      189.135       42.910       48.959        0.043        0.014       24.083        3.798        0.025      333.733        3.242      863.486
12/05/2014  06:30:00      -39.799       -4.409       -6.577        4.922        4.778        3.903       24.228       22.832       15.237        0.085        0.003       40.042        2.172        0.003      333.704        3.193      863.506
12/05/2014  06:31:00      -36.947       -0.306       -4.692        4.282        4.343        4.064       18.337       18.865       16.516        0.072        0.003       36.948        3.080        0.007      333.835        3.410      863.524
12/05/2014  06:32:00      -39.757       -1.709      -13.208        8.612        5.289        7.084       74.166       27.975       50.181        0.096        0.008       39.794        5.360        0.018      333.845        3.426      863.532
12/05/2014  06:33:00      -25.057       -6.384       -5.165        7.156        8.328        4.651       51.211       69.347       21.636        0.042        0.007       25.857        3.701        0.020      333.825        3.394      863.528
12/05/2014  06:34:00       -9.871       -1.450       -1.405        3.642        3.545        3.646       13.266       12.567       13.293        0.007        0.002        9.977        2.378        0.057      333.806        3.363      863.524
12/05/2014  06:35:00       -9.611       -2.415       -4.865        4.103        4.073        3.127       16.836       16.586        9.778        0.008        0.002        9.910        1.163        0.014      333.823        3.392      863.529
12/05/2014  06:36:00       -4.104        2.994       -0.575        7.862        8.750        3.781       61.813       76.559       14.293        0.009        0.008        5.080        3.050        0.360      333.869        3.467      863.540
12/05/2014  06:37:00       -8.717        5.748       11.327        9.566        8.361        6.071       91.517       69.903       36.862        0.022        0.010       10.441        2.620        0.063      333.874        3.474      863.557
12/05/2014  06:38:00      -13.348       -2.097        6.185        6.890        8.145        5.801       47.469       66.343       33.646        0.018        0.007       13.512        1.916        0.020      333.831        3.405      863.587
12/05/2014  06:39:00       -2.599       -5.310        3.109        6.338        9.030        8.101       40.174       81.537       65.628        0.012        0.009        5.912        6.292        1.133      333.833        3.405      863.613
12/05/2014  06:40:00      -16.219      -12.654        2.352       15.979       10.525        8.604      255.344      110.771       74.031        0.043        0.022       20.571        7.039        0.117      333.798        3.349      863.648
12/05/2014  06:41:00      -22.485      -23.394       -5.362       28.475       10.460        8.173      810.819      109.416       66.797        0.103        0.049       32.448        4.942        0.023      333.701        3.187      863.675
12/05/2014  06:42:00      -16.972      -11.443        9.912       26.499       15.522       14.941      702.172      240.935      223.243        0.084        0.058       20.469        9.475        0.214      333.788        3.333      863.696
12/05/2014  06:43:00      -18.061       -5.121        2.567       24.470       14.850       13.045      598.784      220.511      170.167        0.067        0.049       18.773        8.957        0.228      333.823        3.391      863.709
12/05/2014  06:44:00      -39.939      -24.198        1.548       21.539       24.344       12.072      463.936      592.648      145.734        0.169        0.060       46.698       11.458        0.060      333.743        3.258      863.725
12/05/2014  06:45:00      -53.691      -29.172        4.553       28.747       26.365       17.572      826.408      695.103      308.779        0.279        0.092       61.104       16.288        0.071      333.782        3.322      863.740
12/05/2014  06:46:00      -37.671      -30.461        8.404       29.736       33.030       17.786      884.209     1090.980      316.338        0.235        0.115       48.446       14.690        0.092      333.788        3.332      863.749
12/05/2014  06:47:00      -81.464      -50.970        2.806       44.009       25.988       16.514     1936.773      675.361      272.708        0.606        0.144       96.096       15.022        0.024      333.792        3.339      863.749
12/05/2014  06:48:00     -101.125      -33.736        3.193       27.264       23.309       15.415      743.349      543.325      237.629        0.645        0.076      106.604       15.110        0.020      333.775        3.312      863.747
12/05/2014  06:49:00     -101.546      -34.710       -3.468       34.124       24.516       15.334     1164.427      601.050      235.141        0.676        0.100      107.314       14.514        0.018      333.726        3.229      863.741
12/05/2014  06:50:00      -71.450      -28.464        4.307       23.981       19.804       17.036      575.099      392.206      290.229        0.360        0.063       76.911       16.480        0.046      333.631        3.073      863.739
12/05/2014  06:51:00      -62.688       -8.023        3.997       31.643       20.126       18.176     1001.269      405.073      330.367        0.287        0.087       63.199       16.334        0.067      333.529        2.903      863.751
12/05/2014  06:52:00      -61.023       -5.189        5.380       31.402       20.489       18.532      986.065      419.798      343.443        0.276        0.087       61.243       17.883        0.085      333.489        2.837      863.761
12/05/2014  06:53:00      -52.082       -1.387        1.795       30.360       21.640       13.750      921.735      468.296      189.070        0.215        0.079       52.101       12.930        0.062      333.490        2.840      863.775
12/05/2014  06:54:00      -68.871       11.350       -4.059       22.343       14.471       11.676      499.228      209.407      136.329        0.287        0.042       69.800       10.649        0.023      333.526        2.897      863.777
12/05/2014  06:55:00      -51.565       16.700       -2.163       23.615       13.051       11.117      557.662      170.319      123.580        0.190        0.043       54.202        9.905        0.033      333.558        2.952      863.779
12/05/2014  06:56:00      -65.691       23.436       -7.774       13.911       15.015        7.278      193.512      225.441       52.974        0.270        0.024       69.746        3.828        0.003      333.653        3.109      863.782
12/05/2014  06:57:00      -60.845       12.999       -8.258       11.152        8.114        7.241      124.375       65.838       52.435        0.209        0.012       62.218        3.548        0.003      333.701        3.190      863.792
12/05/2014  06:58:00      -74.879       -3.700      -12.186        6.347        9.468        7.005       40.279       89.649       49.076        0.297        0.009       74.970        3.575        0.002      333.700        3.185      863.813
12/05/2014  06:59:00      -72.860      -13.121      -11.336        6.493        8.712        6.144       42.159       75.894       37.744        0.288        0.008       74.032        4.219        0.003      333.589        3.002      863.829
12/05/2014  07:00:00      -52.026      -13.927       -8.981       17.479       13.214        8.936      305.531      174.597       79.851        0.177        0.028       53.858        7.716        0.021      333.496        2.850      863.849
12/05/2014  07:01:00      -42.116      -11.146        0.516       17.732       17.011       15.213      314.435      289.375      231.427        0.137        0.042       43.566        9.896        0.052      333.504        2.862      863.866
12/05/2014  07:02:00      -39.079      -13.440       -3.877       11.402        9.787        7.162      130.000       95.791       51.293        0.100        0.014       41.325        3.402        0.007      333.546        2.929      863.884
12/05/2014  07:03:00      -52.749      -19.069       -5.150       16.268       14.106       11.051      264.649      198.982      122.135        0.188        0.029       56.090        6.605        0.014      333.519        2.885      863.890
12/05/2014  07:04:00      -11.589      -12.618       -2.211       15.457       10.724       10.064      238.909      114.998      101.289        0.038        0.023       17.132        7.520        0.193      333.574        2.979      863.895
12/05/2014  07:05:00      -35.270      -18.658       -2.502       13.614       14.432        9.460      185.348      208.274       89.484        0.104        0.024       39.901        5.053        0.016      333.555        2.946      863.903
12/05/2014  07:06:00      -42.289      -22.757       -2.371       12.409       17.289        5.958      153.983      298.895       35.500        0.140        0.024       48.023        4.022        0.007      333.564        2.959      863.910
12/05/2014  07:07:00      -62.103      -15.163       -2.344       19.428       12.821       10.735      377.444      164.385      115.234        0.237        0.033       63.927        9.898        0.024      333.501        2.855      863.922
12/05/2014  07:08:00      -60.870      -13.229       -7.400       16.119       10.717        9.444      259.809      114.845       89.190        0.220        0.023       62.291        6.021        0.009      333.478        2.819      863.932
12/05/2014  07:09:00      -65.521       -7.309       -7.999       13.891       11.392        8.270      192.946      129.778       68.394        0.240        0.020       65.927        6.869        0.011      333.475        2.813      863.945
12/05/2014  07:10:00      -70.195       -7.059       -7.917       16.356        9.687        8.035      267.519       93.831       64.563        0.273        0.021       70.549        7.939        0.013      333.457        2.783      863.941
12/05/2014  07:11:00      -78.115      -10.351      -10.210        9.079       11.605        9.905       82.437      134.673       98.106        0.331        0.016       78.798        4.130        0.003      333.450        2.772      863.928
12/05/2014  07:12:00      -41.167       -0.133       -4.247       19.714       13.982       10.203      388.642      195.496      104.104        0.120        0.034       41.167        7.592        0.034      333.428        2.735      863.915
12/05/2014  07:13:00      -21.973       -6.304       -1.010       13.134       10.305        8.041      172.495      106.200       64.663        0.043        0.017       22.859        6.041        0.070      333.427        2.734      863.898
12/05/2014  07:14:00      -38.024       -4.923      -14.119       13.734       14.493       10.784      188.619      210.060      116.298        0.109        0.026       38.342        8.529        0.049      333.505        2.863      863.883
12/05/2014  07:15:00      -48.249      -10.679       -8.068       11.875       11.112        9.448      141.024      123.477       89.259        0.143        0.018       49.417        3.892        0.006      333.498        2.851      863.874
12/05/2014  07:16:00      -16.531      -18.253       -1.516       21.275       11.068       10.480      452.629      122.506      109.832        0.065        0.034       24.627        4.803        0.038      333.571        2.972      863.871
12/05/2014  07:17:00      -25.504      -15.208      -13.657       17.495       13.081       11.013      306.076      171.124      121.284        0.083        0.030       29.694       12.734        0.184      333.799        3.351      863.870
12/05/2014  07:18:00      -27.845      -18.216       -3.249        7.063        9.417        8.469       49.892       88.686       71.731        0.066        0.011       33.275        7.662        0.053      333.739        3.253      863.868
12/05/2014  07:19:00      -42.018      -23.509       -8.114        9.366       11.983        9.208       87.719      143.580       84.794        0.135        0.016       48.148        3.971        0.007      333.731        3.238      863.872
12/05/2014  07:20:00      -42.394      -26.733       -8.112        7.899        8.630        9.073       62.394       74.482       82.315        0.140        0.011       50.119        5.455        0.012      333.835        3.411      863.879
12/05/2014  07:21:00      -14.440      -10.275        4.541       10.104        9.544        6.233      102.086       91.093       38.853        0.028        0.012       17.723        3.347        0.036      333.767        3.298      863.896
12/05/2014  07:22:00      -13.434      -21.272       -1.156       10.229        8.286        6.894      104.625       68.650       47.525        0.043        0.011       25.159        5.528        0.048      333.754        3.276      863.910
12/05/2014  07:23:00      -21.829      -20.489        1.069       10.966        6.405        6.751      120.262       41.022       45.581        0.055        0.010       29.938        4.838        0.026      333.751        3.273      863.924
12/05/2014  07:24:00      -32.635      -19.912      -11.048       10.892        7.756        6.888      118.631       60.160       47.451        0.090        0.011       38.230        4.371        0.013      333.729        3.233      863.925
12/05/2014  07:25:00      -34.270       -7.845       -6.367        8.810        7.669        5.288       77.623       58.816       27.968        0.072        0.008       35.157        2.301        0.004      333.707        3.197      863.921
12/05/2014  07:26:00       -2.432       -5.825       -2.792       13.715        7.973        7.647      188.088       63.577       58.474        0.018        0.016        6.313        8.552        1.835      333.860        3.451      863.914
12/05/2014  07:27:00       17.838       15.363        5.293        8.309        6.502        4.922       69.044       42.274       24.225        0.036        0.007       23.541        2.381        0.010      334.003        3.692      863.900
12/05/2014  07:28:00       25.233       20.637        5.380       12.717        6.317        6.373      161.732       39.898       40.621        0.067        0.012       32.598        6.643        0.042      333.987        3.662      863.884
12/05/2014  07:29:00       25.861       16.203        2.836       11.860        7.559        7.373      140.651       57.136       54.364        0.060        0.013       30.518        4.738        0.024      333.928        3.565      863.871
12/05/2014  07:30:00       24.235       14.668        0.473        8.455        9.884        6.318       71.484       97.693       39.915        0.051        0.010       28.328        5.636        0.040      333.900        3.520      863.856
12/05/2014  07:31:00       35.058       13.672       -2.466        7.372        7.534        7.789       54.351       56.766       60.674        0.080        0.009       37.629        2.717        0.005      333.900        3.519      863.853
12/05/2014  07:32:00       26.638        9.059       -1.864        7.797       10.775        5.690       60.786      116.111       32.373        0.050        0.010       28.137        1.913        0.005      333.860        3.453      863.837
12/05/2014  07:33:00       28.848       13.997       -2.184        4.182        6.869        6.072       17.487       47.187       36.872        0.057        0.005       32.065        2.939        0.008      333.873        3.475      863.829
12/05/2014  07:34:00       26.292       23.080        1.750        3.646        3.400        2.575       13.292       11.557        6.632        0.063        0.002       34.985        1.405        0.002      333.896        3.511      863.828
12/05/2014  07:35:00       34.003       16.771       -1.225        5.691        7.493        5.453       32.391       56.152       29.735        0.078        0.006       37.914        2.972        0.006      333.832        3.406      863.819
12/05/2014  07:36:00       23.496       15.342       -1.817       11.028       11.363        6.501      121.614      129.115       42.257        0.054        0.015       28.061        5.998        0.046      333.773        3.307      863.815
12/05/2014  07:37:00       27.038       37.867       -3.492        6.674        8.220        7.449       44.549       67.571       55.481        0.117        0.008       46.530        5.801        0.016      333.826        3.397      863.804
12/05/2014  07:38:00       25.065       32.712       -1.554        6.830       11.493        7.549       46.649      132.091       56.993        0.097        0.012       41.211        6.337        0.024      333.859        3.452      863.801
12/05/2014  07:39:00       34.892       25.840       -1.770       10.629       13.861        8.978      112.968      192.114       80.606        0.114        0.019       43.418        9.281        0.046      333.922        3.556      863.820
12/05/2014  07:40:00       44.790       20.510        3.852        8.290        8.438        6.800       68.721       71.195       46.236        0.131        0.009       49.263        4.584        0.009      333.926        3.561      863.838
12/05/2014  07:41:00       46.376       16.244        4.903       10.503       10.630        8.232      110.318      112.989       67.763        0.136        0.015       49.139        5.245        0.011      333.842        3.421      863.855
12/05/2014  07:42:00       48.197       26.121        3.477       10.958        8.184        6.623      120.084       66.982       43.859        0.162        0.012       54.820        3.316        0.004      333.844        3.426      863.859
12/05/2014  07:43:00       60.516       30.468        9.408        9.702       11.524        7.810       94.124      132.810       61.004        0.248        0.014       67.753        4.445        0.004      333.887        3.498      863.868
12/05/2014  07:44:00       50.660       32.972        7.903       12.021        9.741        7.310      144.505       94.884       53.432        0.200        0.015       60.445        3.431        0.003      333.909        3.534      863.875
12/05/2014  07:45:00       50.261       29.793       -0.503       12.538        8.738        6.171      157.193       76.359       38.080        0.184        0.014       58.428        3.989        0.005      333.922        3.557      863.880
12/05/2014  07:46:00       51.888       32.258        1.040        9.303        8.407        7.669       86.555       70.671       58.814        0.197        0.011       61.098        5.552        0.008      333.943        3.591      863.885
12/05/2014  07:47:00       53.390       25.461        0.323       11.387       10.400        7.117      129.654      108.161       50.653        0.189        0.014       59.150        5.807        0.010      333.917        3.546      863.888
12/05/2014  07:48:00       44.568       31.546        2.365       12.835       10.150       12.950      164.742      103.022      167.691        0.171        0.022       54.603        3.659        0.004      333.870        3.469      863.888
12/05/2014  07:49:00       27.695       20.893       -0.858       15.393       10.570       11.616      236.941      111.729      134.937        0.084        0.024       34.692        8.612        0.062      333.867        3.464      863.894
12/05/2014  07:50:00       29.827       19.377        1.496       12.415       12.177        7.596      154.138      148.285       57.707        0.081        0.018       35.568        6.139        0.030      333.880        3.485      863.898
12/05/2014  07:51:00       42.722       35.267        9.441        9.969       10.987        9.274       99.381      120.717       86.003        0.173        0.015       55.398        5.857        0.011      333.908        3.532      863.910
12/05/2014  07:52:00       31.753       21.696        8.588       11.533        8.764        9.479      133.020       76.812       89.846        0.093        0.015       38.458        6.195        0.026      333.919        3.550      863.912
12/05/2014  07:53:00       31.509       30.385       28.683       14.987       11.165        8.479      224.612      124.654       71.902        0.158        0.021       43.773        4.939        0.013      333.894        3.511      863.917
12/05/2014  07:54:00       10.016       -3.498       30.040       18.160       26.711       14.721      329.770      713.493      216.713        0.114        0.063       10.609        5.908        0.310      334.031        3.737      863.932
12/05/2014  07:55:00        8.796       -2.127       17.610       18.734       21.351       16.925      350.950      455.849      286.441        0.074        0.055        9.050        8.248        0.831      334.071        3.802      863.939
12/05/2014  07:56:00        8.812       24.760       50.784       20.101       21.941       16.047      404.050      481.423      257.515        0.221        0.057       26.281       13.433        0.261      334.063        3.788      863.944
12/05/2014  07:57:00       25.660       75.100       76.793       45.782       31.298       19.610     2096.002      979.553      384.561        0.783        0.173       79.363       18.475        0.054      334.055        3.775      863.951
12/05/2014  07:58:00       45.196       68.452       63.047       30.032       28.576       16.654      901.896      816.586      277.363        0.635        0.100       82.026       10.917        0.018      333.948        3.598      863.947
12/05/2014  07:59:00       18.834        6.779       29.307       27.609       37.449       21.995      762.259     1402.451      483.800        0.195        0.132       20.017       20.016        1.000      334.028        3.731      863.950
12/05/2014  08:00:00       -0.928        1.252       33.224       16.217       36.489       22.934      262.979     1331.411      525.962        0.161        0.106        1.558       25.291      263.444      334.096        3.843      863.973
12/05/2014  08:01:00       21.809      -58.767       -2.773       27.712       26.336       19.753      767.940      693.566      390.181        0.289        0.093       62.684       19.213        0.094      334.141        3.919      863.983
12/05/2014  08:02:00       27.743      -56.214      -12.726       29.110       26.227       19.679      847.399      687.852      387.272        0.301        0.096       62.687       17.228        0.076      334.144        3.923      863.990
12/05/2014  08:03:00        2.416      -38.362       12.018       26.308       24.489       22.183      692.134      599.699      492.106        0.170        0.089       38.438       19.678        0.262      334.202        4.018      864.008
12/05/2014  08:04:00       15.791        9.435       29.449       24.555       18.485       18.456      602.928      341.694      340.636        0.125        0.064       18.395       13.152        0.511      334.215        4.042      864.011
12/05/2014  08:05:00       -2.842       36.522       56.217       11.537       26.574       18.267      133.099      706.171      333.675        0.284        0.059       36.633       18.889        0.266      334.228        4.062      864.012
12/05/2014  08:06:00       62.959       69.128       50.705       29.413       17.926       23.105      865.115      321.345      533.844        0.652        0.086       93.501       18.586        0.040      334.016        3.712      864.016
12/05/2014  08:07:00       77.314       51.777       28.540       25.518       11.773       12.495      651.182      138.605      156.131        0.521        0.047       93.050        9.580        0.011      333.975        3.643      864.014
12/05/2014  08:08:00       30.962       36.882        5.733       22.522       15.130       18.737      507.245      228.913      351.073        0.172        0.054       48.155       13.818        0.082      334.009        3.700      864.021
12/05/2014  08:09:00       39.964       34.227        1.348       15.634        9.957       10.328      244.437       99.149      106.659        0.161        0.023       52.618        7.701        0.021      334.034        3.740      864.024
12/05/2014  08:10:00       31.278       32.355      -10.977       15.672       16.961       10.548      245.617      287.689      111.265        0.139        0.032       45.002        5.995        0.018      334.060        3.783      864.031
12/05/2014  08:11:00       14.084       29.156       -0.320       11.271       16.530       10.367      127.026      273.232      107.468        0.078        0.025       32.380        8.471        0.068      334.112        3.870      864.042
12/05/2014  08:12:00        7.977       34.597        0.500       15.581       12.756       11.400      242.780      162.717      129.969        0.090        0.027       35.504        6.864        0.037      334.118        3.880      864.050
12/05/2014  08:13:00       26.895       42.453       -4.013       13.438       15.565       10.879      180.570      242.272      118.357        0.154        0.027       50.255        9.507        0.036      334.073        3.806      864.045
12/05/2014  08:14:00       19.846       29.448       -2.003       19.049       12.405       11.584      362.853      153.896      134.187        0.096        0.033       35.511        7.236        0.042      334.077        3.812      864.043
12/05/2014  08:15:00       10.660       22.002       -0.277        9.338       14.300       13.775       87.190      204.493      189.737        0.054        0.024       24.448       11.286        0.213      334.123        3.888      864.046
12/05/2014  08:16:00       24.288       42.091        0.886       13.304       18.163       11.270      176.993      329.901      127.012        0.150        0.032       48.596       11.461        0.056      334.124        3.888      864.041
12/05/2014  08:17:00       40.544       39.627       -0.057       14.562       18.277       15.245      212.047      334.053      232.407        0.200        0.039       56.693        9.471        0.028      334.094        3.839      864.049
12/05/2014  08:18:00       68.133       44.553       -3.258       18.764       14.126        8.928      352.082      199.547       79.707        0.363        0.032       81.407        7.625        0.009      334.075        3.809      864.059
12/05/2014  08:19:00       46.420       31.693        1.633       23.152       22.677       22.518      536.006      514.231      507.057        0.236        0.078       56.207       11.288        0.040      334.096        3.843      864.070
12/05/2014  08:20:00       42.017       26.541        0.025       14.986       13.548       16.232      224.580      183.547      263.493        0.157        0.034       49.698       10.676        0.046      334.099        3.846      864.062
12/05/2014  08:21:00       31.446       22.067       -6.004       10.975        7.207        8.652      120.447       51.942       74.854        0.088        0.012       38.416        2.231        0.003      334.108        3.862      864.062
12/05/2014  08:22:00       35.566       20.085        3.267       13.127        7.998       14.544      172.331       63.973      211.514        0.106        0.022       40.846        7.031        0.030      334.131        3.901      864.058
12/05/2014  08:23:00       30.992       20.690       -2.180       21.788       15.086        9.494      474.734      227.597       90.130        0.109        0.040       37.264        9.622        0.067      334.186        3.992      864.066
12/05/2014  08:24:00       45.852       22.465       -0.038       13.967       11.551       13.167      195.079      133.422      173.367        0.155        0.025       51.060        4.358        0.007      334.156        3.942      864.084
12/05/2014  08:25:00       59.224       38.087       -4.193        9.023        8.398        7.956       81.409       70.531       63.301        0.260        0.011       70.414        2.442        0.001      334.106        3.859      864.098
12/05/2014  08:26:00       48.188       30.229        1.842       18.244       12.982       17.301      332.852      168.541      299.308        0.202        0.040       56.885        9.658        0.029      334.130        3.898      864.113
12/05/2014  08:27:00       54.337       35.663       -3.006       15.020        9.501       10.465      225.596       90.276      109.522        0.233        0.021       64.995        5.885        0.008      334.102        3.851      864.129
12/05/2014  08:28:00       22.640       29.286        3.369       13.806        9.515       12.034      190.593       90.544      144.815        0.090        0.021       37.017        7.737        0.044      334.163        3.953      864.137
12/05/2014  08:29:00        7.699       26.859        8.994       15.887       15.945       14.414      252.381      254.249      207.777        0.079        0.036       27.941       11.612        0.173      334.300        4.181      864.146
12/05/2014  08:30:00        3.491       13.880       22.815       11.895       11.560       12.405      141.484      133.641      153.896        0.058        0.021       14.312       10.818        0.571      334.383        4.319      864.141
12/05/2014  08:31:00        6.660        9.753       10.196        5.643        5.062        5.911       31.838       25.623       34.941        0.017        0.005       11.810        3.083        0.068      334.314        4.205      864.133
12/05/2014  08:32:00       -1.656       -0.348        7.052        8.916        4.143        4.473       79.497       17.161       20.009        0.008        0.006        1.693        1.946        1.321      334.495        4.507      864.120
12/05/2014  08:33:00       -0.677       16.101        1.342        5.123        8.574        5.761       26.244       73.514       33.194        0.020        0.007       16.115        5.418        0.113      334.412        4.369      864.119
12/05/2014  08:34:00       -0.694        9.270       -0.204        5.808        9.086        7.565       33.729       82.550       57.232        0.013        0.009        9.296        2.866        0.095      334.395        4.341      864.132
12/05/2014  08:35:00       -5.044        1.326        8.977        6.155        3.529        8.235       37.889       12.455       67.812        0.011        0.006        5.215        4.115        0.623      334.629        4.728      864.141
12/05/2014  08:36:00      -15.070        1.731       -2.707        6.752        3.728        6.765       45.589       13.896       45.770        0.017        0.005       15.169        4.115        0.074      334.493        4.503      864.136
12/05/2014  08:37:00        7.360        6.055       13.462        6.796        6.567        5.305       46.187       43.119       28.148        0.019        0.006        9.531        2.828        0.088      334.693        4.835      864.145
12/05/2014  08:38:00        6.242        7.896        7.451       11.288       13.617        8.286      127.426      185.411       68.654        0.027        0.019       10.065        8.037        0.638      334.627        4.724      864.147
12/05/2014  08:39:00       -2.939       24.554       37.520        8.966       14.838        9.374       80.396      220.162       87.875        0.120        0.019       24.730        8.244        0.111      334.703        4.850      864.167
12/05/2014  08:40:00       -0.393        9.799       26.105        7.853       22.659       10.788       61.668      513.430      116.375        0.073        0.035        9.807       13.525        1.902      334.739        4.910      864.180
12/05/2014  08:41:00        9.098       -0.486       19.858       13.469       10.206       12.002      181.411      104.171      144.046        0.045        0.021        9.111        9.759        1.147      334.788        4.991      864.197
12/05/2014  08:42:00       17.383       22.994       12.541       16.992       10.798       15.029      288.718      116.598      225.864        0.081        0.032       28.826       15.348        0.283      334.637        4.741      864.204
12/05/2014  08:43:00       30.644       25.892       12.565       20.726       15.040       20.839      429.556      226.216      434.256        0.143        0.055       40.118       14.428        0.129      334.563        4.619      864.214
12/05/2014  08:44:00       38.798       32.333       17.212       15.812       10.465       15.444      250.031      109.519      238.522        0.172        0.030       50.505        7.226        0.020      334.459        4.445      864.209
12/05/2014  08:45:00       23.002       35.428       11.604       10.422        8.081        9.291      108.615       65.295       86.329        0.109        0.013       42.240        4.652        0.012      334.491        4.499      864.227
12/05/2014  08:46:00       16.817       38.794       40.775       15.964       20.980       10.184      254.864      440.178      103.704        0.212        0.040       42.283        6.647        0.025      334.649        4.760      864.228
12/05/2014  08:47:00       28.535       38.255        8.912       27.314       20.587       19.114      746.067      423.806      365.327        0.195        0.077       47.725       11.797        0.061      334.606        4.691      864.230
12/05/2014  08:48:00       53.645       49.732       39.300       19.276       20.795       17.923      371.551      432.436      321.246        0.401        0.056       73.151       10.349        0.020      334.607        4.690      864.230
12/05/2014  08:49:00       49.498       33.470       19.093       22.614       18.917       21.799      511.393      357.865      475.205        0.264        0.067       59.752       10.790        0.033      334.610        4.696      864.220
12/05/2014  08:50:00       38.454       38.378       10.350       20.039       24.142       14.962      401.561      582.818      223.849        0.213        0.060       54.328        9.582        0.031      334.667        4.791      864.205
12/05/2014  08:51:00       29.755       29.660        3.117       20.141       17.237       13.849      405.663      297.117      191.796        0.133        0.045       42.013        9.301        0.049      334.734        4.902      864.195
12/05/2014  08:52:00       51.437       34.116       -0.828       13.073       13.732       13.600      170.900      188.561      184.962        0.218        0.027       61.722        5.660        0.008      334.535        4.571      864.186
12/05/2014  08:53:00       53.149       32.464       -0.135        9.602       15.045       14.242       92.202      226.338      202.835        0.220        0.026       62.280        5.703        0.008      334.582        4.650      864.170
12/05/2014  08:54:00       55.395       40.852       -8.497       19.612       13.673       14.314      384.633      186.944      204.881        0.279        0.039       68.829       10.593        0.024      334.600        4.679      864.172
12/05/2014  08:55:00       21.679       24.267       10.465       22.937       25.347       17.546      526.089      642.491      307.870        0.132        0.074       32.540       15.940        0.240      334.691        4.830      864.166
12/05/2014  08:56:00        4.990       10.435        9.258       17.859       22.364       15.992      318.955      500.151      255.744        0.065        0.054       11.567       12.277        1.127      334.880        5.144      864.177
12/05/2014  08:57:00       15.364       22.989      -16.050       13.865       19.007       10.597      192.230      361.280      112.297        0.084        0.033       27.651        6.235        0.051      334.758        4.941      864.181
12/05/2014  08:58:00      -20.063       -1.927      -15.160       12.194        5.594       12.494      148.694       31.298      156.090        0.049        0.017       20.156        9.588        0.226      334.876        5.137      864.195
12/05/2014  08:59:00       -4.349        9.004       -0.771        7.780       10.702       12.923       60.533      114.535      167.002        0.022        0.017       10.000        8.995        0.809      335.030        5.394      864.205
12/05/2014  09:00:00       26.596       22.102       26.095       14.950       12.086        9.811      223.499      146.062       96.255        0.117        0.023       34.581        5.513        0.025      335.001        5.345      864.202
12/05/2014  09:01:00       19.804       23.741       28.600       11.715       11.394        8.210      137.234      129.820       67.412        0.105        0.017       30.916        5.551        0.032      335.015        5.367      864.203
12/05/2014  09:02:00       -4.315        6.133       24.978        8.822       10.037        7.470       77.824      100.734       55.798        0.046        0.012        7.498        6.058        0.653      335.366        5.951      864.191
12/05/2014  09:03:00       -3.270        5.605       20.723        4.236        7.893        6.317       17.942       62.292       39.909        0.030        0.006        6.489        2.686        0.171      335.460        6.109      864.172
12/05/2014  09:04:00        1.134        5.917       19.468        8.700       10.221        7.479       75.685      104.463       55.937        0.033        0.012        6.025        5.311        0.777      335.460        6.110      864.152
12/05/2014  09:05:00       32.953       18.325       17.543       17.986       11.159       14.414      323.503      124.531      207.774        0.119        0.033       37.706       11.467        0.092      335.144        5.583      864.136
12/05/2014  09:06:00       48.178       44.330        4.478       25.647       15.451       19.334      657.780      238.726      373.800        0.279        0.064       65.470       14.662        0.050      334.999        5.343      864.129
12/05/2014  09:07:00       39.954       57.338        1.061       19.705       21.060       17.146      388.289      443.504      293.972        0.301        0.056       69.885       12.851        0.034      335.026        5.387      864.117
12/05/2014  09:08:00       40.939       50.459       -0.025       33.257       23.794       20.966     1106.046      566.172      439.561        0.317        0.106       64.977       11.651        0.032      335.008        5.357      864.105
12/05/2014  09:09:00       72.553       43.758        5.348       40.981       22.191       18.332     1679.408      492.427      336.072        0.486        0.125       84.727       13.488        0.025      335.008        5.358      864.091
12/05/2014  09:10:00      114.947       62.685        7.313       29.272       26.417       19.164      856.862      697.841      367.250        0.956        0.096      130.929       14.577        0.012      334.987        5.322      864.086
12/05/2014  09:11:00      101.526       71.056        1.592       28.617       29.963       22.683      818.950      897.786      514.525        0.879        0.112      123.921       12.367        0.010      334.889        5.159      864.073
12/05/2014  09:12:00       99.026       65.613       12.648       55.851       32.046       27.180     3119.381     1026.952      738.738        0.958        0.244      118.790       17.260        0.021      334.932        5.231      864.057
12/05/2014  09:13:00      150.549       83.043        6.763       28.955       34.071       29.682      838.377     1160.850      880.996        1.624        0.144      171.934       14.332        0.007      334.914        5.200      864.046
12/05/2014  09:14:00      129.316       93.188       14.882       39.187       29.640       28.178     1535.641      878.526      794.013        1.442        0.160      159.395       12.908        0.007      334.837        5.072      864.042
12/05/2014  09:15:00      141.228       74.847       11.295       27.312       29.169       25.508      745.956      850.830      650.661        1.396        0.112      159.835       16.127        0.010      334.867        5.122      864.066
12/05/2014  09:16:00       92.961       54.762       25.742       35.898       26.871       26.585     1288.700      722.042      706.738        0.751        0.136      107.892       20.312        0.035      334.986        5.321      864.078
12/05/2014  09:17:00      112.521       56.046        2.299       31.794       22.890       26.372     1010.841      523.932      695.491        0.902        0.112      125.706       13.240        0.011      334.994        5.335      864.087
12/05/2014  09:18:00       70.075       50.641       15.317       24.820       21.354       28.375      616.017      456.008      805.121        0.479        0.094       86.459       11.154        0.017      335.066        5.453      864.091
12/05/2014  09:19:00       19.141       34.838       49.029       33.929       26.787       24.577     1151.180      717.538      604.026        0.323        0.124       39.750       13.082        0.108      335.277        5.803      864.104
12/05/2014  09:20:00       57.203       76.215       57.392       34.262       41.277       30.710     1173.905     1703.767      943.130        0.810        0.191       95.294       21.933        0.053      335.080        5.477      864.117
12/05/2014  09:21:00       30.818       80.014       71.051       28.308       38.666       33.672      801.343     1495.078     1133.828        0.791        0.172       85.744       23.683        0.076      335.048        5.425      864.119
12/05/2014  09:22:00       66.843       72.136       57.572       38.476       35.147       32.652     1480.422     1235.301     1066.140        0.838        0.189       98.344       22.486        0.052      335.027        5.391      864.136
12/05/2014  09:23:00       91.149       64.099        9.750       18.123       15.714       20.149      328.448      246.932      405.992        0.675        0.049      111.430        5.407        0.002      334.972        5.298      864.140
12/05/2014  09:24:00       41.923       49.420       43.802       30.837       35.187       29.083      950.914     1238.107      845.848        0.458        0.152       64.807        6.380        0.010      335.154        5.600      864.136
12/05/2014  09:25:00       79.033       60.128       32.013       33.467       24.219       31.136     1120.066      586.536      969.428        0.678        0.134       99.305       18.617        0.035      335.034        5.401      864.136
12/05/2014  09:26:00       93.386       56.199       28.178       24.644       28.889       31.536      607.314      834.590      994.500        0.755        0.122      108.992       17.866        0.027      335.012        5.364      864.126
12/05/2014  09:27:00       12.142       34.751       54.836       26.850       36.458       28.243      720.944     1329.199      797.651        0.360        0.142       36.812       21.627        0.345      335.151        5.594      864.119
12/05/2014  09:28:00       53.878       68.734       48.184       51.877       36.498       47.069     2691.190     1332.083     2215.457        0.809        0.312       87.334       42.550        0.237      335.065        5.453      864.112
12/05/2014  09:29:00       77.028       29.071       12.753       34.257       26.769       24.975     1173.551      716.583      623.742        0.473        0.126       82.331       19.084        0.054      335.021        5.379      864.124
12/05/2014  09:30:00       46.036       41.923       13.361       22.929       27.259       23.446      525.728      743.072      549.712        0.294        0.091       62.265        9.332        0.022      335.144        5.584      864.135
12/05/2014  09:31:00       50.918       45.531        5.255       19.807       16.936       23.056      392.334      286.828      531.591        0.295        0.061       68.306       13.153        0.037      335.074        5.467      864.132
12/05/2014  09:32:00       51.425       52.106       -0.102       30.704       18.322       17.379      942.734      335.690      302.043        0.347        0.079       73.209       12.800        0.031      335.118        5.539      864.132
12/05/2014  09:33:00       55.252       53.346        0.836       39.536       25.833       22.273     1563.097      667.338      496.105        0.431        0.136       76.802       19.142        0.062      335.223        5.714      864.122
12/05/2014  09:34:00       79.340       65.225       17.965       24.834       23.639       22.880      616.729      558.809      523.476        0.629        0.085      102.709       15.033        0.021      335.189        5.658      864.112
12/05/2014  09:35:00       76.582       69.315        8.561       22.254       15.673       19.777      495.254      245.644      391.130        0.594        0.057      103.292        7.009        0.005      335.169        5.623      864.092
12/05/2014  09:36:00       83.008       54.288       -2.724       20.663       22.611       17.881      426.961      511.250      319.730        0.555        0.063       99.184        9.199        0.009      335.172        5.629      864.087
12/05/2014  09:37:00       81.864       66.399        0.893       18.566       17.667       21.377      344.692      312.115      456.986        0.611        0.056      105.406        8.156        0.006      335.162        5.613      864.084
12/05/2014  09:38:00       74.033       51.683       -1.468       19.627       13.354       16.809      385.200      178.319      282.551        0.450        0.042       90.288        5.963        0.004      335.177        5.637      864.098
12/05/2014  09:39:00       52.773       52.632        4.006       34.269       23.759       27.225     1174.346      564.511      741.208        0.403        0.124       74.532       16.114        0.047      335.268        5.788      864.117
12/05/2014  09:40:00       64.263       56.575       12.302       32.333       20.916       24.821     1045.413      437.468      616.065        0.479        0.105       85.618       12.244        0.020      335.240        5.741      864.136
12/05/2014  09:41:00       41.559       42.968        6.584       17.627       22.491       16.695      310.725      505.861      278.728        0.236        0.055       59.778       11.187        0.035      335.274        5.798      864.157
12/05/2014  09:42:00       68.504       45.223       10.894       23.869       15.313       19.804      569.744      234.487      392.215        0.403        0.060       82.085        9.971        0.015      335.290        5.824      864.159
12/05/2014  09:43:00       59.747       36.977       -1.617       31.559       15.345       21.159      996.000      235.474      447.720        0.331        0.084       70.263       18.955        0.073      335.318        5.872      864.162
12/05/2014  09:44:00       -4.034       13.932        8.329       23.582       22.131       16.307      556.114      489.795      265.908        0.080        0.066       14.504        9.861        0.462      335.582        6.314      864.173
12/05/2014  09:45:00       23.631      -44.458       10.559       20.216       44.996       23.148      408.676     2024.664      535.815        0.281        0.148       50.348        9.237        0.034      335.588        6.321      864.159
12/05/2014  09:46:00       22.409      -12.630       16.165       25.028       36.027       31.122      626.417     1297.959      968.554        0.191        0.145       25.723       25.446        0.979      335.655        6.434      864.158
12/05/2014  09:47:00       34.157      -35.317       22.365       36.669       32.249       28.773     1344.615     1039.972      827.872        0.306        0.161       49.132       26.303        0.287      335.645        6.417      864.153
12/05/2014  09:48:00       65.513      -31.836       -9.410       26.226       22.515       24.368      687.791      506.933      593.788        0.359        0.089       72.839       12.286        0.028      335.444        6.081      864.151
12/05/2014  09:49:00       21.205       30.091       37.905       29.292       38.746       29.417      857.993     1501.277      865.384        0.301        0.161       36.812       29.607        0.647      335.673        6.462      864.154
12/05/2014  09:50:00       32.775       28.802       42.430       22.238       26.710       12.104      494.528      713.399      146.518        0.253        0.068       43.632       14.608        0.112      335.551        6.260      864.148
12/05/2014  09:51:00       22.847       10.414       29.207       17.598       32.788       22.963      309.686     1075.059      527.314        0.170        0.096       25.108       22.876        0.830      335.760        6.608      864.149
12/05/2014  09:52:00       46.877       51.583        2.313       30.663       25.785       19.224      940.210      664.889      369.545        0.342        0.099       69.701       11.000        0.025      335.628        6.389      864.124
12/05/2014  09:53:00       19.077       43.829       -1.811       29.896       22.565       20.454      893.801      509.199      418.350        0.205        0.091       47.801       14.674        0.094      335.742        6.579      864.110
12/05/2014  09:54:00       56.703       50.850       34.674       27.134       19.689       21.639      736.271      387.642      468.260        0.430        0.080       76.164       10.968        0.021      335.693        6.498      864.104
12/05/2014  09:55:00       51.950       49.876       12.509       24.768       23.486       25.297      613.432      551.612      639.955        0.357        0.090       72.016        4.069        0.003      335.605        6.350      864.081
12/05/2014  09:56:00       65.744       50.245        6.419       15.033       16.551       17.492      225.980      273.947      305.984        0.385        0.040       82.746        9.614        0.013      335.502        6.178      864.072
12/05/2014  09:57:00       62.985       43.000        7.099       38.337       28.272       24.657     1469.741      799.308      607.945        0.437        0.144       76.263       20.333        0.071      335.627        6.386      864.045
12/05/2014  09:58:00       24.742       83.654        0.042       27.853       41.407       31.275      775.790     1714.580      978.118        0.554        0.173       87.236       28.585        0.107      335.666        6.452      864.025
12/05/2014  09:59:00       46.498       87.759       -8.404       37.804       33.151       24.601     1429.106     1099.001      605.227        0.653        0.157       99.316       18.936        0.036      335.677        6.469      864.013
12/05/2014  10:00:00       77.734       57.767       13.136       49.850       27.858       26.467     2485.066      776.068      700.482        0.676        0.198       96.848       15.867        0.027      335.643        6.414      864.002
12/05/2014  10:01:00       41.821       75.512       -9.083       41.074       29.377       29.362     1687.091      863.003      862.151        0.547        0.171       86.319       24.123        0.078      335.671        6.460      863.992
12/05/2014  10:02:00       48.808       25.660       14.329       39.428       20.970       19.142     1554.544      439.729      366.432        0.280        0.118       55.142       17.230        0.098      335.738        6.572      863.975
12/05/2014  10:03:00       90.368       55.225       11.874       21.484       21.653       24.637      461.580      468.838      606.996        0.645        0.077      105.907       12.495        0.014      335.575        6.302      863.957
12/05/2014  10:04:00       62.911       48.064      -11.160       34.940       24.225       20.193     1220.774      586.840      407.749        0.430        0.111       79.171       16.418        0.043      335.600        6.342      863.937
12/05/2014  10:05:00       79.628       58.941        4.714       33.889       25.130       23.014     1148.481      631.503      529.654        0.607        0.115       99.069       12.681        0.016      335.611        6.361      863.923
12/05/2014  10:06:00       96.357       64.731       -5.197       34.410       19.536       22.018     1184.024      381.638      484.789        0.778        0.103      116.081       14.509        0.016      335.563        6.282      863.913
12/05/2014  10:07:00       42.091       26.088       -2.292       22.892       19.240       14.654      524.049      370.192      214.732        0.178        0.055       49.520       10.799        0.048      335.686        6.484      863.923
12/05/2014  10:08:00       43.968       35.203        1.441       15.385       12.592       17.050      236.700      158.568      290.692        0.193        0.034       56.324        7.152        0.016      335.696        6.503      863.935
12/05/2014  10:09:00       50.476       48.118       13.827       10.598       11.126       13.713      112.311      123.784      188.057        0.274        0.021       69.737        3.146        0.002      335.608        6.355      863.944
12/05/2014  10:10:00       27.447       33.590       14.050       20.972       21.062       16.554      439.807      443.601      274.044        0.162        0.058       43.377       15.286        0.124      335.844        6.748      863.940
12/05/2014  10:11:00       42.107       43.403       11.256       19.780       13.600       15.349      391.233      184.956      235.606        0.230        0.041       60.472        4.846        0.006      335.862        6.778      863.943
12/05/2014  10:12:00       34.310       36.550       26.712       33.727       47.334       23.906     1137.480     2240.488      571.514        0.359        0.197       50.131       13.126        0.069      335.935        6.899      863.938
12/05/2014  10:13:00       12.893      -16.667       18.997       27.893       47.762       27.705      778.001     2281.240      767.591        0.232        0.191       21.072       23.155        1.207      336.236        7.403      863.937
12/05/2014  10:14:00       50.048      -12.474       24.355       37.944       31.147       33.684     1439.770      970.125     1134.604        0.340        0.177       51.579       28.489        0.305      336.164        7.285      863.923
12/05/2014  10:15:00        4.124       15.807       24.178       19.200       20.985       21.364      368.654      440.375      456.430        0.106        0.063       16.336       13.543        0.687      336.303        7.515      863.924
12/05/2014  10:16:00       38.385       45.746       39.603       42.062       30.684       25.687     1769.187      941.505      659.842        0.425        0.169       59.717       22.796        0.146      336.150        7.261      863.916
12/05/2014  10:17:00       41.821       43.264       29.210       27.123       36.415       17.944      735.641     1326.036      321.986        0.343        0.119       60.173       13.347        0.049      336.027        7.053      863.916
12/05/2014  10:18:00       18.319       -6.211       26.361       24.350       37.869       25.717      592.926     1434.077      661.377        0.188        0.134       19.343       24.561        1.612      336.242        7.413      863.899
12/05/2014  10:19:00       77.917       69.908       39.159       46.099       25.270       34.172     2125.144      638.577     1167.703        0.821        0.197      104.681       36.165        0.119      335.941        6.911      863.894
12/05/2014  10:20:00       43.614       53.567       41.489       37.223       37.266       36.450     1385.568     1388.762     1328.613        0.530        0.205       69.077       28.699        0.173      336.038        7.071      863.881
12/05/2014  10:21:00       68.083       51.214       39.542       27.868       40.149       30.013      776.617     1611.922      900.806        0.605        0.164       85.195       21.760        0.065      335.994        6.997      863.890
12/05/2014  10:22:00       62.577       38.811       27.710       22.238       23.622       21.496      494.518      557.990      462.094        0.385        0.076       73.635       12.794        0.030      335.995        7.000      863.876
12/05/2014  10:23:00       68.633       56.021       47.735       16.678       17.183       21.239      278.160      295.259      451.102        0.558        0.051       88.594        8.132        0.008      335.998        7.003      863.879
12/05/2014  10:24:00       71.266       45.668       24.804       27.647       15.542       22.040      764.359      241.569      485.779        0.464        0.075       84.642       17.227        0.041      336.018        7.037      863.863
12/05/2014  10:25:00       72.256       62.352       38.038       29.758       17.866       22.298      885.531      319.192      497.217        0.613        0.085       95.440       12.152        0.016      336.006        7.020      863.846
12/05/2014  10:26:00       80.206       63.567       22.408       15.234       11.529       17.258      232.073      132.919      297.835        0.582        0.033      102.341        5.148        0.003      335.949        6.923      863.826
12/05/2014  10:27:00       71.773       67.047       27.366       12.921       17.613       18.072      166.952      310.221      326.607        0.560        0.040       98.217        8.466        0.007      336.098        7.171      863.798
12/05/2014  10:28:00      124.057       89.703       39.877       41.453       23.197       28.434     1718.386      538.089      808.481        1.405        0.153      153.090       25.204        0.027      336.052        7.095      863.766
12/05/2014  10:29:00       76.105       71.167       42.199       39.847       25.696       33.697     1587.773      660.273     1135.465        0.801        0.169      104.195       23.454        0.051      336.135        7.233      863.738
12/05/2014  10:30:00       77.768       66.302       56.911       30.713       32.761       24.856      943.272     1073.278      617.810        0.816        0.132      102.195       12.156        0.014      336.182        7.312      863.724
12/05/2014  10:31:00       75.701       35.185       34.834       28.135       39.216       23.000      791.591     1537.917      529.006        0.552        0.143       83.479       20.905        0.063      336.210        7.359      863.696
12/05/2014  10:32:00       64.374       63.401       58.457       44.768       37.589       31.362     2004.143     1412.908      983.553        0.799        0.220       90.353       18.153        0.040      336.300        7.508      863.684
12/05/2014  10:33:00       78.485       80.948       65.663       38.982       29.039       31.090     1519.583      843.278      966.595        1.018        0.166      112.750       17.867        0.025      336.246        7.419      863.652
12/05/2014  10:34:00       -2.230       37.427       77.520       19.164       31.387       23.401      367.266      985.136      547.617        0.466        0.095       37.493       21.603        0.332      336.501        7.845      863.631
12/05/2014  10:35:00       -2.584       42.604       72.443       21.792       26.792       15.470      474.886      717.793      239.321        0.425        0.072       42.682       15.106        0.125      336.376        7.636      863.619
12/05/2014  10:36:00       41.824      -14.688       29.189       55.026       51.169       31.850     3027.830     2618.284     1014.423        0.474        0.333       44.328       39.887        0.810      336.378        7.639      863.616
12/05/2014  10:37:00       42.146       45.676       51.571       30.724       32.894       26.683      943.959     1082.032      711.963        0.463        0.137       62.150       10.906        0.031      336.333        7.565      863.609
12/05/2014  10:38:00       19.733       37.004       77.596       39.713       38.927       27.970     1577.087     1515.342      782.304        0.583        0.194       41.936       28.648        0.467      336.438        7.740      863.601
12/05/2014  10:39:00        6.831       10.558       60.026       25.073       53.118       36.706      628.675     2821.544     1347.299        0.428        0.240       12.575       40.094       10.166      336.578        7.974      863.589
12/05/2014  10:40:00       10.667     -117.630      -21.080       70.460       56.893       27.471     4964.631     3236.836      754.672        1.167        0.448      118.112       23.408        0.039      336.399        7.675      863.583
12/05/2014  10:41:00       59.112      -82.931      -20.156       37.412       51.595       22.593     1399.694     2662.008      510.464        0.767        0.229      101.842        1.777        0.000      336.274        7.464      863.576
12/05/2014  10:42:00       30.770       -6.765       20.005       53.235       28.848       32.230     2834.014      832.229     1038.759        0.305        0.235       31.505       30.138        0.915      336.613        8.033      863.541
12/05/2014  10:43:00       -4.374      -38.650       27.312       21.063       51.796       28.191      443.641     2682.839      794.737        0.309        0.196       38.897       27.141        0.487      336.661        8.111      863.524
12/05/2014  10:44:00       -3.301      -42.338       -4.878       30.573       30.889       22.431      934.683      954.115      503.138        0.211        0.120       42.466        9.695        0.052      336.590        7.994      863.500
12/05/2014  10:45:00      -16.596       -0.991       27.702       26.159       28.778       24.310      684.278      828.191      590.985        0.157        0.105       16.626       23.201        1.947      336.763        8.284      863.494
12/05/2014  10:46:00       -6.642       -4.265       35.439       15.765       48.353       21.199      248.521     2338.057      449.417        0.218        0.152        7.893       24.584        9.701      336.850        8.429      863.494
12/05/2014  10:47:00       18.426       -1.398       34.419       24.162       40.212       27.999      583.782     1617.038      783.963        0.225        0.149       18.479       27.488        2.213      336.723        8.216      863.491
12/05/2014  10:48:00        5.020        1.959       46.723       23.555       37.657       20.998      554.861     1418.071      440.898        0.231        0.121        5.389       11.151        4.282      336.799        8.345      863.492
12/05/2014  10:49:00       30.943      -50.496       24.571       33.661       49.874       37.210     1133.088     2487.373     1384.561        0.456        0.250       59.222       30.193        0.260      336.543        7.915      863.481
12/05/2014  10:50:00       -7.613      -47.977       26.681       22.694       30.796       31.850      515.021      948.371     1014.425        0.277        0.124       48.577       19.340        0.159      336.726        8.221      863.448
12/05/2014  10:51:00       18.154       35.876       59.314       40.770       42.539       36.813     1662.204     1809.597     1355.169        0.498        0.241       40.207       36.649        0.831      336.754        8.269      863.431
12/05/2014  10:52:00       28.805       48.451       57.881       53.427       37.745       28.813     2854.408     1424.716      830.205        0.582        0.255       56.367       26.736        0.225      336.649        8.092      863.427
12/05/2014  10:53:00       13.426       25.942       40.623       34.585       34.875       24.200     1196.130     1216.281      585.633        0.275        0.150       29.210       21.742        0.554      336.648        8.090      863.416
12/05/2014  10:54:00       31.778       41.792       56.779       26.605       28.804       12.474      707.821      829.675      155.604        0.384        0.085       52.502        3.707        0.005      336.534        7.900      863.416
12/05/2014  10:55:00       63.594       44.729       20.724       18.452       15.129       17.943      340.467      228.885      321.954        0.368        0.045       77.748        8.733        0.013      336.259        7.441      863.416
12/05/2014  10:56:00       83.667       61.540       14.783       13.474       15.151       22.710      181.560      229.567      515.761        0.597        0.046      103.862       11.137        0.011      336.251        7.428      863.403
12/05/2014  10:57:00       89.163       51.384        6.273       20.478       18.061       18.740      419.357      326.197      351.199        0.586        0.055      102.909       11.689        0.013      336.281        7.478      863.399
12/05/2014  10:58:00       64.598       45.237       12.773       44.327       28.517       27.460     1964.866      813.225      754.033        0.496        0.177       78.862       28.717        0.133      336.510        7.861      863.395
12/05/2014  10:59:00       23.914       24.781       16.338       32.077       16.565       19.879     1028.918      274.410      395.177        0.158        0.085       34.438        9.824        0.081      336.681        8.147      863.360
12/05/2014  11:00:00       66.783       34.594        6.806       29.070       25.423       26.773      845.081      646.330      716.815        0.396        0.110       75.212       20.281        0.073      336.518        7.874      863.341
12/05/2014  11:01:00       35.470       53.587       -7.491       52.533       29.948       19.709     2759.681      896.864      388.429        0.411        0.202       64.263       12.807        0.040      336.624        8.051      863.313
12/05/2014  11:02:00      112.893       67.640        8.947       43.562       24.054       28.615     1897.608      578.590      818.804        1.035        0.165      131.606       13.167        0.010      336.551        7.929      863.270
12/05/2014  11:03:00       95.741       75.289      -16.997       35.316       27.160       18.702     1247.231      737.663      349.778        0.873        0.117      121.798       16.651        0.019      336.444        7.749      863.253
12/05/2014  11:04:00        6.470       62.240      -15.782       32.801       27.670       17.154     1075.923      765.628      294.244        0.315        0.107       62.575       12.783        0.042      336.441        7.745      863.227
12/05/2014  11:05:00       49.235       41.709        7.119       31.732       22.465       23.355     1006.937      504.667      545.437        0.314        0.103       64.527        8.359        0.017      336.649        8.093      863.188
12/05/2014  11:06:00       78.941       42.790       11.630       22.345       29.210       21.531      499.300      853.199      463.571        0.501        0.091       89.793        8.508        0.009      336.600        8.011      863.147
12/05/2014  11:07:00       86.091       31.216        0.425       47.779       36.976       30.788     2282.833     1367.238      947.906        0.649        0.230       91.576       21.867        0.057      336.847        8.424      863.120
12/05/2014  11:08:00      102.179       77.564       29.539       62.975       41.392       40.882     3965.907     1713.264     1671.327        1.234        0.368      128.284       31.509        0.060      336.762        8.282      863.093
12/05/2014  11:09:00      134.695       91.729       10.191       61.358       27.980       29.106     3764.835      782.884      847.174        1.603        0.270      162.963       23.291        0.020      336.471        7.796      863.093
12/05/2014  11:10:00       50.114       54.927       56.200       48.166       35.281       43.592     2319.954     1244.750     1900.277        0.707        0.273       74.353       37.738        0.258      336.849        8.428      863.092
12/05/2014  11:11:00       10.968       90.689       98.113       40.927       41.589       32.336     1675.036     1729.669     1045.600        1.121        0.223       91.350       32.846        0.129      336.713        8.199      863.097
12/05/2014  11:12:00       63.654       35.457       12.553       28.569       32.732       20.594      816.180     1071.378      424.115        0.389        0.116       72.863       13.639        0.035      336.546        7.921      863.126
12/05/2014  11:13:00       22.856      -34.880       -0.550       18.663       17.101       14.280      348.323      292.451      203.932        0.129        0.042       41.701        8.041        0.037      336.577        7.971      863.142
12/05/2014  11:14:00       -5.281      -45.665       22.113       19.067       21.338       25.019      363.538      455.304      625.935        0.202        0.072       45.969       11.850        0.066      336.796        8.339      863.137
12/05/2014  11:15:00        1.385      -41.987       11.890       19.216       27.637       16.207      369.255      763.795      262.651        0.165        0.070       42.010        9.341        0.049      336.826        8.388      863.146
12/05/2014  11:16:00       10.671      -25.104        7.206       13.111       18.943       10.933      171.902      358.833      119.531        0.072        0.033       27.278        8.881        0.106      337.028        8.727      863.150
12/05/2014  11:17:00      -18.317       53.036       -5.631       16.866       30.915       13.988      284.475      955.730      195.672        0.231        0.072       56.110        7.798        0.019      336.870        8.463      863.144
12/05/2014  11:18:00      -13.629      101.829       -7.547       20.251       25.343       16.401      410.095      642.244      268.999        0.597        0.066      102.737        9.362        0.008      336.704        8.185      863.142
12/05/2014  11:19:00       -7.177       31.481       -6.641       22.249       48.083       22.839      495.005     2312.023      521.641        0.221        0.166       32.289       22.857        0.501      336.752        8.264      863.139
12/05/2014  11:20:00      -16.934       33.175        4.734       23.838       32.677       20.095      568.251     1067.816      403.794        0.172        0.102       37.247       14.666        0.155      336.968        8.627      863.132
12/05/2014  11:21:00       12.182       46.490       -0.398       35.178       27.231       22.521     1237.525      741.552      507.184        0.240        0.124       48.060       20.368        0.180      336.855        8.436      863.142
12/05/2014  11:22:00       48.048       37.462        0.004       16.714       14.666       19.844      279.362      215.104      393.796        0.230        0.044       60.926        9.421        0.024      336.712        8.200      863.143
12/05/2014  11:23:00       35.095       52.763       -4.738       23.504       18.262       12.600      552.436      333.506      158.759        0.254        0.052       63.369        9.986        0.025      336.696        8.173      863.140
12/05/2014  11:24:00       39.115        9.473        0.785       12.245       17.877       14.645      149.944      319.588      214.468        0.115        0.034       40.245        3.380        0.007      336.698        8.175      863.146
12/05/2014  11:25:00       32.336       22.461       -7.441       12.220       20.086       18.322      149.328      403.461      335.686        0.125        0.044       39.372       11.239        0.081      336.703        8.185      863.136
12/05/2014  11:26:00      -11.124      -17.113       -5.494       10.515       21.012        7.638      110.567      441.490       58.340        0.053        0.031       20.411        8.549        0.175      336.778        8.310      863.119
12/05/2014  11:27:00       15.945       70.399        3.524       22.735       29.473       23.976      516.884      868.683      574.839        0.359        0.098       72.182       16.895        0.055      336.846        8.421      863.109
12/05/2014  11:28:00       33.283       61.921        2.681       24.481       22.374       32.335      599.307      500.586     1045.553        0.355        0.107       70.299       11.744        0.028      336.878        8.476      863.098
12/05/2014  11:29:00       91.842       44.037       19.966       19.374       27.502       28.370      375.354      756.351      804.868        0.635        0.097      101.854       11.264        0.012      336.812        8.364      863.067
12/05/2014  11:30:00       34.676       44.163       51.844       45.055       55.902       29.692     2029.927     3125.069      881.611        0.594        0.302       56.150       31.544        0.316      337.136        8.906      863.025
12/05/2014  11:31:00       96.937       77.556       43.638       40.637       26.998       36.159     1651.358      728.866     1307.465        1.050        0.184      124.144        8.425        0.005      336.937        8.573      862.998
12/05/2014  11:32:00       44.977       48.325       10.685       34.157       18.147       23.616     1166.730      329.317      557.696        0.326        0.103       66.017       13.498        0.042      336.968        8.625      862.966
12/05/2014  11:33:00       10.428       50.063        1.366       22.714       33.345       25.917      515.926     1111.891      671.689        0.246        0.115       51.137       23.092        0.204      337.073        8.803      862.922
12/05/2014  11:34:00      -14.423       97.560      -15.830       14.993       16.618       12.269      224.797      276.166      150.527        0.531        0.033       98.620        7.170        0.005      336.851        8.432      862.907
12/05/2014  11:35:00        0.130       54.379       -5.316       13.539       40.387       17.172      183.292     1631.086      294.882        0.255        0.105       54.380       10.724        0.039      337.039        8.744      862.916
12/05/2014  11:36:00       -3.437       -7.375        9.285       20.390       26.662       19.323      415.738      710.880      373.396        0.083        0.075        8.137       12.922        2.522      337.177        8.975      862.907
12/05/2014  11:37:00      -72.213       44.600      -12.296       20.358       21.849       14.195      414.453      477.369      201.509        0.422        0.055       84.875        7.481        0.008      336.978        8.640      862.908
12/05/2014  11:38:00      -54.277       27.405      -11.584       22.007       20.430       15.053      484.316      417.373      226.597        0.248        0.056       60.803       11.675        0.037      337.110        8.864      862.905
12/05/2014  11:39:00      -58.303       21.005      -14.120       15.807       27.998       10.714      249.856      783.898      114.788        0.259        0.057       61.971        9.157        0.022      337.051        8.765      862.889
12/05/2014  11:40:00      -36.550       61.556      -11.900       24.344       29.115       14.574      592.623      847.654      212.410        0.346        0.083       71.589       14.461        0.041      337.088        8.825      862.863
12/05/2014  11:41:00      -21.861       30.174      -12.842       30.166       25.662       13.510      909.959      658.543      182.521        0.165        0.088       37.261       10.980        0.087      337.033        8.733      862.845
12/05/2014  11:42:00       -2.296      -11.114       -8.414       15.567       10.070        8.582      242.338      101.402       73.648        0.031        0.021       11.349        8.691        0.586      337.220        9.047      862.827
12/05/2014  11:43:00       -0.671       14.016        3.857       33.712       12.649       14.099     1136.491      159.990      198.785        0.085        0.075       14.032       13.952        0.989      337.255        9.106      862.813
12/05/2014  11:44:00       22.674       29.073       10.639       16.018       20.406       18.603      256.574      416.416      346.055        0.125        0.051       36.869       14.699        0.159      337.255        9.104      862.803
12/05/2014  11:45:00       16.693       -4.362       14.065       13.437       17.244       22.474      180.542      297.369      505.061        0.074        0.049       17.254        5.145        0.089      337.334        9.236      862.796
12/05/2014  11:46:00       19.805       22.142       21.101       20.288       21.378       19.722      411.615      456.999      388.970        0.129        0.063       29.707        2.975        0.010      337.347        9.261      862.778
12/05/2014  11:47:00       17.646       18.706       -0.281       21.652       18.466       14.252      468.809      341.003      203.117        0.084        0.051       25.715       10.324        0.161      337.367        9.294      862.779
12/05/2014  11:48:00       58.167       49.321        7.995       40.541       31.730       30.058     1643.582     1006.791      903.503        0.472        0.178       76.263       13.271        0.030      337.338        9.244      862.762
12/05/2014  11:49:00       -3.555       15.745       34.620       23.498       27.628       19.129      552.148      763.325      365.927        0.157        0.084       16.141       15.041        0.868      337.620        9.717      862.743
12/05/2014  11:50:00       23.189       52.636       28.941       23.600       29.066       25.883      556.959      844.844      669.940        0.311        0.104       57.517       11.920        0.043      337.587        9.661      862.714
12/05/2014  11:51:00       31.888       35.406        0.385       27.096       19.716       15.348      734.194      388.733      235.559        0.181        0.068       47.649       10.690        0.050      337.527        9.561      862.698
12/05/2014  11:52:00       61.592       37.571       15.753       46.850       25.742       23.402     2194.924      662.652      547.660        0.443        0.170       72.147       16.951        0.055      337.572        9.636      862.681
12/05/2014  11:53:00       59.112       28.784       22.634       28.572       28.193       26.336      816.339      794.845      693.599        0.357        0.115       65.748       22.807        0.120      337.374        9.304      862.662
12/05/2014  11:54:00       33.361       55.089      -13.101       46.278       18.929       25.754     2141.612      358.307      663.265        0.374        0.158       64.403       13.427        0.043      337.243        9.086      862.637
12/05/2014  11:55:00       76.870       59.443       15.735       30.723       19.536       31.114      943.925      381.648      968.086        0.599        0.115       97.172       18.284        0.035      337.307        9.193      862.637
12/05/2014  11:56:00       79.720       58.396        4.737       53.798       32.726       28.984     2894.278     1071.020      840.098        0.730        0.240       98.820       18.308        0.034      337.301        9.183      862.641
12/05/2014  11:57:00       47.359       15.901       24.579       31.716       29.333       25.333     1005.917      860.444      641.759        0.280        0.125       49.957       22.565        0.204      337.372        9.301      862.634
12/05/2014  11:58:00       65.151       46.056        2.884       36.809       25.404       27.384     1354.894      645.366      749.904        0.456        0.138       79.786       21.999        0.076      337.383        9.319      862.632
12/05/2014  11:59:00       86.717       18.740       11.851       42.309       39.245       31.622     1790.085     1540.167      999.924        0.617        0.217       88.719       10.762        0.015      337.490        9.499      862.640
12/05/2014  12:00:00      100.301       51.121        1.726       21.185       16.634       19.179      448.807      276.679      367.819        0.688        0.055      112.578       12.311        0.012      337.326        9.225      862.640
12/05/2014  12:01:00       39.951       59.437       26.172       31.793       29.926       31.472     1010.780      895.573      990.467        0.435        0.145       71.615       23.647        0.109      337.651        9.768      862.639
12/05/2014  12:02:00        8.942       11.979       45.096       22.808       27.784       18.122      520.213      771.926      328.420        0.194        0.081       14.948       14.257        0.910      338.024       10.395      862.644
12/05/2014  12:03:00       33.977       45.415       35.705       32.457       31.406       26.526     1053.474      986.337      703.647        0.362        0.137       56.719       14.816        0.068      337.756        9.945      862.638
12/05/2014  12:04:00       -1.542       33.625       61.982       27.173       34.895       29.395      738.375     1217.669      864.049        0.390        0.141       33.660       26.129        0.603      337.992       10.342      862.615
12/05/2014  12:05:00       -1.479       43.316       70.735       29.178       49.284       26.837      851.332     2428.887      720.246        0.544        0.200       43.342       27.028        0.389      338.029       10.403      862.589
12/05/2014  12:06:00      117.083       77.090       32.141       66.899       33.354       37.841     4475.420     1112.489     1431.949        1.385        0.351      140.183       41.337        0.087      337.611        9.702      862.589
12/05/2014  12:07:00       70.165       47.945       51.360       46.327       33.206       39.013     2146.182     1102.606     1522.025        0.731        0.239       84.982       29.893        0.124      337.590        9.667      862.592
12/05/2014  12:08:00       81.562       20.815       13.315       39.057       34.730       33.464     1525.438     1206.153     1119.828        0.556        0.193       84.176       23.520        0.078      337.574        9.640      862.591
12/05/2014  12:09:00       59.185      -62.301       -3.285       29.678       33.659       26.030      880.794     1132.927      677.577        0.504        0.135       85.932       16.492        0.037      337.510        9.534      862.584
12/05/2014  12:10:00       35.075       10.489       51.307       36.516       45.339       37.011     1333.401     2055.631     1369.786        0.436        0.238       36.610       31.429        0.737      337.870       10.137      862.564
12/05/2014  12:11:00       76.721       61.941        8.820       43.181       33.520       35.318     1864.581     1123.575     1247.331        0.702        0.212       98.604       21.354        0.047      337.715        9.877      862.545
12/05/2014  12:12:00      106.992      108.348       -5.010       40.161       30.906       26.180     1612.875      955.179      685.418        1.323        0.163      152.271       14.452        0.009      337.606        9.694      862.534
12/05/2014  12:13:00       65.100       57.283        5.082       38.500       39.371       33.370     1482.278     1550.105     1113.531        0.584        0.207       86.715       22.376        0.067      337.696        9.844      862.517
12/05/2014  12:14:00      102.292       70.489       10.418       48.039       34.480       31.548     2307.781     1188.850      995.298        1.002        0.225      124.227       15.556        0.016      337.687        9.830      862.488
12/05/2014  12:15:00       52.075       19.982       14.868       44.857       28.079       24.672     2012.138      788.428      608.695        0.337        0.170       55.777       22.815        0.167      337.884       10.160      862.473
12/05/2014  12:16:00       34.029       46.547       30.035       47.512       40.888       39.687     2257.431     1671.865     1575.096        0.486        0.275       57.659       25.677        0.198      337.996       10.348      862.461
12/05/2014  12:17:00       -8.568       77.246       85.397       23.323       41.966       33.881      543.951     1761.156     1147.891        0.839        0.173       77.720       24.292        0.098      338.020       10.387      862.435
12/05/2014  12:18:00       44.450      101.411       97.295       67.913       59.562       48.188     4612.199     3547.579     2322.043        1.610        0.524      110.725       47.770        0.186      337.884       10.159      862.422
12/05/2014  12:19:00       35.129       71.881       48.085       68.997       31.275       38.333     4760.567      978.112     1469.453        0.796        0.360       80.005       40.497        0.256      338.075       10.480      862.429
12/05/2014  12:20:00      -16.096       33.643       61.914       29.057       71.087       47.216      844.312     5053.337     2229.371        0.667        0.406       37.295       47.922        1.651      338.269       10.807      862.406
12/05/2014  12:21:00       11.310       81.518       93.290       37.046       44.298       22.603     1372.398     1962.300      510.877        0.966        0.192       82.299       22.942        0.078      338.046       10.432      862.398
12/05/2014  12:22:00       51.286       58.369       58.726       51.714       33.898       44.574     2674.312     1149.059     1986.820        0.765        0.291       77.700       20.476        0.069      337.977       10.316      862.384
12/05/2014  12:23:00       30.604       32.042       37.006       33.296       28.570       24.877     1108.640      816.263      618.846        0.294        0.127       44.309       14.180        0.102      338.001       10.355      862.357
12/05/2014  12:24:00       25.015       47.020        7.761       22.696       19.024       20.823      515.100      361.930      433.605        0.210        0.066       53.260        9.995        0.035      338.030       10.404      862.335
12/05/2014  12:25:00       48.171       45.555       31.312       42.766       32.950       35.153     1828.929     1085.711     1235.704        0.476        0.208       66.301       24.004        0.131      338.024       10.393      862.318
12/05/2014  12:26:00       45.854       44.609       17.364       40.043       33.920       30.730     1603.420     1150.580      944.314        0.405        0.185       63.973       11.545        0.033      338.116       10.550      862.287
12/05/2014  12:27:00       67.754       54.966       32.721       37.997       26.281       48.507     1443.742      690.708     2352.972        0.658        0.224       87.246       31.311        0.129      337.855       10.111      862.270
12/05/2014  12:28:00       84.807       78.497       25.975       51.061       43.579       40.391     2607.176     1899.117     1631.434        1.008        0.307      115.559       24.695        0.046      338.025       10.395      862.269
12/05/2014  12:29:00       73.559       56.649       21.473       33.498       20.123       30.318     1122.112      404.948      919.192        0.576        0.122       92.844       12.180        0.017      337.876       10.146      862.257
12/05/2014  12:30:00       66.726       63.309        0.254       26.288       17.647       19.223      691.057      311.434      369.543        0.492        0.069       91.981       12.014        0.017      337.808       10.032      862.255
12/05/2014  12:31:00       41.593       69.927       71.723       37.484       42.773       29.966     1405.019     1829.488      897.989        0.795        0.207       81.362       25.976        0.102      337.993       10.342      862.259
12/05/2014  12:32:00       42.809       41.573       51.500       48.312       50.017       41.619     2334.074     2501.680     1732.130        0.639        0.328       59.673       36.705        0.378      338.102       10.526      862.251
12/05/2014  12:33:00       54.201       40.766       57.500       55.446       51.446       39.088     3074.214     2646.669     1527.888        0.758        0.362       67.821       36.413        0.288      338.151       10.608      862.255
12/05/2014  12:34:00       77.817       97.707       81.192       74.046       49.924       51.513     5482.842     2492.374     2653.541        1.641        0.531      124.908       52.373        0.176      337.999       10.353      862.248
12/05/2014  12:35:00      119.683       81.270       38.433       51.330       44.808       58.898     2634.813     2007.725     3468.939        1.526        0.406      144.668       43.708        0.091      337.923       10.225      862.242
12/05/2014  12:36:00        5.846       65.711       80.061       47.925       50.330       39.420     2296.795     2533.104     1553.904        0.857        0.319       65.970       41.335        0.393      338.121       10.557      862.219
12/05/2014  12:37:00       62.014       53.032       57.842       56.417       49.112       40.786     3182.931     2411.983     1663.505        0.863        0.363       81.598       39.668        0.236      338.166       10.633      862.210
12/05/2014  12:38:00       88.572       81.125       70.578       74.891       59.411       61.034     5608.654     3529.673     3725.178        1.613        0.643      120.109       57.947        0.233      338.105       10.530      862.202
12/05/2014  12:39:00       24.454        4.543        8.596       30.927       46.620       28.211      956.460     2173.446      795.873        0.231        0.196       24.872       16.338        0.431      338.227       10.735      862.197
12/05/2014  12:40:00       70.413      -71.161        5.821       45.806       60.438       35.707     2098.173     3652.752     1274.954        0.854        0.351      100.109       39.283        0.154      338.227       10.736      862.193
12/05/2014  12:41:00       57.488        9.875       43.135       44.354       50.742       39.220     1967.269     2574.765     1538.174        0.567        0.304       58.330       44.752        0.589      338.125       10.562      862.203
12/05/2014  12:42:00       33.547      -41.426       25.678       37.711       65.088       41.065     1422.119     4236.473     1686.372        0.542        0.367       53.306       42.470        0.635      338.358       10.955      862.209
12/05/2014  12:43:00      103.655     -119.196      -26.564       39.685       49.603       23.517     1574.888     2460.441      553.064        1.512        0.229      157.963       18.989        0.014      338.016       10.381      862.209
12/05/2014  12:44:00       63.989      -99.528      -15.844       42.922       59.590       33.238     1842.333     3550.934     1104.734        1.037        0.325      118.324       23.080        0.038      338.170       10.640      862.191
12/05/2014  12:45:00       51.587      -46.008       -7.462       53.477       71.909       36.211     2859.804     5170.973     1311.238        0.709        0.467       69.122       30.575        0.196      338.123       10.561      862.184
12/05/2014  12:46:00       38.406        0.739        0.370       26.430       43.911       23.659      698.547     1928.181      559.753        0.233        0.159       38.413       13.771        0.129      338.264       10.799      862.171
12/05/2014  12:47:00       85.310       59.070        0.551       37.267       26.640       28.807     1388.817      709.672      829.829        0.685        0.146      103.765       13.093        0.016      338.256       10.783      862.153
12/05/2014  12:48:00      111.817       70.696       10.470       40.341       30.622       32.242     1627.428      937.687     1039.560        1.061        0.180      132.291       12.122        0.008      338.081       10.490      862.135
12/05/2014  12:49:00       78.790       40.932       11.388       52.080       40.775       22.470     2712.287     1662.561      504.915        0.645        0.244       88.787       21.849        0.061      338.093       10.509      862.109
12/05/2014  12:50:00      112.451       53.544       20.190       56.704       54.620       36.094     3215.370     2983.291     1302.759        1.171        0.375      124.548       12.101        0.009      338.160       10.623      862.095
12/05/2014  12:51:00       57.109       22.280       42.039       61.953       37.076       30.932     3838.215     1374.656      956.776        0.585        0.308       61.301       36.197        0.349      338.355       10.949      862.083
12/05/2014  12:52:00       88.612       42.548       21.845       60.897       49.976       32.680     3708.419     2497.613     1068.008        0.871        0.364       98.298       21.973        0.050      338.322       10.894      862.087
12/05/2014  12:53:00       31.395      -21.472       34.043       54.824       63.998       39.449     3005.670     4095.788     1556.260        0.563        0.433       38.035       34.574        0.826      338.410       11.042      862.092
12/05/2014  12:54:00        9.462        8.061       46.306       31.203       80.337       40.496      973.654     6453.968     1639.900        0.568        0.453       12.430       49.884       16.105      338.336       10.918      862.103
12/05/2014  12:55:00       69.297     -131.760      -15.651       56.915       54.255       31.758     3239.293     2943.590     1008.568        1.480        0.360      148.872       27.843        0.035      338.216       10.716      862.109
12/05/2014  12:56:00       74.288     -116.242      -12.151       42.576       45.982       27.709     1812.748     2114.382      767.766        1.194        0.235      137.952       26.366        0.037      338.090       10.506      862.112
12/05/2014  12:57:00       82.875       40.075       37.127       58.446       43.157       36.538     3415.951     1862.541     1335.007        0.823        0.331       92.056       31.790        0.119      338.201       10.691      862.103
12/05/2014  12:58:00      134.295       79.518       12.836       39.450       38.393       31.485     1556.332     1474.022      991.335        1.427        0.201      156.071       23.405        0.022      338.000       10.354      862.090
12/05/2014  12:59:00       65.675       52.776       -0.838       23.140       43.946       23.887      535.439     1931.228      570.598        0.507        0.152       84.253       15.694        0.035      338.102       10.526      862.078
12/05/2014  13:00:00       57.923       35.909        3.234       34.738       39.124       27.416     1206.709     1530.688      751.664        0.407        0.174       68.150       10.142        0.022      338.118       10.551      862.059
12/05/2014  13:01:00       32.670       29.475       29.427       33.367       35.920       40.704     1113.353     1290.241     1656.789        0.343        0.203       44.001       25.660        0.340      338.289       10.839      862.044
12/05/2014  13:02:00       27.742       48.859       48.354       33.883       38.618       29.001     1148.054     1491.366      841.072        0.449        0.174       56.185       19.812        0.124      338.278       10.819      862.031
12/05/2014  13:03:00       22.563       30.743        9.535       25.882       20.337       21.319      669.856      413.600      454.487        0.154        0.077       38.134       11.916        0.098      338.136       10.583      862.027
12/05/2014  13:04:00       10.118      -11.591        3.295       32.194       26.106       22.210     1036.449      681.544      493.289        0.123        0.111       15.386       11.684        0.577      338.293       10.845      862.023
12/05/2014  13:05:00       14.591      -92.459        7.667       46.699       66.952       31.484     2180.763     4482.551      991.246        0.824        0.383       93.603       36.610        0.153      338.432       11.080      862.015
12/05/2014  13:06:00       16.719      -24.533       35.316       24.998       47.817       23.253      624.922     2286.500      540.696        0.279        0.173       29.689       22.211        0.560      338.558       11.292      862.009
12/05/2014  13:07:00       44.499      -52.732       -0.486       43.866       60.975       41.080     1924.258     3717.974     1687.556        0.604        0.366       68.999       40.458        0.344      338.417       11.053      861.997
12/05/2014  13:08:00        5.183       -8.895       35.398       28.557       31.691       33.235      815.481     1004.316     1104.598        0.214        0.146       10.295       21.327        4.292      338.626       11.405      861.984
12/05/2014  13:09:00       16.081       40.680       73.917       38.421       42.238       32.500     1476.191     1784.027     1056.247        0.585        0.216       43.743       32.956        0.568      338.517       11.223      861.989
12/05/2014  13:10:00       33.361       -6.475       30.488       34.887       37.914       25.245     1217.117     1437.490      637.313        0.269        0.165       33.984       24.586        0.523      338.315       10.883      861.984
12/05/2014  13:11:00       62.297       20.057       21.654       47.487       49.927       40.691     2254.991     2492.754     1655.776        0.558        0.320       65.446       27.416        0.175      338.215       10.715      861.985
12/05/2014  13:12:00      103.739      -82.154        0.598       39.900       50.290       29.729     1592.048     2529.066      883.811        1.126        0.250      132.329       29.359        0.049      338.158       10.620      861.998
12/05/2014  13:13:00       93.626      -58.910       12.887       69.161       55.335       50.870     4783.267     3061.986     2587.739        1.142        0.522      110.618       53.368        0.233      338.230       10.740      862.002
12/05/2014  13:14:00       37.376      -22.315        6.135       41.881       35.496       23.408     1754.022     1259.978      547.938        0.275        0.178       43.530       30.469        0.490      338.343       10.930      862.005
12/05/2014  13:15:00        2.236       12.512       19.946       14.743       18.106       14.657      217.342      327.844      214.820        0.066        0.038       12.710        9.486        0.557      338.466       11.136      861.997
12/05/2014  13:16:00       37.137       30.460        9.656       21.490       18.404       20.147      461.837      338.707      405.909        0.180        0.060       48.031       14.010        0.085      338.354       10.948      861.983
12/05/2014  13:17:00       34.216       24.238        2.079       29.639       20.496       17.551      878.445      420.084      308.055        0.168        0.080       41.931        6.941        0.027      338.328       10.906      861.979
12/05/2014  13:18:00       21.480        2.098        7.587       28.088       40.696       23.792      788.943     1656.198      566.052        0.177        0.151       21.582       16.907        0.614      338.470       11.144      861.966
12/05/2014  13:19:00        3.158      -12.679        1.399       24.530       33.861       22.669      601.734     1146.597      513.878        0.122        0.113       13.067       10.832        0.687      338.466       11.137      861.950
12/05/2014  13:20:00       11.041       22.940       39.050       18.025       18.389       16.151      324.902      338.161      260.846        0.155        0.046       25.458       12.867        0.255      338.586       11.339      861.928
12/05/2014  13:21:00       19.891        0.961       32.740       32.245       21.211       16.555     1039.731      449.913      274.056        0.162        0.088       19.914       14.441        0.526      338.502       11.197      861.916
12/05/2014  13:22:00      -39.017      -22.362        6.432       20.975       16.690       16.903      439.961      278.551      285.700        0.153        0.050       44.971       15.424        0.118      338.574       11.317      861.907
12/05/2014  13:23:00      -36.072       -4.425       11.843       34.373       18.429       13.154     1181.532      339.619      173.033        0.158        0.085       36.342        9.291        0.065      338.763       11.635      861.890
12/05/2014  13:24:00      -27.771      -27.684        8.087       44.379       28.022       14.625     1969.515      785.221      213.904        0.229        0.148       39.213       17.342        0.196      338.614       11.384      861.872
12/05/2014  13:25:00      -58.614      -21.171       -0.055       35.711       29.309       20.608     1275.307      859.026      424.682        0.322        0.128       62.320       16.146        0.067      338.485       11.170      861.859
12/05/2014  13:26:00       -1.324      -12.690        4.772       41.879       25.146       19.018     1753.889      632.298      361.686        0.147        0.137       12.759       16.870        1.748      338.563       11.300      861.849
12/05/2014  13:27:00       52.608      -21.230        4.956       37.732       44.176       29.388     1423.734     1951.482      863.648        0.374        0.212       56.730       33.136        0.341      338.407       11.038      861.838
12/05/2014  13:28:00      -12.575      -11.045       20.016       52.693       31.501       25.909     2776.508      992.317      671.285        0.256        0.222       16.737       30.411        3.301      338.485       11.169      861.822
12/05/2014  13:29:00       23.824        0.610       32.969       37.067       36.973       22.922     1373.962     1366.983      525.408        0.246        0.163       23.832       21.860        0.841      338.657       11.457      861.802
12/05/2014  13:30:00       48.284     -114.001       10.280       33.186       71.136       26.804     1101.284     5060.333      718.467        1.116        0.344      123.804       25.641        0.043      338.671       11.479      861.782
12/05/2014  13:31:00       73.210      -49.513       19.597       51.081       94.789       42.097     2609.221     8984.952     1772.177        1.078        0.668       88.381       59.813        0.458      338.576       11.321      861.755
12/05/2014  13:32:00       95.093      -89.291      -10.853       38.894       47.281       25.080     1512.738     2235.509      628.988        1.075        0.219      130.444       17.778        0.019      338.387       11.004      861.738
12/05/2014  13:33:00       46.823      -35.147       24.439       46.450       64.273       30.204     2157.572     4130.957      912.284        0.561        0.360       58.547       38.220        0.426      338.498       11.191      861.715
12/05/2014  13:34:00       -1.478      -14.190       42.751       26.205       36.223       26.427      686.714     1312.100      698.388        0.236        0.135       14.267       18.304        1.646      338.746       11.606      861.690
12/05/2014  13:35:00      -45.256      -53.601        4.483       42.128       45.349       24.405     1774.787     2056.560      595.599        0.468        0.221       70.151       24.935        0.126      338.712       11.548      861.689
12/05/2014  13:36:00      -26.077      -23.444        7.708       28.685       29.441       22.143      822.817      866.752      490.294        0.173        0.109       35.066       17.162        0.240      338.803       11.703      861.692
12/05/2014  13:37:00      -54.361      -26.443       13.326       47.974       36.781       24.266     2301.494     1352.807      588.835        0.404        0.212       60.452       27.210        0.203      338.663       11.468      861.697
12/05/2014  13:38:00      -19.722       -3.653       21.582       52.861       39.081       23.557     2794.303     1527.295      554.922        0.287        0.244       20.058       23.241        1.343      338.748       11.610      861.698
12/05/2014  13:39:00      -12.706      -42.243        2.433       38.253       23.152       25.841     1463.315      536.032      667.778        0.231        0.133       44.112       17.251        0.153      338.609       11.377      861.695
12/05/2014  13:40:00       15.801      -29.074       21.466       27.726       36.139       32.325      768.745     1305.999     1044.930        0.234        0.156       33.090       23.212        0.492      338.726       11.574      861.684
12/05/2014  13:41:00        8.871      -49.365       -4.318       34.695       49.711       32.146     1203.748     2471.207     1033.388        0.362        0.235       50.155       32.916        0.431      338.839       11.763      861.681
12/05/2014  13:42:00       20.450        4.721       39.098       35.924       30.455       22.336     1290.535      927.508      498.917        0.234        0.136       20.988       18.751        0.798      338.901       11.868      861.693
12/05/2014  13:43:00       13.653     -112.991       -7.171       40.517       42.657       30.468     1641.611     1819.652      928.291        0.870        0.219      113.812       25.067        0.049      338.877       11.827      861.699
12/05/2014  13:44:00       74.548      -67.135       12.889       65.325      100.906       57.244     4267.294    10182.097     3276.855        1.397        0.886      100.322       67.977        0.459      338.778       11.660      861.708
12/05/2014  13:45:00       23.143       39.886       79.656       44.571       52.680       41.793     1986.599     2775.145     1746.685        0.749        0.325       46.114       40.374        0.767      338.904       11.873      861.712
12/05/2014  13:46:00       32.919      -44.726       18.588       33.958       36.677       30.042     1153.166     1345.232      902.525        0.341        0.170       55.534       24.334        0.192      338.856       11.791      861.717
12/05/2014  13:47:00       22.330       22.163       51.295       40.699       40.285       32.564     1656.449     1622.886     1060.420        0.398        0.217       31.461       32.450        1.064      338.842       11.769      861.710
12/05/2014  13:48:00       70.558       84.032       73.173       72.712       55.795       52.193     5287.103     3113.113     2724.076        1.426        0.556      109.727       40.487        0.136      338.625       11.403      861.680
12/05/2014  13:49:00      103.113       42.194        1.862       54.120       38.080       40.143     2929.003     1450.061     1611.420        0.920        0.300      111.412       31.770        0.081      338.483       11.165      861.651
12/05/2014  13:50:00       70.970       30.673       17.113       27.948       29.472       30.509      781.079      868.583      930.822        0.442        0.129       77.315       21.621        0.078      338.491       11.178      861.630
12/05/2014  13:51:00       31.330       46.041        0.315       20.531       23.084       17.124      421.540      532.863      293.224        0.217        0.062       55.690       15.314        0.076      338.566       11.306      861.593
12/05/2014  13:52:00       40.611       29.906       -0.215       20.327       11.251       19.279      413.186      126.592      371.688        0.173        0.046       50.435       12.319        0.060      338.560       11.292      861.579
12/05/2014  13:53:00        0.037       12.963        4.955       14.797       16.174       14.805      218.955      261.601      219.191        0.045        0.035       12.963       12.061        0.866      338.854       11.790      861.576
12/05/2014  13:54:00       29.720       26.685       20.415       17.627       17.464       20.544      310.702      304.990      422.043        0.152        0.052       39.942       16.581        0.172      338.792       11.683      861.580
12/05/2014  13:55:00       36.985       33.515       28.416       44.085       41.280       45.889     1943.453     1704.062     2105.804        0.452        0.288       49.911       40.316        0.652      338.799       11.696      861.574
12/05/2014  13:56:00        8.139       16.045       18.994       20.265       25.797       18.656      410.677      665.479      348.029        0.105        0.071       17.991       14.649        0.663      338.992       12.021      861.550
12/05/2014  13:57:00       -7.936        1.062       17.754       22.071       33.909       22.949      487.118     1149.833      526.641        0.127        0.108        8.007       18.245        5.193      338.986       12.011      861.526
12/05/2014  13:58:00      -12.360       27.694       70.473       22.721       44.662       43.389      516.238     1994.692     1882.617        0.514        0.220       30.328       38.048        1.574      338.957       11.962      861.512
12/05/2014  13:59:00       63.804       49.266       47.957       41.523       46.486       35.055     1724.143     2160.959     1228.845        0.695        0.256       80.611       29.720        0.136      338.689       11.511      861.515
12/05/2014  14:00:00       17.340        7.349        9.253       60.117       37.300       27.194     3614.027     1391.267      739.528        0.309        0.287       18.833       26.973        2.051      338.711       11.548      861.509
12/05/2014  14:01:00        8.920      -11.170       14.215       44.607       32.317       25.703     1989.823     1044.404      660.643        0.205        0.185       14.294       16.212        1.286      338.917       11.895      861.507
12/05/2014  14:02:00       53.278       -7.907       29.749       42.042       36.613       24.592     1767.491     1340.501      604.783        0.375        0.186       53.861       26.341        0.239      338.811       11.717      861.494
12/05/2014  14:03:00       97.489       47.572       60.353       57.828       45.614       42.608     3344.085     2080.611     1815.440        1.132        0.362      108.476       37.504        0.120      338.783       11.670      861.478
12/05/2014  14:04:00       61.690       55.976       61.139       61.176       67.151       56.922     3742.457     4509.223     3240.087        1.108        0.575       83.300       57.416        0.475      338.732       11.583      861.470
12/05/2014  14:05:00      106.923      101.791       79.330       91.886       75.782       63.330     8443.059     5742.953     4010.720        2.314        0.910      147.628       65.313        0.196      338.669       11.476      861.468
12/05/2014  14:06:00       94.863       61.493       69.056       76.318       58.236       64.662     5824.509     3391.377     4181.204        1.547        0.670      113.050       50.578        0.200      338.668       11.474      861.466
12/05/2014  14:07:00       98.480       91.110       87.014       67.753       68.367       46.695     4590.509     4674.027     2180.390        1.851        0.572      134.161       41.373        0.095      338.672       11.481      861.475
12/05/2014  14:08:00       89.416       51.630       45.768       55.566       55.935       54.272     3087.595     3128.673     2945.503        1.096        0.458      103.252       32.688        0.100      338.618       11.393      861.484
12/05/2014  14:09:00       92.341       60.944       43.096       49.623       40.787       43.437     2462.423     1663.600     1886.792        1.005        0.301      110.639       24.734        0.050      338.617       11.390      861.492
12/05/2014  14:10:00       76.657       15.195       15.591       44.772       35.903       31.643     2004.492     1289.013     1001.303        0.532        0.215       78.149       23.149        0.088      338.647       11.440      861.504
12/05/2014  14:11:00       -1.752       54.674       81.531       24.043       45.572       37.150      578.082     2076.784     1380.139        0.684        0.202       54.702       37.424        0.468      338.812       11.718      861.506
12/05/2014  14:12:00       37.795       61.178       54.476       47.165       36.336       38.676     2224.499     1320.317     1495.850        0.659        0.252       71.911       36.178        0.253      338.738       11.593      861.512
12/05/2014  14:13:00       60.834       24.546       19.600       37.929       42.251       34.538     1438.580     1785.150     1192.887        0.455        0.221       65.599       17.876        0.074      338.741       11.598      861.512
12/05/2014  14:14:00      104.392       78.004       28.837       51.020       43.457       51.199     2603.088     1888.477     2621.373        1.246        0.356      130.316       31.649        0.059      338.766       11.641      861.501
12/05/2014  14:15:00      106.610      116.654      100.944       72.728       59.398       60.412     5289.392     3528.181     3649.641        2.381        0.623      158.031       57.114        0.131      338.659       11.458      861.489
12/05/2014  14:16:00      130.141      132.674       96.936       73.447       52.708       69.024     5394.417     2778.123     4764.255        2.843        0.647      185.847       61.691        0.110      338.628       11.406      861.483
12/05/2014  14:17:00      116.617       90.641       75.938       64.845       76.717       44.649     4204.890     5885.520     1993.519        1.983        0.604      147.701       39.181        0.070      338.648       11.439      861.482
12/05/2014  14:18:00      127.071      162.209      117.913       45.874       58.165       45.627     2104.397     3383.110     2081.824        3.196        0.378      206.056       26.701        0.017      338.630       11.408      861.475
12/05/2014  14:19:00       64.553       71.410       87.317       46.793       54.827       40.989     2189.597     3005.999     1680.057        1.188        0.344       96.262       41.849        0.189      338.733       11.586      861.492
12/05/2014  14:20:00       73.473       41.059       17.731       41.251       39.300       37.970     1701.636     1544.528     1441.696        0.604        0.234       84.167       18.490        0.048      338.696       11.522      861.481
12/05/2014  14:21:00       44.912       11.839       17.190       48.860       35.803       23.339     2387.330     1281.821      544.692        0.333        0.211       46.446       13.918        0.090      338.734       11.587      861.474
12/05/2014  14:22:00       15.261      -43.313       25.936       25.258       44.551       21.820      637.962     1984.748      476.096        0.294        0.155       45.923       19.323        0.177      338.812       11.716      861.465
12/05/2014  14:23:00       40.126       32.060        2.026       15.882       19.785       17.918      252.231      391.451      321.064        0.180        0.048       51.361        5.882        0.013      338.767       11.642      861.459
12/05/2014  14:24:00       20.153       17.023       31.806       31.360       45.076       29.799      983.462     2031.886      887.963        0.280        0.195       26.380       33.640        1.626      338.883       11.837      861.452
12/05/2014  14:25:00       95.475       82.333       56.600       40.709       34.497       45.048     1657.202     1190.026     2029.328        1.199        0.244      126.072       37.163        0.087      338.775       11.655      861.453
12/05/2014  14:26:00       87.730       87.553       55.534       62.947       54.929       49.180     3962.342     3017.202     2418.703        1.392        0.470      123.944       30.304        0.060      338.795       11.688      861.459
12/05/2014  14:27:00      142.616      102.009       25.091       55.698       52.961       51.760     3102.266     2804.862     2679.082        1.998        0.429      175.343       27.700        0.025      338.684       11.501      861.455
12/05/2014  14:28:00      135.515       70.123       39.582       73.861       85.763       54.972     5455.481     7355.209     3021.943        2.034        0.792      152.583       28.153        0.034      338.704       11.535      861.456
12/05/2014  14:29:00      140.779       72.006       35.675       61.614       51.938       36.802     3796.254     2697.508     1354.379        1.706        0.392      158.125        8.624        0.003      338.708       11.541      861.454
12/05/2014  14:30:00       73.043       62.077       52.611       58.830       57.033       29.372     3460.987     3252.807      862.694        0.977        0.379       95.859        6.023        0.004      338.783       11.670      861.448
12/05/2014  14:31:00       68.757       51.566       50.748       49.832       43.828       34.985     2483.259     1920.903     1223.937        0.779        0.281       85.945       23.999        0.078      338.824       11.738      861.456
12/05/2014  14:32:00       56.770       76.794       87.140       59.791       48.766       55.583     3574.998     2378.121     3089.457        1.288        0.452       95.499       42.998        0.203      338.761       11.632      861.473
12/05/2014  14:33:00       85.258       63.916       73.414       78.024       53.431       38.359     6087.737     2854.857     1471.449        1.358        0.521      106.556       23.459        0.048      338.820       11.730      861.499
12/05/2014  14:34:00       63.235       67.127       53.779       57.241       48.760       45.727     3276.517     2377.524     2090.985        0.957        0.387       92.221       33.785        0.134      338.828       11.745      861.524
12/05/2014  14:35:00        1.920        6.459       34.734       24.388       38.183       28.337      594.766     1457.917      803.006        0.205        0.143        6.738       21.765       10.432      338.949       11.948      861.543
12/05/2014  14:36:00       33.811      -72.945        6.696       39.930       58.344       33.054     1594.404     3403.974     1092.584        0.630        0.305       80.400       34.694        0.186      339.022       12.070      861.554
12/05/2014  14:37:00       42.454      -29.912       32.387       41.615       46.095       38.969     1731.839     2124.772     1518.604        0.456        0.269       51.933       37.225        0.514      338.874       11.824      861.560
12/05/2014  14:38:00       -5.582      -83.306      -18.650       70.464       33.741       31.998     4965.215     1138.437     1023.857        0.722        0.356       83.492       18.224        0.048      338.910       11.882      861.575
12/05/2014  14:39:00       23.076      -28.585       26.047       36.367       56.911       47.252     1322.570     3238.855     2232.750        0.441        0.340       36.737       41.323        1.265      338.927       11.910      861.576
12/05/2014  14:40:00       15.784      -73.122       -6.438       35.406       55.920       28.152     1253.608     3127.050      792.525        0.540        0.259       74.806       30.008        0.161      338.975       11.991      861.568
12/05/2014  14:41:00       10.564       -5.930       26.875       21.008       45.218       26.537      441.351     2044.700      704.191        0.203        0.160       12.114       25.805        4.537      338.994       12.023      861.557
12/05/2014  14:42:00       -9.952       43.295       43.382       23.240       34.194       26.684      540.080     1169.205      712.025        0.314        0.121       44.424       25.116        0.320      338.901       11.868      861.541
12/05/2014  14:43:00        0.726       -3.841       -8.026       15.615       23.695       14.430      243.841      561.438      208.217        0.055        0.051        3.909        8.659        4.907      338.926       11.910      861.530
12/05/2014  14:44:00      -18.329        8.616        8.293       72.076       23.610       33.221     5194.894      557.427     1103.645        0.367        0.343       20.253       36.728        3.289      338.871       11.816      861.522
12/05/2014  14:45:00      -34.459       12.499       -3.201       28.479       25.242       19.311      811.057      637.178      372.920        0.159        0.091       36.656       13.527        0.136      338.818       11.728      861.518
12/05/2014  14:46:00       -5.303       10.254       21.956       10.854       21.749       19.668      117.818      473.015      386.833        0.080        0.049       11.544       14.446        1.566      338.963       11.973      861.518
12/05/2014  14:47:00       13.389       -3.369       41.380       29.754       50.042       41.718      885.288     2504.153     1740.389        0.352        0.256       13.807       34.743        6.332      339.004       12.040      861.525
12/05/2014  14:48:00        5.922       -2.232       37.129       34.093       49.821       30.855     1162.317     2482.126      952.009        0.301        0.230        6.329       33.886       28.668      339.005       12.042      861.519
12/05/2014  14:49:00       52.814      -35.904       24.135       53.802       64.030       55.687     2894.655     4099.808     3101.034        0.738        0.505       63.862       56.118        0.772      338.875       11.823      861.507
12/05/2014  14:50:00       70.783      -36.094       26.036       64.232       87.985       63.362     4125.723     7741.277     4014.776        1.143        0.794       79.454       68.674        0.747      338.831       11.749      861.509
12/05/2014  14:51:00      161.948     -170.211      -35.407       51.461       54.154       30.648     2648.277     2932.621      939.327        3.149        0.326      234.944       13.735        0.003      338.710       11.543      861.514
12/05/2014  14:52:00       69.874      -60.062      -14.645       56.715       58.941       48.621     3216.536     3474.058     2364.031        0.888        0.453       92.140       39.251        0.181      338.753       11.617      861.520
12/05/2014  14:53:00       34.679       -8.108       29.323       46.326       41.505       36.155     2146.104     1722.682     1307.201        0.365        0.259       35.614       30.699        0.743      338.809       11.713      861.511
12/05/2014  14:54:00      -14.396      -33.328       16.087       21.711       26.372       20.732      471.349      695.500      429.832        0.159        0.080       36.305       19.346        0.284      338.924       11.906      861.504
12/05/2014  14:55:00      -18.740        2.346       19.359       15.859       27.690       21.191      251.521      766.735      449.065        0.110        0.073       18.886        9.610        0.259      338.973       11.989      861.490
12/05/2014  14:56:00       -7.778      -37.914        5.614       26.647       27.759       20.426      710.056      770.568      417.229        0.171        0.095       38.704       13.357        0.119      338.945       11.942      861.464
12/05/2014  14:57:00       42.483      -39.780       11.507       46.288       48.887       33.043     2142.568     2389.915     1091.856        0.457        0.281       58.200       32.839        0.318      338.948       11.947      861.441
12/05/2014  14:58:00       20.536       -1.215       32.347       30.093       28.851       26.302      905.576      832.372      691.772        0.195        0.121       20.572       20.177        0.962      338.955       11.957      861.428
12/05/2014  14:59:00       -3.027       11.308       80.890       53.065       67.383       41.549     2815.872     4540.416     1726.280        0.788        0.454       11.707       33.182        8.034      338.932       11.920      861.416
12/05/2014  15:00:00        4.353      -12.170       33.444       38.940       58.137       36.451     1516.305     3379.957     1328.677        0.375        0.311       12.925       35.146        7.395      338.955       11.958      861.421
12/05/2014  15:01:00       59.827      -56.590       24.536       68.504       89.708       57.356     4692.843     8047.573     3289.709        1.170        0.802       82.351       60.865        0.546      338.847       11.775      861.415
12/05/2014  15:02:00       52.082      -33.513       38.495       51.057       57.430       45.737     2606.780     3298.155     2091.864        0.666        0.400       61.933       35.721        0.333      338.871       11.817      861.396
12/05/2014  15:03:00       54.625      -25.734       42.453       92.189      119.631       79.266     8498.760    14311.640     6283.105        1.727        1.455       60.384       96.174        2.537      338.833       11.751      861.379
12/05/2014  15:04:00       92.234      -22.713       53.772      109.872      152.848       93.954    12071.865    23362.476     8827.301        2.808        2.213       94.989      117.406        1.528      338.770       11.647      861.365
12/05/2014  15:05:00       42.498      -30.214       47.071       80.711       87.629       57.850     6514.224     7678.818     3346.576        1.123        0.877       52.144       63.161        1.467      338.791       11.682      861.378
12/05/2014  15:06:00      -23.405      -10.755       32.163       37.983       34.289       20.254     1442.677     1175.736      410.216        0.236        0.151       25.758       11.465        0.198      338.916       11.893      861.388
12/05/2014  15:07:00        8.787      -22.899       35.745       28.594       61.058       37.388      817.636     3728.074     1397.831        0.391        0.297       24.527       40.140        2.678      338.901       11.867      861.395
12/05/2014  15:08:00        4.115      -77.465       34.342       45.918       49.760       39.352     2108.440     2476.094     1548.564        0.666        0.307       77.574       21.376        0.076      338.857       11.792      861.388
12/05/2014  15:09:00       25.156      -80.454       10.737       48.664       88.114       49.259     2368.225     7764.157     2426.439        0.989        0.628       84.295       45.628        0.293      338.752       11.617      861.375
12/05/2014  15:10:00        5.441      -46.001       46.636       44.507       75.572       49.907     1980.844     5711.141     2490.730        0.725        0.509       46.321       33.149        0.512      338.803       11.702      861.364
12/05/2014  15:11:00      -11.524       27.391       31.915       20.490       34.797       22.952      419.839     1210.807      526.773        0.203        0.108       29.716       18.513        0.388      338.818       11.728      861.373
12/05/2014  15:12:00       47.291      -46.084       18.090       51.591       63.840       37.885     2661.594     4075.549     1435.270        0.643        0.409       66.031       38.691        0.343      338.783       11.670      861.384
12/05/2014  15:13:00       38.894        8.218       49.474       53.516       48.886       41.524     2863.989     2389.875     1724.228        0.550        0.349       39.752       39.056        0.965      338.742       11.599      861.387
12/05/2014  15:14:00       43.394      -46.946       23.449       60.332       72.690       58.237     3639.983     5283.765     3391.522        0.847        0.616       63.929       56.066        0.769      338.754       11.621      861.378
12/05/2014  15:15:00        0.430       16.643       52.705       25.656       40.272       26.978      658.236     1621.856      727.800        0.303        0.150       16.649       27.135        2.656      338.809       11.711      861.386
12/05/2014  15:16:00       32.311        3.085       70.339       45.036       90.505       51.918     2028.197     8191.187     2695.433        0.946        0.646       32.458       48.753        2.256      338.758       11.627      861.372
12/05/2014  15:17:00      108.350     -114.282        7.067       88.428       72.967       50.283     7819.476     5324.129     2528.388        2.026        0.784      157.480       52.172        0.110      338.751       11.614      861.370
12/05/2014  15:18:00       77.124     -103.391       -4.290       70.656       68.050       47.828     4992.244     4630.867     2287.502        1.428        0.596      128.988       46.851        0.132      338.734       11.586      861.369
12/05/2014  15:19:00       11.466       31.626       75.659       61.856       44.201       33.846     3826.134     1953.697     1145.540        0.689        0.346       33.640       33.761        1.007      338.730       11.579      861.366
12/05/2014  15:20:00       44.830      -81.205        5.449       43.250       53.075       40.178     1870.541     2816.963     1614.287        0.747        0.315       92.758       35.268        0.145      338.813       11.720      861.353
12/05/2014  15:21:00       21.771      -23.542       48.278       43.427       64.572       42.363     1885.934     4169.548     1794.611        0.560        0.393       32.066       40.304        1.580      338.845       11.773      861.348
12/05/2014  15:22:00      154.481     -141.215      -32.240       90.203       83.750       49.457     8136.594     7014.070     2446.018        3.122        0.880      209.299       57.909        0.077      338.671       11.478      861.349
12/05/2014  15:23:00      125.788     -135.612      -32.269       46.167       53.928       29.969     2131.348     2908.252      898.144        2.059        0.297      184.968       27.649        0.022      338.676       11.489      861.361
12/05/2014  15:24:00       22.397       22.317       83.175       47.324       65.833       43.366     2239.563     4334.013     1880.601        0.818        0.423       31.618       35.020        1.227      338.705       11.538      861.370
12/05/2014  15:25:00       97.868     -110.751      -12.659       61.065       85.646       52.212     3728.951     7335.177     2726.083        1.789        0.690      147.797       49.442        0.112      338.592       11.347      861.403
12/05/2014  15:26:00       68.747      -52.295       -8.758       72.057       72.525       47.007     5192.282     5259.830     2209.628        1.010        0.633       86.377       56.526        0.428      338.623       11.399      861.416
12/05/2014  15:27:00       13.146      -80.275       26.249       56.027       64.814       44.312     3139.047     4200.802     1963.534        0.830        0.465       81.344       38.776        0.227      338.734       11.587      861.423
12/05/2014  15:28:00       43.820      -70.631       20.885       65.877       82.624       53.638     4339.781     6826.767     2877.087        1.069        0.702       83.120       60.655        0.532      338.688       11.509      861.434
12/05/2014  15:29:00       61.944     -112.149        3.337       80.517       55.292       44.378     6483.058     3057.176     1969.425        1.397        0.575      128.119       41.335        0.104      338.691       11.514      861.445
12/05/2014  15:30:00      112.371     -133.262      -10.665       61.383       67.385       40.135     3767.920     4540.726     1610.849        2.021        0.496      174.316       45.768        0.069      338.662       11.464      861.442
12/05/2014  15:31:00       45.902      -69.385        8.140       62.130       65.270       40.517     3860.129     4260.145     1641.588        0.837        0.488       83.194       42.238        0.258      338.669       11.478      861.449
12/05/2014  15:32:00       53.990       23.396       72.032       61.598       75.152       48.155     3794.309     5647.831     2318.933        1.020        0.588       58.842       53.992        0.842      338.683       11.499      861.445
12/05/2014  15:33:00      126.697     -121.257      -14.985       96.059      110.458       67.423     9227.276    12200.982     4545.876        2.847        1.299      175.373       83.151        0.225      338.634       11.418      861.430
12/05/2014  15:34:00      130.382     -119.192      -43.725       70.983       86.800       52.194     5038.520     7534.224     2724.243        2.420        0.765      176.653       55.204        0.098      338.614       11.384      861.439
12/05/2014  15:35:00       14.246        1.962       62.241       45.492       56.297       39.964     2069.497     3169.342     1597.157        0.546        0.342       14.380       41.089        8.164      338.665       11.470      861.441
12/05/2014  15:36:00       64.123      -58.389       -5.437       80.619       84.023       67.558     6499.455     7059.783     4564.077        1.283        0.906       86.723       58.896        0.461      338.625       11.403      861.443
12/05/2014  15:37:00       54.599      -16.180       41.827       69.375      109.445       78.428     4812.844    11978.310     6150.888        1.396        1.147       56.946       89.184        2.453      338.622       11.398      861.443
12/05/2014  15:38:00      -11.586       38.882       89.670       23.591       65.608       38.723      556.520     4304.437     1499.457        0.802        0.318       40.572       37.450        0.852      338.651       11.447      861.453
12/05/2014  15:39:00       28.928      -74.420        7.477       64.305       76.398       38.485     4135.140     5836.712     1481.091        0.894        0.573       79.845       42.701        0.286      338.698       11.526      861.444
12/05/2014  15:40:00       29.056       -9.335       38.435       51.717       71.888       43.156     2674.624     5167.942     1862.399        0.605        0.485       30.518       37.210        1.487      338.689       11.510      861.416
12/05/2014  15:41:00        5.802       39.516       86.690       33.821       44.854       23.578     1143.894     2011.924      555.910        0.641        0.186       39.940       19.358        0.235      338.638       11.424      861.405
12/05/2014  15:42:00      103.713      -64.339        9.989       57.780       59.375       31.394     3338.491     3525.396      985.571        1.142        0.392      122.049       30.981        0.064      338.604       11.368      861.401
12/05/2014  15:43:00       10.763        5.588       50.555       30.564       57.544       34.674      934.180     3311.317     1202.291        0.407        0.272       12.127       36.282        8.951      338.681       11.497      861.402
12/05/2014  15:44:00        3.142       17.129       48.029       40.976       41.563       28.056     1679.027     1727.502      787.114        0.340        0.210       17.414       30.758        3.120      338.665       11.470      861.411
12/05/2014  15:45:00       -6.732       16.999       51.125       14.398       40.962       21.564      207.308     1677.915      465.003        0.265        0.118       18.284       24.555        1.804      338.713       11.550      861.411
12/05/2014  15:46:00       46.588      -52.879       12.541       56.237       68.523       45.632     3162.559     4695.387     2082.259        0.753        0.497       70.474       37.770        0.287      338.692       11.516      861.418
12/05/2014  15:47:00        7.452      -59.674        5.210       38.696       41.699       28.825     1497.347     1738.769      830.879        0.385        0.203       60.138       21.747        0.131      338.690       11.513      861.434
12/05/2014  15:48:00       66.817     -115.714      -16.190       68.400       63.612       29.703     4678.540     4046.443      882.242        1.386        0.480      133.619       26.295        0.039      338.696       11.521      861.453
12/05/2014  15:49:00       83.217      -98.900        8.386       70.110       72.303       40.029     4915.370     5227.781     1602.334        1.426        0.587      129.252       41.648        0.104      338.650       11.443      861.469
12/05/2014  15:50:00       81.878      -16.963       33.202       71.076       92.768       54.703     5051.748     8605.919     2992.447        1.237        0.833       83.617       64.475        0.595      338.583       11.333      861.455
12/05/2014  15:51:00       11.202      -34.130       21.860       34.359       64.666       31.056     1180.561     4181.728      964.446        0.405        0.316       35.921       41.746        1.351      338.710       11.546      861.457
12/05/2014  15:52:00       -5.231       36.027       62.151       19.355       28.957       22.008      374.625      838.537      484.348        0.344        0.085       36.405       13.270        0.133      338.646       11.440      861.466
12/05/2014  15:53:00       -1.381       36.508       53.244       34.566       31.184       21.679     1194.783      972.464      469.972        0.340        0.132       36.535       21.868        0.358      338.648       11.441      861.462
12/05/2014  15:54:00      -12.974      -21.547       18.784       24.419       44.183       25.023      596.307     1952.162      626.154        0.208        0.159       25.151       29.831        1.407      338.686       11.505      861.455
12/05/2014  15:55:00      -10.780       25.447       42.900       18.958       24.857       33.174      359.391      617.874     1100.543        0.234        0.104       27.636       22.536        0.665      338.665       11.468      861.452
12/05/2014  15:56:00      -14.183       13.306       50.131       19.364       27.991       23.397      374.964      783.521      547.422        0.230        0.085       19.448       17.617        0.821      338.684       11.503      861.451
12/05/2014  15:57:00      -13.301      -77.784       -1.387       40.554       53.623       22.040     1644.593     2875.379      485.777        0.562        0.250       78.913       19.255        0.060      338.716       11.556      861.472
12/05/2014  15:58:00       61.910      -40.178       33.895       65.916       84.196       40.145     4344.950     7088.943     1611.644        0.982        0.652       73.805       54.396        0.543      338.629       11.410      861.488
12/05/2014  15:59:00       73.554      -71.079        8.667       64.143       46.644       29.534     4114.375     2175.620      872.262        0.885        0.358      102.286       28.722        0.079      338.682       11.498      861.495
12/05/2014  16:00:00       10.363      -43.404       24.335       42.394       51.518       32.458     1797.210     2654.064     1053.534        0.404        0.275       44.624       38.836        0.757      338.686       11.505      861.482
12/05/2014  16:01:00       -6.042       -9.965       33.687       31.087       37.335       26.697      966.405     1393.886      712.717        0.217        0.154       11.654       22.922        3.869      338.634       11.419      861.490
12/05/2014  16:02:00       58.210     -135.047      -11.207       60.805       70.906       43.856     3697.214     5027.636     1923.382        1.620        0.532      147.058       36.772        0.063      338.613       11.383      861.501
12/05/2014  16:03:00       85.847     -141.394       16.159       61.212      108.679       55.146     3746.953    11811.188     3041.035        2.311        0.930      165.415       54.073        0.107      338.598       11.357      861.506
12/05/2014  16:04:00       22.652      -38.988       26.229       69.446       58.617       39.797     4822.725     3435.972     1583.771        0.628        0.492       45.090       31.767        0.496      338.516       11.222      861.498
12/05/2014  16:05:00       52.319      -76.555       16.625       59.926       93.584       49.756     3591.074     8758.048     2475.680        1.185        0.741       92.725       58.052        0.392      338.504       11.199      861.496
12/05/2014  16:06:00       75.748      -70.214       25.642       62.241       77.218       44.520     3873.984     5962.667     1982.051        1.157        0.591      103.285       47.706        0.213      338.535       11.251      861.497
12/05/2014  16:07:00        0.370      -32.975        8.905       37.492       44.751       25.011     1405.617     2002.660      625.561        0.260        0.202       32.977       24.982        0.574      338.570       11.311      861.500
12/05/2014  16:08:00       64.348      -95.271       -5.730       46.562       45.147       29.377     2168.005     2038.272      863.028        0.916        0.253      114.966       20.756        0.033      338.551       11.279      861.502
12/05/2014  16:09:00       44.995      -44.587       21.018       44.957       71.745       41.022     2021.157     5147.413     1682.794        0.665        0.443       63.345       45.427        0.514      338.506       11.204      861.482
12/05/2014  16:10:00       43.788      -58.208       21.257       54.720       95.185       44.636     2994.305     9060.125     1992.358        0.990        0.702       72.839       44.506        0.373      338.525       11.234      861.473
12/05/2014  16:11:00       47.976      -44.826       11.610       70.552       69.335       33.178     4977.576     4807.312     1100.748        0.766        0.544       65.659       37.092        0.319      338.470       11.144      861.464
12/05/2014  16:12:00       17.599      -30.076       35.813       33.339       53.125       37.607     1111.456     2822.292     1414.309        0.392        0.267       34.847       22.491        0.417      338.479       11.159      861.456
12/05/2014  16:13:00      110.282     -106.144        1.400       84.933       92.688       44.102     7213.604     8591.119     1944.984        2.059        0.887      153.064       60.636        0.157      338.500       11.192      861.465
12/05/2014  16:14:00       65.551      -66.330       22.099       73.161       78.369       52.251     5352.495     6141.737     2730.177        1.170        0.711       93.255       60.777        0.425      338.502       11.197      861.456
12/05/2014  16:15:00       99.161     -109.486        3.274       72.300      104.272       48.286     5227.292    10872.605     2331.512        2.013        0.922      147.716       54.393        0.136      338.405       11.031      861.435
12/05/2014  16:16:00       79.872      -56.369        3.813       61.943       54.592       48.727     3836.959     2980.325     2374.282        0.938        0.460       97.760       34.664        0.126      338.397       11.019      861.438
12/05/2014  16:17:00      -11.603      -32.431       13.740       37.409       35.568       27.202     1399.426     1265.115      739.949        0.239        0.170       34.444       20.674        0.360      338.459       11.126      861.462
12/05/2014  16:18:00       41.892      -30.963       34.518       47.209       59.256       39.541     2228.669     3511.230     1563.485        0.560        0.365       52.093       38.304        0.541      338.437       11.088      861.466
12/05/2014  16:19:00       27.084      -21.506       36.233       51.956       77.175       44.027     2699.423     5956.026     1938.398        0.655        0.530       34.584       44.987        1.692      338.423       11.063      861.477
12/05/2014  16:20:00        3.280       -2.970       42.211       42.437       59.198       37.957     1800.861     3504.351     1440.738        0.427        0.337        4.425       33.470       57.217      338.405       11.033      861.495
12/05/2014  16:21:00       16.412      -22.847        9.969       30.969       60.345       28.968      959.049     3641.483      839.141        0.316        0.272       28.131       37.058        1.735      338.449       11.109      861.509
12/05/2014  16:22:00       17.138      -47.645       15.267       38.488       45.609       31.910     1481.357     2080.204     1018.236        0.369        0.229       50.633       25.825        0.260      338.455       11.118      861.536
12/05/2014  16:23:00      -11.447       12.196       39.738       19.115       33.412       23.137      365.375     1116.392      535.322        0.194        0.101       16.727       21.620        1.671      338.382       10.996      861.558
12/05/2014  16:24:00       46.884      -36.549       24.743       63.003       78.096       47.043     3969.357     6099.027     2213.066        0.821        0.614       59.447       58.988        0.985      338.447       11.106      861.574
12/05/2014  16:25:00      -18.594      -41.618       14.806       42.212       36.130       28.574     1781.823     1305.396      816.447        0.310        0.195       45.583       21.547        0.223      338.432       11.079      861.606
12/05/2014  16:26:00       26.995      -68.445       -6.680       76.204       55.067       31.877     5806.984     3032.323     1016.138        0.765        0.493       73.576       25.647        0.122      338.515       11.219      861.619
12/05/2014  16:27:00       -0.976        8.297       43.774       40.071       38.064       24.242     1605.680     1448.886      587.656        0.281        0.182        8.354       29.496       12.467      338.441       11.094      861.627
12/05/2014  16:28:00       62.493      -32.633        7.902       47.100       47.626       29.547     2218.444     2268.250      872.998        0.520        0.268       70.501       33.220        0.222      338.460       11.127      861.631
12/05/2014  16:29:00       31.787      -46.838       16.265       28.929       70.940       28.047      836.871     5032.497      786.652        0.506        0.333       56.606       26.509        0.219      338.528       11.239      861.629
12/05/2014  16:30:00       18.972       19.672       50.640       41.297       52.664       45.026     1705.454     2773.494     2027.303        0.491        0.325       27.330       41.433        2.298      338.406       11.036      861.622
12/05/2014  16:31:00      -14.740       33.273       75.573       19.000       47.856       34.011      361.018     2290.213     1156.739        0.542        0.190       36.392       32.331        0.789      338.433       11.081      861.617
12/05/2014  16:32:00       -7.332       23.614       48.375       35.757       44.011       35.441     1278.596     1936.996     1256.039        0.371        0.224       24.726       27.582        1.244      338.364       10.964      861.623
12/05/2014  16:33:00       16.765       37.640       70.348       45.846       51.845       47.640     2101.900     2687.911     2269.553        0.685        0.353       41.205       39.137        0.902      338.379       10.991      861.639
12/05/2014  16:34:00       58.645      -58.065       11.065       43.534       81.314       36.298     1895.213     6611.931     1317.581        0.838        0.491       82.528       48.610        0.347      338.429       11.075      861.650
12/05/2014  16:35:00      112.759     -122.136      -13.008       37.200       45.462       29.412     1383.815     2066.795      865.045        1.606        0.216      166.228       18.287        0.012      338.422       11.062      861.646
12/05/2014  16:36:00       61.254      -36.815       17.913       36.108       73.754       46.063     1303.773     5439.589     2121.760        0.714        0.443       71.466       49.311        0.476      338.358       10.956      861.643
12/05/2014  16:37:00       86.843      -63.994       13.010       31.674       44.236       28.513     1003.221     1956.839      813.009        0.779        0.189      107.875       28.200        0.068      338.419       11.057      861.660
12/05/2014  16:38:00       12.582       31.131       58.459       29.409       32.418       20.282      864.894     1050.908      411.340        0.344        0.116       33.577       18.958        0.319      338.375       10.981      861.668
12/05/2014  16:39:00       94.116      -58.472        0.671       49.033       62.842       34.476     2404.273     3949.108     1188.571        0.991        0.377      110.801       44.766        0.163      338.366       10.969      861.684
12/05/2014  16:40:00        9.105       42.931       77.583       40.448       42.738       29.561     1636.058     1826.499      873.823        0.614        0.217       43.886       25.399        0.335      338.342       10.930      861.689
12/05/2014  16:41:00       99.931      -85.431      -10.444       46.693       57.103       29.721     2180.210     3260.767      883.353        1.186        0.316      131.471       29.714        0.051      338.353       10.947      861.689
12/05/2014  16:42:00       50.028       -0.249       30.446       43.339       54.825       31.909     1878.246     3005.830     1018.174        0.466        0.295       50.029       37.708        0.568      338.395       11.018      861.688
12/05/2014  16:43:00       84.781      -54.720       17.202       37.622       49.268       35.221     1415.398     2427.334     1240.493        0.778        0.254      100.906       30.985        0.094      338.374       10.983      861.681
12/05/2014  16:44:00       25.375       -5.472       28.654       24.114       31.454       23.520      581.509      989.337      553.198        0.181        0.106       25.958       18.618        0.514      338.362       10.961      861.665
12/05/2014  16:45:00       25.218        3.115       31.729       32.325       54.814       27.907     1044.894     3004.584      778.786        0.324        0.241       25.410       32.237        1.610      338.352       10.946      861.661
12/05/2014  16:46:00       15.995       30.931       35.031       26.988       39.149       19.114      728.344     1532.673      365.363        0.253        0.131       34.822       18.314        0.277      338.315       10.883      861.659
12/05/2014  16:47:00        4.960       -6.561       35.292       24.209       38.388       19.308      586.071     1473.675      372.780        0.187        0.122        8.225       11.366        1.909      338.333       10.913      861.653
12/05/2014  16:48:00       26.522       34.662       39.682       28.859       24.947       22.428      832.860      622.375      503.024        0.272        0.098       43.645       14.124        0.105      338.329       10.906      861.650
12/05/2014  16:49:00       51.476       58.756       69.339       49.338       32.805       22.432     2434.239     1076.178      503.191        0.746        0.201       78.115       21.290        0.074      338.296       10.851      861.635
12/05/2014  16:50:00       78.066       86.784       75.831       49.267       44.490       35.904     2427.201     1979.387     1289.079        1.253        0.285      116.729       29.433        0.064      338.293       10.847      861.604
12/05/2014  16:51:00      108.091       90.404       65.002       73.778       36.973       44.767     5443.207     1367.036     2004.094        1.645        0.441      140.913       39.525        0.079      338.275       10.816      861.590
12/05/2014  16:52:00       86.314       87.083       84.726       42.655       40.391       34.210     1819.488     1631.453     1170.321        1.342        0.231      122.611       17.577        0.021      338.245       10.766      861.575
12/05/2014  16:53:00       94.477       55.794       43.676       61.873       52.971       46.511     3828.282     2805.934     2163.284        1.137        0.440      109.722       36.100        0.108      338.180       10.656      861.552
12/05/2014  16:54:00      101.852       56.395       84.528       57.375       57.335       42.787     3291.911     3287.278     1830.755        1.455        0.420      116.423       40.040        0.118      338.184       10.664      861.547
12/05/2014  16:55:00      118.463       87.492       79.582       51.687       49.341       45.064     2671.574     2434.516     2030.788        1.758        0.357      147.270       29.750        0.041      338.164       10.627      861.543
12/05/2014  16:56:00      136.523       66.375       47.527       73.489       58.894       61.611     5400.607     3468.459     3795.864        1.898        0.633      151.803       41.336        0.074      338.155       10.614      861.526
12/05/2014  16:57:00      182.519       60.711       10.937       85.441       59.925       49.119     7300.165     3591.014     2412.686        2.521        0.665      192.351       17.196        0.008      338.092       10.507      861.491
12/05/2014  16:58:00      199.151       60.036        2.256       80.434       68.312       48.508     6469.558     4666.508     2353.047        2.838        0.674      208.003       23.659        0.013      338.108       10.531      861.470
12/05/2014  16:59:00      140.408       53.907       24.186       67.679       52.287       47.088     4580.506     2733.905     2217.243        1.637        0.477      150.400       38.641        0.066      338.104       10.529      861.471
12/05/2014  17:00:00      102.526       27.486       22.432       60.464       48.293       40.267     3655.839     2332.180     1621.469        0.969        0.380      106.146       26.004        0.060      338.079       10.486      861.485
12/05/2014  17:01:00       96.228       29.330       44.059       66.708       49.960       40.295     4449.961     2495.975     1623.673        1.031        0.428      100.599       13.518        0.018      338.123       10.559      861.491
12/05/2014  17:02:00       87.117     -108.030        7.822       42.860       63.123       40.030     1837.013     3984.502     1602.410        1.337        0.371      138.780       45.330        0.107      338.232       10.743      861.500
12/05/2014  17:03:00       51.407      -59.348       18.233       53.230       54.732       40.199     2833.396     2995.545     1615.967        0.697        0.372       78.516       41.972        0.286      338.312       10.877      861.533
12/05/2014  17:04:00       90.876      -26.531       33.072       75.247       92.062       47.354     5662.135     8475.363     2242.446        1.321        0.819       94.670       53.143        0.315      338.300       10.859      861.548
12/05/2014  17:05:00       40.622      -21.873       21.519       46.163       68.482       48.604     2131.028     4689.780     2362.325        0.589        0.459       46.136       32.832        0.506      338.377       10.987      861.545
12/05/2014  17:06:00       20.461      -13.833       37.612       34.330       46.004       32.320     1178.525     2116.381     1044.612        0.318        0.217       24.699       30.697        1.545      338.428       11.072      861.583
12/05/2014  17:07:00       37.716      -46.408       26.917       61.012       71.449       51.270     3722.500     5104.953     2628.642        0.788        0.573       59.802       52.606        0.774      338.524       11.234      861.610
12/05/2014  17:08:00       52.296      -30.181       17.554       60.769       65.498       48.423     3692.834     4289.939     2344.777        0.714        0.516       60.380       55.714        0.851      338.430       11.076      861.611
12/05/2014  17:09:00       54.049      -50.080       29.741       43.062       47.112       30.265     1854.294     2219.551      915.969        0.565        0.249       73.684       28.004        0.144      338.375       10.983      861.613
12/05/2014  17:10:00       45.243      -87.801       23.586       44.190       75.240       34.050     1952.723     5661.065     1159.413        0.954        0.439       98.772       37.640        0.145      338.400       11.024      861.608
12/05/2014  17:11:00       65.224      -75.944       13.682       51.526       59.329       32.045     2654.884     3519.884     1026.909        0.870        0.360      100.108       33.333        0.111      338.382       10.998      861.625
12/05/2014  17:12:00       84.520      -59.237       10.740       46.576       50.299       26.658     2169.355     2529.964      710.634        0.809        0.270      103.211       19.069        0.034      338.367       10.970      861.629
12/05/2014  17:13:00       59.138     -106.463       14.446       53.298       53.185       34.016     2840.669     2828.686     1157.082        1.093        0.341      121.786       35.886        0.087      338.535       11.253      861.619
12/05/2014  17:14:00      -12.670      -21.005       13.651       33.777       27.681       22.582     1140.909      766.250      509.957        0.160        0.121       24.530       17.115        0.487      338.447       11.105      861.622
12/05/2014  17:15:00      -37.625      -17.587       -1.864       39.683       30.760       25.568     1574.720      946.190      653.739        0.245        0.159       41.532       25.855        0.388      338.436       11.086      861.604
12/05/2014  17:16:00       24.525       14.214       47.399       39.010       36.801       28.001     1521.757     1354.301      784.035        0.335        0.183       28.347       26.032        0.843      338.442       11.096      861.600
12/05/2014  17:17:00      100.784      -87.186       18.494       40.315       46.155       37.004     1625.285     2130.316     1369.283        1.161        0.256      133.262       15.232        0.013      338.485       11.166      861.580
12/05/2014  17:18:00       15.724       35.450       47.731       29.148       51.409       25.751      849.612     2642.905      663.120        0.397        0.208       38.780       29.679        0.586      338.419       11.058      861.574
12/05/2014  17:19:00       32.112      -27.379       25.405       24.254       56.702       28.238      588.265     3215.114      797.394        0.351        0.230       42.199       37.113        0.773      338.430       11.075      861.562
12/05/2014  17:20:00       32.166      -27.749       13.565       28.730       50.676       24.202      825.389     2568.075      585.726        0.298        0.199       42.482       31.966        0.566      338.449       11.107      861.555
12/05/2014  17:21:00       66.309      -79.490       12.746       79.864       66.376       41.879     6378.198     4405.782     1753.845        1.171        0.627      103.516       47.410        0.210      338.460       11.124      861.566
12/05/2014  17:22:00       78.538     -101.913       14.056       61.844       67.118       39.915     3824.707     4504.833     1593.167        1.334        0.496      128.664       41.689        0.105      338.359       10.956      861.560
12/05/2014  17:23:00       61.106     -141.605       -0.525       48.315       62.334       36.417     2334.294     3885.489     1326.227        1.566        0.377      154.227       35.475        0.053      338.471       11.143      861.541
12/05/2014  17:24:00        8.348      -24.292       18.380       30.935       55.508       34.940      957.001     3081.134     1220.826        0.313        0.263       25.686       34.435        1.797      338.431       11.078      861.540
12/05/2014  17:25:00       14.919      -64.570      -13.646       40.204       42.507       24.656     1616.383     1806.806      607.917        0.430        0.202       66.271       29.480        0.198      338.399       11.024      861.539
12/05/2014  17:26:00       -0.766      -22.632        7.306       36.048       24.992       21.430     1299.448      624.594      459.257        0.147        0.119       22.644       12.287        0.294      338.333       10.914      861.546
12/05/2014  17:27:00      -81.991       -7.887       -0.143       33.686       29.953       15.913     1134.727      897.160      253.225        0.453        0.114       82.370       15.964        0.038      338.149       10.605      861.547
12/05/2014  17:28:00      -76.002       21.706        0.330       36.525       34.947       24.003     1334.069     1221.290      576.158        0.469        0.157       79.041       17.156        0.047      338.100       10.521      861.540
12/05/2014  17:29:00      -40.891       35.518       -8.543       30.487       38.795       21.464      929.472     1505.039      460.711        0.295        0.145       54.163       20.517        0.143      338.112       10.542      861.537
12/05/2014  17:30:00       -0.324       42.261        1.659       13.839       41.804       18.013      191.513     1747.615      324.485        0.203        0.113       42.263       18.498        0.192      338.218       10.720      861.545
12/05/2014  17:31:00        3.094      101.228      -17.406       20.450       16.928       11.529      418.201      286.567      132.911        0.570        0.042      101.275        6.017        0.004      338.120       10.555      861.561
12/05/2014  17:32:00      -23.371       51.320       -3.697       22.531       26.259       14.360      507.631      689.537      206.212        0.230        0.070       56.391        9.697        0.030      338.140       10.590      861.571
12/05/2014  17:33:00        3.352       84.596      -15.502       17.427       30.017       10.969      303.717      901.046      120.324        0.437        0.066       84.662       14.526        0.029      338.123       10.560      861.576
12/05/2014  17:34:00       -1.587      145.185      -27.298       18.680       23.645       11.418      348.938      559.091      130.368        1.143        0.052      145.194        8.862        0.004      338.065       10.463      861.578
12/05/2014  17:35:00       -1.170      163.492      -25.123       19.340       20.393       12.104      374.028      415.878      146.508        1.415        0.047      163.496       10.837        0.004      338.025       10.397      861.592
12/05/2014  17:36:00       -4.924      177.540      -23.101       29.861       22.172       11.464      891.697      491.579      131.423        1.680        0.076      177.608       13.437        0.006      338.039       10.421      861.612
12/05/2014  17:37:00        2.921      111.668       -5.032       26.696       56.371       37.152      712.657     3177.663     1380.264        0.889        0.264      111.706       34.619        0.096      337.940       10.254      861.626
12/05/2014  17:38:00       25.471      159.508      -21.295       30.101       36.946       26.571      906.067     1365.043      706.015        1.476        0.149      161.528       23.649        0.021      337.920       10.221      861.634
12/05/2014  17:39:00       11.594      189.372      -24.157       41.525       60.005       31.889     1724.360     3600.644     1016.939        2.146        0.317      189.727       28.684        0.023      337.875       10.141      861.630
12/05/2014  17:40:00       43.463       68.627        4.220       68.547       46.163       36.319     4698.759     2131.036     1319.082        0.738        0.407       81.232       26.118        0.103      337.822       10.056      861.621
12/05/2014  17:41:00       56.046      130.546       -4.744       57.441       67.832       46.735     3299.439     4601.216     2184.114        1.514        0.504      142.068       44.413        0.098      337.828       10.065      861.621
12/05/2014  17:42:00       47.954       65.276        6.635       46.812       41.075       28.699     2191.396     1687.140      823.632        0.565        0.235       80.997       20.914        0.067      337.798       10.016      861.620
12/05/2014  17:43:00       71.226       76.644        1.553       41.286       44.164       40.456     1704.563     1950.444     1636.670        0.812        0.265      104.630       33.382        0.102      337.808       10.033      861.619
12/05/2014  17:44:00       59.235      112.276       -5.351       57.982       76.322       41.587     3361.856     5825.020     1729.467        1.353        0.546      126.943       40.265        0.101      337.805       10.026      861.611
12/05/2014  17:45:00       98.177       99.538       17.382       76.213       59.791       53.031     5808.458     3575.020     2812.324        1.602        0.610      139.809       38.269        0.075      337.790       10.001      861.611
12/05/2014  17:46:00       29.133      107.948       -4.894       50.476       53.813       30.171     2547.848     2895.791      910.302        0.944        0.318      111.810       28.824        0.066      337.784        9.990      861.622
12/05/2014  17:47:00      110.960       97.941       10.180       78.413       46.116       51.240     6148.567     2126.675     2625.487        1.645        0.545      148.001       29.007        0.038      337.798       10.015      861.637
12/05/2014  17:48:00      124.103       77.245       17.761       55.881       48.749       31.557     3122.667     2376.509      995.836        1.409        0.325      146.179       19.649        0.018      337.767        9.962      861.655
12/05/2014  17:49:00       73.160       55.670        8.236       33.696       26.804       29.636     1135.430      718.443      878.303        0.563        0.137       91.933       20.233        0.048      337.781        9.987      861.674
12/05/2014  17:50:00       55.661       41.235       11.412       16.095       21.938       17.935      259.059      481.277      321.663        0.300        0.053       69.271        8.001        0.013      337.780        9.985      861.671
12/05/2014  17:51:00       73.897       51.269       14.799       27.755       25.410       19.694      770.334      645.645      387.863        0.506        0.090       89.940       11.601        0.017      337.771        9.967      861.663
12/05/2014  17:52:00       72.211       43.334        7.338       19.159       16.156       19.970      367.086      261.017      398.816        0.409        0.051       84.216        9.786        0.014      337.750        9.935      861.655
12/05/2014  17:53:00      119.050       81.967       26.096       49.335       34.337       20.148     2433.919     1179.005      405.934        1.279        0.201      144.539       20.310        0.020      337.759        9.949      861.648
12/05/2014  17:54:00       88.384       52.089       12.525       29.349       22.884       23.135      861.361      523.655      535.227        0.630        0.096      102.592       12.991        0.016      337.730        9.904      861.635
12/05/2014  17:55:00       50.584       19.281        3.150       21.270       11.877       16.227      452.408      141.071      263.315        0.190        0.043       54.134        9.780        0.033      337.722        9.889      861.645
12/05/2014  17:56:00       16.639        5.623       12.607       21.025       11.897       10.351      442.032      141.539      107.136        0.058        0.035       17.563        8.838        0.253      337.727        9.897      861.660
12/05/2014  17:57:00       84.471       49.912       34.347       24.576       22.691       15.421      603.959      514.867      237.810        0.608        0.068       98.115       10.648        0.012      337.738        9.915      861.669
12/05/2014  17:58:00      118.980       67.918       32.423       17.468       19.444       17.613      305.127      378.061      310.203        1.041        0.050      137.001        7.991        0.003      337.751        9.935      861.665
12/05/2014  17:59:00      107.857       55.356       18.569       15.206       17.131       17.170      231.233      293.460      294.815        0.793        0.041      121.232        6.905        0.003      337.742        9.923      861.658
12/05/2014  18:00:00       75.808       65.892       39.013       47.232       34.911       35.927     2230.835     1218.810     1290.780        0.817        0.237      100.442       28.436        0.080      337.845       10.095      861.656
12/05/2014  18:01:00       76.410       99.896       71.102       50.434       32.796       31.743     2543.546     1075.610     1007.627        1.275        0.231      125.768       23.943        0.036      337.809       10.036      861.664
12/05/2014  18:02:00       48.323      105.384       84.387       39.550       35.243       28.238     1564.197     1242.095      797.380        1.208        0.180      115.935       23.268        0.040      337.761        9.954      861.670
12/05/2014  18:03:00       87.339       55.690       50.540       34.055       34.130       32.532     1159.756     1164.859     1058.311        0.833        0.169      103.583       24.082        0.054      337.726        9.894      861.673
12/05/2014  18:04:00       64.989       30.040       25.769       39.909       35.036       27.670     1592.740     1227.508      765.637        0.469        0.179       71.596       20.568        0.083      337.729        9.901      861.674
12/05/2014  18:05:00       66.340       42.751       12.437       38.165       28.217       24.809     1456.574      796.175      615.474        0.463        0.143       78.922       21.708        0.076      337.728        9.897      861.673
12/05/2014  18:06:00       96.074       56.414        4.835       27.989       22.818       18.325      783.358      520.656      335.818        0.704        0.082      111.412        8.551        0.006      337.701        9.850      861.676
12/05/2014  18:07:00       86.311       51.737       12.479       15.107       21.756       14.980      228.217      473.308      224.400        0.560        0.046      100.629        5.000        0.002      337.703        9.856      861.684
12/05/2014  18:08:00       76.664       46.378       13.408       17.739       19.619       14.943      314.654      384.904      223.296        0.457        0.046       89.600        9.653        0.012      337.676        9.811      861.678
12/05/2014  18:09:00       85.250       53.451       10.017       30.558       29.749       22.774      933.764      884.978      518.675        0.628        0.117      100.621       17.417        0.030      337.704        9.858      861.684
12/05/2014  18:10:00       63.201       70.225       -0.883       23.764       24.812       22.310      564.717      615.627      497.739        0.530        0.084       94.477       15.989        0.029      337.747        9.929      861.687
12/05/2014  18:11:00       51.224       36.292        4.778       28.673       25.329       17.492      822.167      641.551      305.971        0.287        0.088       62.778        9.344        0.022      337.741        9.919      861.696
12/05/2014  18:12:00       43.339       40.141       -5.816       11.188       21.480       12.858      125.178      461.370      165.322        0.214        0.038       59.072        7.061        0.014      337.734        9.908      861.711
12/05/2014  18:13:00       22.503       38.833        0.603       33.733       25.020       19.662     1137.936      626.007      386.607        0.208        0.108       44.882       14.547        0.105      337.717        9.879      861.704
12/05/2014  18:14:00       36.406       63.326       -2.897       24.364       25.754       21.679      593.624      663.262      469.964        0.354        0.086       73.045       18.357        0.063      337.721        9.884      861.683
12/05/2014  18:15:00       34.387       66.197      -10.790       18.556       26.477       16.868      344.313      701.038      284.513        0.351        0.066       74.595       14.300        0.037      337.722        9.888      861.662
12/05/2014  18:16:00       34.052       37.490       -4.435       24.823       22.101       16.061      616.169      488.440      257.941        0.197        0.068       50.646        9.106        0.032      337.711        9.870      861.656
12/05/2014  18:17:00       65.765       23.215        6.121       10.848       15.614       14.181      117.682      243.795      201.113        0.273        0.028       69.742        9.102        0.017      337.741        9.922      861.654
12/05/2014  18:18:00       36.133       22.460        5.420       21.307       34.373       28.545      453.983     1181.485      814.809        0.214        0.123       42.545       26.777        0.396      337.813       10.041      861.650
12/05/2014  18:19:00      -12.290      -29.922       10.935       16.678       35.849       18.695      278.161     1285.124      349.500        0.154        0.096       32.348       19.119        0.349      337.780        9.983      861.647
12/05/2014  18:20:00       10.700      -15.319        7.436       21.260       36.592       23.997      451.973     1339.009      575.860        0.139        0.118       18.686       13.758        0.542      337.922       10.225      861.658
12/05/2014  18:21:00        4.485        3.364       25.192       18.503       35.397       22.416      342.376     1252.974      502.457        0.138        0.105        5.606       20.031       12.767      337.893       10.175      861.679
12/05/2014  18:22:00       41.120       31.328       36.340       23.257       17.345       21.189      540.889      300.857      448.995        0.264        0.065       51.694       14.948        0.084      337.813       10.040      861.677
12/05/2014  18:23:00       59.980      -26.590        8.561       25.444       39.700       21.174      647.375     1576.081      448.354        0.352        0.134       65.609       26.018        0.157      337.845       10.093      861.678
12/05/2014  18:24:00       34.933      -16.092       19.442       29.315       29.809       23.162      859.385      888.562      536.472        0.207        0.114       38.462       17.096        0.198      337.886       10.162      861.692
12/05/2014  18:25:00       27.228       -2.704       16.814       29.090       27.587       19.923      846.237      761.064      396.908        0.152        0.100       27.362       15.007        0.301      337.840       10.085      861.705
12/05/2014  18:26:00        5.479      -48.219        3.093       26.343       30.051       18.960      693.949      903.083      359.491        0.216        0.098       48.529       16.209        0.112      337.923       10.224      861.701
12/05/2014  18:27:00        6.758      -19.008       11.271       23.157       35.330       21.490      536.250     1248.233      461.807        0.139        0.112       20.174       15.251        0.572      337.925       10.229      861.691
12/05/2014  18:28:00       30.955       21.304       32.446       30.360       25.159       28.260      921.710      632.999      798.615        0.241        0.118       37.577       19.715        0.275      337.869       10.135      861.674
12/05/2014  18:29:00       29.228        5.268       30.456       30.806       42.933       37.758      949.019     1843.270     1425.640        0.301        0.211       29.699       36.992        1.551      337.859       10.118      861.649
12/05/2014  18:30:00       46.669      -25.743        4.424       21.050       26.187       16.306      443.116      685.775      265.881        0.213        0.070       53.298       16.291        0.093      337.893       10.174      861.633
12/05/2014  18:31:00       38.783       10.708       11.137       17.514       16.125       17.201      306.757      260.030      295.875        0.130        0.043       40.234       11.326        0.079      337.858       10.116      861.632
12/05/2014  18:32:00       37.441       20.178        5.017       21.641       16.601       16.050      468.322      275.605      257.610        0.142        0.050       42.532        8.731        0.042      337.788       10.000      861.646
12/05/2014  18:33:00       50.374       32.953       15.365       14.827       10.111       10.878      219.834      102.239      118.333        0.215        0.022       60.195        6.373        0.011      337.777        9.980      861.658
12/05/2014  18:34:00       64.728       42.484       10.678       12.533       10.723       10.977      157.086      114.975      120.501        0.325        0.020       77.425        4.799        0.004      337.782        9.988      861.663
12/05/2014  18:35:00       91.185       50.350       11.736       31.885       33.338       25.254     1016.652     1111.418      637.785        0.688        0.138      104.162       15.285        0.022      337.721        9.886      861.644
12/05/2014  18:36:00       96.088       72.899       -0.584       46.043       42.371       26.819     2119.973     1795.300      719.244        0.959        0.232      120.612       14.130        0.014      337.679        9.818      861.626
12/05/2014  18:37:00       73.338       55.671        0.509       43.491       27.772       27.417     1891.433      771.302      751.692        0.595        0.171       92.075       20.642        0.050      337.644        9.758      861.632
12/05/2014  18:38:00       28.477       32.886        5.323       33.903       17.212       20.164     1149.408      296.269      406.596        0.189        0.093       43.502        8.323        0.037      337.576        9.641      861.628
12/05/2014  18:39:00       17.523       47.060        9.244       22.849       30.403       23.974      522.076      924.347      574.730        0.231        0.101       50.217       22.269        0.197      337.595        9.675      861.622
12/05/2014  18:40:00       17.380       47.440        4.472       25.463       24.143       25.044      648.381      582.863      627.192        0.222        0.093       50.523       21.119        0.175      337.600        9.684      861.624
12/05/2014  18:41:00       29.085       61.557       -8.060       26.858       29.614       26.027      721.357      877.010      677.393        0.349        0.114       68.082       18.629        0.075      337.574        9.641      861.631
12/05/2014  18:42:00       40.171       35.033       16.172       38.492       25.641       22.156     1481.608      657.440      490.894        0.287        0.131       53.301       15.613        0.086      337.559        9.615      861.634
12/05/2014  18:43:00       24.166       84.737       -4.603       30.704       40.167       26.771      942.705     1613.389      716.668        0.553        0.164       88.115       27.441        0.097      337.560        9.616      861.632
12/05/2014  18:44:00       45.454       93.457       -2.961       34.231       47.923       30.686     1171.792     2296.634      941.639        0.761        0.221      103.924       28.611        0.076      337.568        9.630      861.640
12/05/2014  18:45:00       41.044       74.717        6.414       40.580       38.423       32.023     1646.774     1476.293     1025.498        0.573        0.207       85.248       23.121        0.074      337.566        9.625      861.645
12/05/2014  18:46:00       57.121       52.990        6.810       43.352       38.418       32.030     1879.395     1475.907     1025.911        0.525        0.219       77.915       27.033        0.120      337.542        9.586      861.658
12/05/2014  18:47:00       55.574       67.785       -8.492       37.106       43.845       26.848     1376.861     1922.415      720.803        0.589        0.201       87.654       25.322        0.083      337.541        9.584      861.677
12/05/2014  18:48:00       35.499       32.730       14.476       24.071       21.583       16.359      579.422      465.839      267.630        0.193        0.066       48.285        8.358        0.030      337.515        9.541      861.690
12/05/2014  18:49:00       47.300       44.268        4.410       30.805       24.343       28.394      948.939      592.584      806.219        0.328        0.117       64.784       18.594        0.082      337.538        9.577      861.692
12/05/2014  18:50:00       37.587       40.968        1.157       27.477       22.537       21.423      754.966      507.903      458.940        0.241        0.086       55.598       13.348        0.058      337.522        9.555      861.688
12/05/2014  18:51:00       66.403       53.175       -0.765       25.762       30.689       20.865      663.691      941.832      435.337        0.464        0.102       85.070       19.223        0.051      337.523        9.553      861.690
12/05/2014  18:52:00       30.745       45.414       -0.970       27.159       35.345       21.083      737.589     1249.293      444.512        0.272        0.122       54.843       16.750        0.093      337.492        9.501      861.689
12/05/2014  18:53:00       45.961       50.027        2.787       32.387       25.316       20.744     1048.948      640.887      430.299        0.337        0.106       67.934       17.256        0.065      337.493        9.501      861.695
12/05/2014  18:54:00       38.670       20.163        1.120       26.418       21.728       19.692      697.929      472.100      387.776        0.173        0.078       43.611        8.659        0.039      337.475        9.473      861.713
12/05/2014  18:55:00       28.253       33.397       10.877       30.591       20.070       16.964      935.831      402.809      287.768        0.183        0.081       43.745       13.180        0.091      337.475        9.473      861.735
12/05/2014  18:56:00       52.519       42.277       12.951       20.204       13.657       15.129      408.191      186.507      228.895        0.277        0.041       67.421       10.058        0.022      337.467        9.460      861.724
12/05/2014  18:57:00       22.365       31.265        3.473       20.812       20.519       13.653      433.122      421.049      186.416        0.126        0.052       38.440       13.387        0.121      337.445        9.421      861.708
12/05/2014  18:58:00       48.154       49.920       -4.766       23.178       25.515       20.201      537.233      651.039      408.081        0.321        0.080       69.360       15.617        0.051      337.486        9.491      861.708
12/05/2014  18:59:00       19.760       40.567       -3.190       28.465       25.131       24.788      810.243      631.548      614.433        0.205        0.103       45.123       17.497        0.150      337.484        9.489      861.705
12/05/2014  19:00:00       48.207       52.219       -0.371       20.912       24.990       23.034      437.306      624.505      530.558        0.332        0.080       71.069       17.376        0.060      337.461        9.449      861.699
12/05/2014  19:01:00       29.487       26.690       -3.618       21.773       20.688       12.637      474.045      427.975      159.699        0.133        0.053       39.772       11.657        0.086      337.437        9.409      861.710
12/05/2014  19:02:00       31.743        5.539       16.558       28.348       18.260       16.701      803.629      333.438      278.912        0.136        0.071       32.223       14.388        0.199      337.464        9.455      861.730
12/05/2014  19:03:00       33.740       13.348       15.895       26.145       19.146       14.939      683.563      366.573      223.164        0.142        0.064       36.284       15.798        0.190      337.459        9.449      861.739
12/05/2014  19:04:00       65.217       37.079       16.849       22.407       17.432       25.264      502.055      303.878      638.278        0.368        0.072       75.021       16.696        0.050      337.424        9.389      861.744
12/05/2014  19:05:00       70.066       35.606       21.843       23.632       27.591       19.124      558.451      761.256      365.726        0.417        0.084       78.594       14.334        0.033      337.426        9.392      861.750
12/05/2014  19:06:00       55.462       27.474       26.171       29.997       22.414       20.158      899.795      502.380      406.352        0.316        0.090       61.894       17.687        0.082      337.428        9.395      861.759
12/05/2014  19:07:00       62.012       39.882       29.328       28.210       16.015       16.940      795.812      256.492      286.971        0.382        0.067       73.730       12.990        0.031      337.419        9.379      861.750
12/05/2014  19:08:00       40.590       28.731       25.206       22.168       17.828       16.157      491.438      317.835      261.038        0.209        0.054       49.730       10.606        0.045      337.438        9.411      861.740
12/05/2014  19:09:00       37.403        7.180       17.007       20.246       22.394       14.576      409.881      501.483      212.468        0.143        0.056       38.086       13.309        0.122      337.416        9.374      861.736
12/05/2014  19:10:00       49.022       22.090       17.456       30.507       15.436       18.257      930.698      238.265      333.308        0.235        0.075       53.769       18.250        0.115      337.393        9.337      861.727
12/05/2014  19:11:00       69.731       36.401       19.691       24.965       15.572       16.263      623.232      242.488      264.484        0.385        0.057       78.660       14.689        0.035      337.420        9.381      861.735
12/05/2014  19:12:00       79.900       25.471        6.200       21.814       19.158       15.539      475.868      367.035      241.459        0.408        0.054       83.862       10.644        0.016      337.421        9.383      861.753
12/05/2014  19:13:00       63.170       26.720       12.114       32.586       26.128       17.087     1061.835      682.694      291.971        0.344        0.102       68.588       12.643        0.034      337.402        9.352      861.756
12/05/2014  19:14:00       73.381       59.696       20.471       22.259       18.526       12.239      495.455      343.218      149.802        0.518        0.049       94.596       11.822        0.016      337.420        9.381      861.759
12/05/2014  19:15:00       66.670       58.336       20.300       21.450       15.060       17.690      460.117      226.808      312.942        0.463        0.050       88.589       14.513        0.027      337.441        9.418      861.750
12/05/2014  19:16:00       67.119       35.487        7.020       24.398       17.814       16.506      595.283      317.353      272.445        0.350        0.059       75.922       13.263        0.031      337.451        9.435      861.758
12/05/2014  19:17:00       64.867       35.314        5.659       10.538       14.925       10.177      111.039      222.766      103.563        0.296        0.022       73.857        5.072        0.005      337.430        9.399      861.769
12/05/2014  19:18:00       33.824       25.191       17.507       15.687       15.453       14.459      246.081      238.799      209.066        0.139        0.035       42.174       10.041        0.057      337.370        9.299      861.777
12/05/2014  19:19:00       58.158       28.768        7.320       11.886       14.647       12.019      141.286      214.529      144.452        0.238        0.025       64.884        6.353        0.010      337.441        9.416      861.785
12/05/2014  19:20:00       25.331       12.531       12.061       21.203       14.339       11.095      449.578      205.620      123.094        0.086        0.039       28.261       10.201        0.130      337.415        9.372      861.790
12/05/2014  19:21:00       21.731       26.442       37.618       14.257       19.118       13.457      203.272      365.494      181.098        0.167        0.037       34.226       12.899        0.142      337.397        9.343      861.801
12/05/2014  19:22:00        9.758       30.559       40.420       18.583       22.672       18.658      345.320      514.017      348.137        0.193        0.060       32.079       16.259        0.257      337.412        9.369      861.806
12/05/2014  19:23:00        9.083       35.785       47.473       23.011       28.827       18.947      529.522      830.986      358.986        0.267        0.086       36.920       14.122        0.146      337.445        9.425      861.797
12/05/2014  19:24:00        5.198        3.599       25.642       17.907       22.192       23.114      320.660      492.497      534.255        0.102        0.067        6.322       18.409        8.479      337.407        9.359      861.768
12/05/2014  19:25:00        0.312       17.139       35.273       14.222       29.460       16.397      202.268      867.887      268.877        0.144        0.067       17.142       18.667        1.186      337.418        9.379      861.749
12/05/2014  19:26:00      -10.045      -57.588       -7.487       22.309       20.532       17.537      497.700      421.570      307.562        0.235        0.061       58.457        9.897        0.029      337.454        9.438      861.760
12/05/2014  19:27:00        9.235      -68.597      -12.097       43.842       48.130       19.175     1922.144     2316.519      367.668        0.477        0.230       69.216       14.757        0.045      337.515        9.541      861.785
12/05/2014  19:28:00      -51.790      -28.031        0.334       24.287       23.571       12.096      589.846      555.601      146.318        0.238        0.065       58.889        6.404        0.012      337.441        9.418      861.794
12/05/2014  19:29:00      -31.109       -2.896       13.954       59.326       28.207       20.376     3519.573      795.654      415.185        0.295        0.237       31.243       30.271        0.939      337.291        9.165      861.820
12/05/2014  19:30:00       -2.496      -12.275        8.116       17.397       27.856       13.208      302.673      775.934      174.445        0.074        0.063       12.526       17.795        2.018      337.343        9.252      861.836
12/05/2014  19:31:00        2.601      -19.462        1.718       25.107       25.213       25.189      630.371      635.693      634.464        0.114        0.095       19.635       19.157        0.952      337.474        9.471      861.844
12/05/2014  19:32:00      -23.955      -15.653        3.623       13.583       17.367        9.575      184.511      301.615       91.675        0.070        0.029       28.616       10.044        0.123      337.447        9.426      861.845
12/05/2014  19:33:00      -27.044      -14.850       -2.932       16.793       10.742        7.871      281.989      115.389       61.957        0.071        0.023       30.853        7.480        0.059      337.397        9.342      861.860
12/05/2014  19:34:00        5.567      -11.968       20.739       34.657       36.818       34.096     1201.091     1355.535     1162.521        0.216        0.186       13.199       25.206        3.647      337.487        9.495      861.871
12/05/2014  19:35:00       20.560      -18.967       28.981       31.219       35.676       24.536      974.652     1272.744      602.011        0.224        0.142       27.972       23.531        0.708      337.548        9.596      861.875
12/05/2014  19:36:00      -17.849       22.562       38.625       19.647       18.182       19.685      386.009      330.588      387.483        0.171        0.055       28.769       17.762        0.381      337.451        9.434      861.878
12/05/2014  19:37:00      -11.067       22.533       25.878       15.282       11.459       18.033      233.547      131.315      325.200        0.099        0.035       25.104        9.759        0.151      337.427        9.393      861.878
12/05/2014  19:38:00      -31.177       18.464       11.265       15.095       12.795       12.525      227.846      163.708      156.875        0.099        0.027       36.235        9.996        0.076      337.383        9.319      861.876
12/05/2014  19:39:00      -10.215       -1.073        9.599        9.401        4.573        6.686       88.387       20.913       44.706        0.018        0.008       10.272        2.543        0.061      337.306        9.192      861.889
12/05/2014  19:40:00        4.023      -12.855       17.315       12.798       15.102       10.764      163.796      228.061      115.863        0.049        0.025       13.470       10.295        0.584      337.229        9.061      861.891
12/05/2014  19:41:00       -4.762       -2.797       15.790        9.662       27.076       15.101       93.356      733.087      228.041        0.067        0.053        5.523       18.296       10.975      337.374        9.304      861.902
12/05/2014  19:42:00       -6.739       13.820       33.909        9.405       11.637        7.284       88.460      135.418       53.062        0.083        0.014       15.375        7.038        0.210      337.328        9.228      861.918
12/05/2014  19:43:00       47.247       22.042       15.912       32.368       25.694       15.700     1047.661      660.192      246.497        0.246        0.098       52.135        8.271        0.025      337.286        9.155      861.907
12/05/2014  19:44:00       69.287       44.127       28.333       34.188       27.322       24.453     1168.835      746.515      597.929        0.503        0.126       82.145       18.014        0.048      337.270        9.131      861.875
12/05/2014  19:45:00       81.899       45.300       18.807       32.623       24.270       21.337     1064.266      589.051      455.275        0.561        0.105       93.592       12.687        0.018      337.264        9.120      861.863
12/05/2014  19:46:00       81.648       31.696        6.929       24.604       18.198       19.806      605.381      331.169      392.278        0.452        0.066       87.584       14.089        0.026      337.185        8.990      861.855
12/05/2014  19:47:00       63.784       35.930        7.186       20.219       19.713       16.393      408.813      388.607      268.738        0.324        0.053       73.208       12.537        0.029      337.113        8.867      861.843
12/05/2014  19:48:00       70.247       48.446        4.855       25.106       22.472       13.454      630.287      505.008      181.008        0.431        0.066       85.333       12.652        0.022      337.075        8.802      861.826
12/05/2014  19:49:00       65.657       46.321       12.836       19.317       19.875       15.106      373.136      395.013      228.195        0.381        0.050       80.352        4.026        0.003      337.069        8.793      861.811
12/05/2014  19:50:00       59.572       43.557        3.373       24.087       22.937       16.080      580.180      526.101      258.578        0.341        0.068       73.797       12.154        0.027      337.042        8.748      861.796
12/05/2014  19:51:00       39.031       29.608        7.045       23.517       23.168       16.517      553.038      536.755      272.809        0.191        0.068       48.990       11.739        0.057      336.997        8.674      861.775
12/05/2014  19:52:00       59.511       35.976        9.705       33.910       27.321       19.409     1149.877      746.414      376.709        0.360        0.114       69.541       15.952        0.053      337.028        8.725      861.756
12/05/2014  19:53:00       92.866       66.733       -1.252       31.731       31.947       23.799     1006.857     1020.592      566.387        0.784        0.130      114.357       18.779        0.027      337.052        8.764      861.733
12/05/2014  19:54:00      104.100       76.662        2.309       40.815       33.560       22.897     1665.888     1126.261      524.270        1.002        0.166      129.282       19.298        0.022      337.034        8.735      861.727
12/05/2014  19:55:00       98.389       62.029       11.882       26.612       24.839       18.284      708.200      616.967      334.309        0.766        0.083      116.310       13.824        0.014      336.950        8.595      861.741
12/05/2014  19:56:00       91.924       61.321       16.860       28.299       26.209       24.527      800.861      686.924      601.574        0.729        0.104      110.500       15.276        0.019      336.922        8.547      861.749
12/05/2014  19:57:00       73.912       48.340        9.784       28.001       26.325       19.573      784.029      693.011      383.095        0.488        0.093       88.316        8.645        0.010      336.877        8.474      861.751
12/05/2014  19:58:00       78.407       71.305       -3.812       36.021       27.953       33.674     1297.502      781.384     1133.921        0.723        0.161      105.981       24.974        0.056      336.907        8.523      861.740
12/05/2014  19:59:00       99.852       73.986        5.660       37.772       28.600       28.140     1426.757      817.988      791.866        0.926        0.152      124.276       20.131        0.026      337.052        8.765      861.749
12/05/2014  20:00:00       87.399       58.884       13.873       29.235       21.789       25.142      854.713      474.779      632.105        0.663        0.098      105.384       14.985        0.020      337.061        8.780      861.788
12/05/2014  20:01:00       47.904       40.592        0.888       36.357       23.965       12.527     1321.859      574.340      156.925        0.300        0.103       62.790       10.606        0.029      337.077        8.808      861.830
12/05/2014  20:02:00        2.603       62.240      -11.582       22.303       16.378        9.444      497.424      268.240       89.189        0.243        0.043       62.295        9.298        0.022      337.152        8.934      861.839
12/05/2014  20:03:00      -52.895       40.067      -10.459       33.778       23.572       15.186     1140.976      555.655      230.615        0.322        0.096       66.357       10.494        0.025      337.037        8.741      861.836
12/05/2014  20:04:00      -76.043       42.589      -15.205       17.403       19.459       11.804      302.850      378.646      139.340        0.432        0.041       87.157        7.739        0.008      336.945        8.586      861.834
12/05/2014  20:05:00      -56.424       30.275      -11.008       21.784       24.841       15.618      474.530      617.058      243.924        0.278        0.067       64.033       14.921        0.054      337.017        8.706      861.855
12/05/2014  20:06:00      -40.742      -12.655       -9.051       12.132       11.096        9.894      147.196      123.113       97.886        0.114        0.018       42.662        7.620        0.032      336.859        8.443      861.891
12/05/2014  20:07:00      -21.784      -12.903       -2.596       15.484       13.818       11.936      239.739      190.943      142.464        0.061        0.029       25.319        9.313        0.135      336.989        8.660      861.912
12/05/2014  20:08:00      -18.223        1.335      -11.855       19.841       15.147        7.449      393.684      229.426       55.489        0.058        0.034       18.272        4.882        0.071      337.041        8.748      861.930
12/05/2014  20:09:00        9.048       16.078       -2.482       10.775       11.472        8.006      116.108      131.612       64.092        0.033        0.016       18.450        7.483        0.165      337.197        9.010      861.940
12/05/2014  20:10:00       22.661       11.298        1.833       10.468        9.583       10.730      109.588       91.834      115.128        0.048        0.016       25.321        7.612        0.090      337.224        9.056      861.937
12/05/2014  20:11:00       49.282       26.308       11.456        8.777       12.455        9.894       77.038      155.117       97.888        0.179        0.017       55.864        6.485        0.013      337.136        8.905      861.939
12/05/2014  20:12:00       39.085       21.131        0.547       12.892       10.429       10.268      166.192      108.755      105.427        0.118        0.019       44.431        4.137        0.009      337.032        8.731      861.930
12/05/2014  20:13:00       50.198       33.534        5.836       12.422        8.854        5.484      154.297       78.386       30.072        0.197        0.013       60.369        2.644        0.002      337.055        8.770      861.908
12/05/2014  20:14:00       29.093       36.451       19.352       19.616       16.309       15.682      384.802      265.992      245.923        0.172        0.045       46.638       15.266        0.107      337.022        8.713      861.910
12/05/2014  20:15:00       38.974       26.470       12.017       13.551        9.162       14.675      183.631       83.941      215.351        0.142        0.024       47.113        6.573        0.019      336.976        8.637      861.890
12/05/2014  20:16:00       29.044       25.866        3.865       17.803       14.773       12.175      316.944      218.237      148.236        0.111        0.034       38.892        5.639        0.021      336.874        8.470      861.862
12/05/2014  20:17:00       37.721       37.281        8.445       22.373       23.639       20.400      500.547      558.809      416.152        0.218        0.074       53.035       15.102        0.081      336.984        8.651      861.861
12/05/2014  20:18:00       33.618       23.559       -1.437       25.995       20.504       12.595      675.720      420.405      158.637        0.147        0.063       41.051       13.729        0.112      337.059        8.778      861.890
12/05/2014  20:19:00       33.984       38.150       -1.450       18.034       18.851       14.570      325.224      355.343      212.297        0.175        0.045       51.091       13.105        0.066      337.073        8.798      861.909
12/05/2014  20:20:00       27.705       81.795      -13.832       13.379       14.603        9.883      178.984      213.247       97.675        0.407        0.024       86.360        7.315        0.007      337.026        8.721      861.899
12/05/2014  20:21:00       23.562       99.964      -12.722       18.306       25.743       17.697      335.114      662.706      313.192        0.601        0.066      102.704       14.490        0.020      337.048        8.758      861.893
12/05/2014  20:22:00       16.251       99.015      -23.555       14.934       20.378       11.539      223.017      415.263      133.154        0.570        0.039      100.340       12.136        0.015      337.157        8.943      861.913
12/05/2014  20:23:00      -17.907       48.834      -10.499       13.444       38.729       16.488      180.743     1499.899      271.851        0.238        0.098       52.013       16.686        0.103      337.107        8.857      861.926
12/05/2014  20:24:00      -41.475       -9.055      -12.664       22.897       11.558        6.677      524.287      133.589       44.583        0.133        0.035       42.452        6.617        0.024      336.948        8.591      861.931
12/05/2014  20:25:00      -61.832      -14.804       -9.561       11.173        7.380        6.285      124.845       54.469       39.504        0.218        0.011       63.580        4.405        0.005      336.892        8.497      861.945
12/05/2014  20:26:00      -73.291       -7.197      -15.550       10.130       10.677        6.583      102.626      113.995       43.335        0.296        0.013       73.644        4.404        0.004      336.833        8.400      861.953
12/05/2014  20:27:00      -56.451      -10.746       -5.406       23.738       27.102       15.688      563.473      734.498      246.108        0.244        0.077       57.465       12.823        0.050      336.776        8.305      861.947
12/05/2014  20:28:00      -68.320        0.304      -13.863       25.802       20.436       18.579      665.760      417.613      345.195        0.314        0.071       68.321       11.024        0.026      336.864        8.452      861.949
12/05/2014  20:29:00     -121.863       52.976      -21.468       46.426       24.498       18.825     2155.419      600.128      354.399        1.061        0.155      132.880       17.772        0.018      336.857        8.439      861.935
12/05/2014  20:30:00     -210.880       55.703      -22.521       36.481       29.038       21.977     1330.850      843.187      482.996        2.537        0.133      218.112       19.040        0.008      336.641        8.077      861.912
12/05/2014  20:31:00     -166.445       32.688      -21.136       55.416       49.071       26.955     3070.950     2407.917      726.575        1.771        0.310      169.625       23.306        0.019      336.586        7.989      861.907
12/05/2014  20:32:00     -181.594       34.117      -22.034       48.975       34.551       24.460     2398.594     1193.792      598.285        1.941        0.210      184.771       22.425        0.015      336.594        8.000      861.897
12/05/2014  20:33:00     -152.063       22.878      -20.113       49.095       38.116       25.581     2410.296     1452.816      654.411        1.428        0.226      153.774       26.244        0.029      336.528        7.890      861.886
12/05/2014  20:34:00      -92.506       12.450      -10.284       30.541       25.480       19.531      932.768      649.246      381.462        0.539        0.098       93.340       10.904        0.014      336.583        7.982      861.885
12/05/2014  20:35:00      -88.867       13.148       -9.393       33.845       27.252       18.850     1145.514      742.688      355.311        0.520        0.112       89.834       13.472        0.022      336.648        8.092      861.870
12/05/2014  20:36:00      -90.985      -12.763      -13.919       30.729       25.111       18.433      944.265      630.541      339.788        0.527        0.096       91.876       13.855        0.023      336.596        8.005      861.855
12/05/2014  20:37:00      -83.190      -22.302       -6.563       35.338       25.584       16.289     1248.774      654.545      265.329        0.481        0.108       86.128        6.074        0.005      336.600        8.012      861.844
12/05/2014  20:38:00      -31.983      -20.536       -2.456       22.931       24.653       19.468      525.830      607.775      378.987        0.148        0.076       38.009       16.317        0.184      336.556        7.937      861.823
12/05/2014  20:39:00      -10.554      -13.262        5.496       15.754       16.925       13.990      248.199      286.462      195.717        0.052        0.037       16.949       10.499        0.384      336.610        8.030      861.806
12/05/2014  20:40:00      -53.437        4.107       -7.909       19.978       16.989        9.282      399.135      288.629       86.153        0.185        0.039       53.595        8.142        0.023      336.643        8.084      861.771
12/05/2014  20:41:00      -69.460       20.648      -11.238       27.226       14.597       12.802      741.228      213.061      163.881        0.325        0.056       72.464       10.405        0.021      336.745        8.256      861.729
12/05/2014  20:42:00      -57.701       20.593       -9.255       15.284       15.305       11.096      233.599      234.236      123.125        0.221        0.030       61.266        7.271        0.014      336.853        8.433      861.717
12/05/2014  20:43:00      -61.808       10.714      -10.212       19.083       24.714       11.510      364.154      610.765      132.476        0.257        0.055       62.730        9.735        0.024      336.889        8.493      861.726
12/05/2014  20:44:00      -33.703       -3.990        2.410       10.721       20.680        7.340      114.940      427.677       53.868        0.088        0.030       33.938        2.864        0.007      336.890        8.494      861.733
12/05/2014  20:45:00      -30.796       -4.613       -1.646        8.749        9.751        5.947       76.553       95.082       35.361        0.059        0.010       31.140        4.053        0.017      336.858        8.442      861.728
12/05/2014  20:46:00      -16.969        7.220       -4.491       12.288       22.703        8.431      150.996      515.440       71.080        0.055        0.037       18.441        9.682        0.276      337.005        8.687      861.747
12/05/2014  20:47:00      -10.293       57.768       -9.512       21.419       17.447        9.217      458.794      304.402       84.959        0.219        0.042       58.678        6.532        0.012      337.253        9.102      861.756
12/05/2014  20:48:00       -5.015       61.812       -3.263       15.259       26.172       14.607      232.824      684.997      213.357        0.249        0.057       62.016       12.236        0.039      337.288        9.163      861.777
12/05/2014  20:49:00        0.726       47.545       -0.865       21.237       20.521       13.335      450.997      421.119      177.816        0.166        0.052       47.551       12.728        0.072      337.284        9.157      861.784
12/05/2014  20:50:00       22.876       91.112      -15.370       16.651       14.074        7.975      277.267      198.070       63.601        0.480        0.027       93.940        5.985        0.004      337.253        9.103      861.797
12/05/2014  20:51:00       31.713       63.103       -9.298       17.775       33.001       17.716      315.958     1089.072      313.860        0.340        0.086       70.624       17.699        0.063      337.132        8.900      861.803
12/05/2014  20:52:00       43.337       48.755       -1.875       31.005       22.100       18.650      961.341      488.389      347.834        0.303        0.090       65.232        8.974        0.019      337.050        8.761      861.814
12/05/2014  20:53:00       42.600       76.312       -6.754       16.940       32.477       16.820      286.972     1054.729      282.925        0.465        0.081       87.397       13.135        0.023      337.018        8.708      861.788
12/05/2014  20:54:00       37.374       80.976       -6.854       25.251       27.590       21.629      637.595      761.236      467.806        0.493        0.093       89.184       16.306        0.033      337.075        8.804      861.770
12/05/2014  20:55:00       27.293       65.579       -6.662       25.021       35.611       19.378      626.031     1268.122      375.518        0.368        0.113       71.032       19.034        0.072      337.162        8.950      861.788
12/05/2014  20:56:00       23.334       22.209        0.627       27.738       24.082       16.756      769.405      579.962      280.778        0.133        0.082       32.213       14.333        0.198      337.151        8.931      861.814
12/05/2014  20:57:00        3.109      -22.576        5.354       18.053       11.161       11.271      325.913      124.571      127.042        0.056        0.029       22.789        5.630        0.061      337.125        8.888      861.840
12/05/2014  20:58:00      -24.017       -9.460       -4.196        8.920        7.080        7.410       79.563       50.132       54.915        0.043        0.009       25.813        4.685        0.033      336.998        8.673      861.872
12/05/2014  20:59:00      -41.273      -11.286       -3.884        4.961        5.301        4.552       24.607       28.102       20.722        0.096        0.004       42.788        2.603        0.004      336.955        8.603      861.892
12/05/2014  21:00:00      -45.872       -3.341      -10.365        6.767        6.314        7.284       45.790       39.872       53.058        0.118        0.007       45.993        3.817        0.007      337.031        8.729      861.894
12/05/2014  21:01:00      -41.200        7.250       -8.072        8.344        8.086        4.901       69.617       65.389       24.023        0.099        0.008       41.833        3.335        0.006      337.067        8.790      861.872
12/05/2014  21:02:00        8.403       24.444       -7.856       20.692       15.805        6.843      428.163      249.805       46.821        0.073        0.036       25.848        3.227        0.016      337.341        9.250      861.860
12/05/2014  21:03:00        0.081       10.125       -3.713        7.633        9.977        7.238       58.265       99.531       52.388        0.016        0.011       10.125        7.093        0.491      337.363        9.285      861.848
12/05/2014  21:04:00        6.276        8.052        8.061        5.164        6.747        5.905       26.667       45.521       34.869        0.014        0.005       10.209        4.670        0.209      337.266        9.123      861.843
12/05/2014  21:05:00       22.525       15.285        7.700       12.253        8.244        7.055      150.146       67.964       49.776        0.053        0.013       27.222        7.736        0.081      337.160        8.947      861.839
12/05/2014  21:06:00       33.556       46.970        1.730        6.747       19.346        7.833       45.522      374.260       61.362        0.191        0.024       57.725        9.382        0.026      337.170        8.964      861.829
12/05/2014  21:07:00       35.949       76.481      -11.125       18.528       20.532       11.584      343.284      421.555      134.180        0.408        0.045       84.508       11.456        0.018      337.152        8.932      861.808
12/05/2014  21:08:00       43.151       71.769      -14.323       11.878       18.304       11.187      141.097      335.054      125.146        0.391        0.030       83.743        8.960        0.011      337.099        8.845      861.800
12/05/2014  21:09:00        1.727      101.097      -17.750       18.841       18.468       14.623      354.980      341.059      213.834        0.572        0.045      101.112        9.476        0.009      337.057        8.774      861.809
12/05/2014  21:10:00      -48.960       35.044      -10.687       17.310       22.758       11.958      299.625      517.931      142.998        0.235        0.048       60.209        8.423        0.020      336.997        8.673      861.812
12/05/2014  21:11:00      -49.511        5.329      -10.272       13.894       11.824        9.662      193.034      139.810       93.361        0.151        0.021       49.797        6.319        0.016      336.912        8.532      861.813
12/05/2014  21:12:00      -88.351      -22.382      -14.473       19.344       17.445       13.063      374.206      304.318      170.642        0.468        0.042       91.141       10.565        0.013      336.660        8.111      861.825
12/05/2014  21:13:00     -119.945      -76.550       -8.443       44.231       38.045       21.881     1956.415     1447.429      478.758        1.210        0.194      142.291       17.581        0.015      336.598        8.009      861.849
12/05/2014  21:14:00      -94.119      -76.279       -0.711       42.193       41.039       21.074     1780.289     1684.198      444.112        0.929        0.195      121.148       18.855        0.024      336.668        8.124      861.873
12/05/2014  21:15:00      -88.128      -63.402       -8.491       49.772       36.271       30.517     2477.264     1315.614      931.271        0.829        0.236      108.565       27.861        0.066      336.769        8.294      861.895
12/05/2014  21:16:00      -61.544       -5.081      -16.430       23.234       22.835       13.281      539.837      521.433      176.392        0.266        0.062       61.753       14.934        0.058      336.765        8.288      861.908
12/05/2014  21:17:00      -11.030       -2.677       -8.966       13.385       10.594        6.574      179.168      112.234       43.219        0.027        0.017       11.350        7.430        0.429      336.847        8.423      861.920
12/05/2014  21:18:00        3.633       11.211       11.678        9.375       13.369       12.427       87.892      178.718      154.424        0.035        0.021       11.785       11.067        0.882      336.846        8.421      861.933
12/05/2014  21:19:00       17.937       -8.185       12.581       25.481       24.221       13.524      649.284      586.672      182.887        0.098        0.071       19.716       14.258        0.523      336.819        8.376      861.953
12/05/2014  21:20:00       27.988       20.391       15.580       17.287       18.093       15.181      298.843      327.360      230.467        0.115        0.043       34.628       12.609        0.133      336.814        8.368      861.965
12/05/2014  21:21:00       42.102       41.661       22.176       12.888       11.417       19.119      166.109      130.351      365.538        0.233        0.033       59.230       10.567        0.032      337.082        8.816      861.954
12/05/2014  21:22:00       46.430       42.633       13.594       15.466       10.244       18.381      239.203      104.946      337.879        0.242        0.034       63.035        3.592        0.003      337.089        8.826      861.945
12/05/2014  21:23:00       28.642       18.274        5.606       14.511       10.379        9.334      210.568      107.733       87.126        0.080        0.020       33.975        8.158        0.058      337.074        8.804      861.943
12/05/2014  21:24:00       13.951       13.525       -3.321        8.087        7.903        4.755       65.407       62.459       22.614        0.027        0.008       19.431        4.804        0.061      337.105        8.855      861.945
12/05/2014  21:25:00        3.027        3.281       -0.669        6.342        4.634        5.508       40.223       21.478       30.335        0.006        0.005        4.464        4.041        0.820      337.131        8.897      861.960
12/05/2014  21:26:00        6.379       35.490       -2.929        8.149       10.615        6.049       66.399      112.682       36.596        0.076        0.011       36.059        3.705        0.011      337.267        9.126      861.968
12/05/2014  21:27:00        4.604       57.002       -7.165        9.033        7.096        5.853       81.591       50.360       34.253        0.174        0.008       57.188        1.691        0.001      337.282        9.151      861.971
12/05/2014  21:28:00        7.224       60.394      -11.562        7.546        9.928        5.471       56.935       98.560       29.931        0.201        0.009       60.825        3.943        0.004      337.358        9.278      861.976
12/05/2014  21:29:00       17.393       59.996      -12.316        5.728        9.886        4.226       32.805       97.728       17.858        0.210        0.007       62.466        2.942        0.002      337.253        9.102      861.971
12/05/2014  21:30:00       19.477       48.424      -10.545        5.752        8.407        5.855       33.081       70.682       34.278        0.149        0.007       52.194        5.420        0.011      337.285        9.156      861.964
12/05/2014  21:31:00       23.158       42.312       -7.990        8.693        4.716        5.060       75.571       22.241       25.601        0.126        0.006       48.235        3.410        0.005      337.301        9.181      861.948
12/05/2014  21:32:00       25.999       27.858       -5.385        5.523        5.373        4.976       30.504       28.872       24.761        0.078        0.004       38.106        3.086        0.007      337.265        9.124      861.939
12/05/2014  21:33:00        1.020        7.570       -4.827       17.447       10.486        5.139      304.409      109.967       26.411        0.026        0.022        7.638        6.922        0.821      337.211        9.033      861.953
12/05/2014  21:34:00      -95.660       -0.406       -8.876       31.616       18.250       13.733      999.595      333.075      188.589        0.538        0.076       95.661       11.812        0.015      336.607        8.024      861.958
12/05/2014  21:35:00     -136.593      -21.750      -12.335       15.822       18.944       11.033      250.329      358.875      121.728        1.001        0.037      138.314        7.548        0.003      336.623        8.048      861.951
12/05/2014  21:36:00     -105.017      -17.891      -10.456       18.206       15.343        8.910      331.469      235.403       79.383        0.605        0.032      106.530        6.115        0.003      336.645        8.086      861.944
12/05/2014  21:37:00      -54.574      -19.127        0.062       15.291       17.399       10.494      233.803      302.741      110.132        0.200        0.032       57.829        7.841        0.018      336.626        8.055      861.955
12/05/2014  21:38:00      -51.376      -16.704        0.125        6.440        9.632        4.070       41.470       92.771       16.564        0.153        0.008       54.024        2.616        0.002      336.799        8.343      861.972
12/05/2014  21:39:00      -29.319       -5.963        0.722       16.438        9.112        4.843      270.221       83.031       23.452        0.064        0.019       29.919        7.115        0.057      336.868        8.459      861.976
12/05/2014  21:40:00       17.151        2.451       -9.128       10.955        9.096        7.161      120.002       82.743       51.283        0.032        0.013       17.325        5.904        0.116      337.082        8.817      861.958
12/05/2014  21:41:00        1.956        1.422       -4.937       16.284       11.645       10.003      265.183      135.616      100.064        0.027        0.025        2.419        7.874       10.599      337.292        9.168      861.947
12/05/2014  21:42:00      -17.119        9.159        0.152        8.921        9.251        7.012       79.588       85.588       49.161        0.030        0.011       19.415        6.058        0.097      337.356        9.274      861.972
12/05/2014  21:43:00      -49.996      -22.314       -5.049        7.879       12.169        7.408       62.081      148.081       54.881        0.164        0.013       54.750        4.591        0.007      336.842        8.417      862.004
12/05/2014  21:44:00      -39.381      -23.279       -2.540       11.831        6.625        4.739      139.979       43.896       22.455        0.115        0.010       45.746        2.734        0.004      336.738        8.243      862.023
12/05/2014  21:45:00      -47.642       -4.181       -1.189       18.337       12.656        9.881      336.240      160.168       97.638        0.144        0.030       47.825       10.728        0.050      336.696        8.172      862.028
12/05/2014  21:46:00      -48.120        0.084       -4.652       13.100        6.879        4.474      171.617       47.322       20.021        0.129        0.012       48.121        2.735        0.003      336.732        8.233      862.016
12/05/2014  21:47:00      -69.473       -0.070       -9.519        6.859        7.604        6.281       47.039       57.821       39.446        0.253        0.007       69.473        1.918        0.001      336.747        8.259      862.006
12/05/2014  21:48:00      -38.350       -6.539       -2.019       17.512        6.749        4.895      306.672       45.543       23.956        0.095        0.019       38.903        6.262        0.026      336.739        8.246      862.006
12/05/2014  21:49:00      -40.950        1.764       -3.978       10.712        6.602        5.202      114.738       43.591       27.060        0.094        0.009       40.988        4.391        0.011      336.697        8.174      862.002
12/05/2014  21:50:00      -52.232        4.790      -11.835        5.274        3.637        3.589       27.817       13.231       12.883        0.147        0.003       52.451        2.993        0.003      336.783        8.317      861.984
12/05/2014  21:51:00      -46.096       15.164      -12.515        6.552        7.168        3.537       42.927       51.380       12.510        0.131        0.005       48.526        2.638        0.003      336.825        8.389      861.971
12/05/2014  21:52:00       14.777       29.710       -0.953       36.590       11.969       10.882     1338.860      143.257      118.414        0.135        0.080       33.182        7.610        0.053      337.218        9.043      861.970
12/05/2014  21:53:00       21.694       17.387        8.952       17.672       17.559        7.378      312.317      308.314       54.436        0.076        0.034       27.802        6.694        0.058      337.307        9.193      861.995
12/05/2014  21:54:00       31.198       28.247       19.343       17.635        8.738       11.609      311.006       76.361      134.772        0.133        0.026       42.086        7.232        0.030      337.247        9.092      862.003
12/05/2014  21:55:00       45.858       32.370       14.431        8.149        9.720        6.545       66.398       94.482       42.834        0.178        0.010       56.131        3.980        0.005      337.344        9.258      861.999
12/05/2014  21:56:00       47.508       29.860        7.277       12.494        7.098        9.074      156.101       50.387       82.330        0.175        0.014       56.113        7.646        0.019      337.298        9.177      861.998
12/05/2014  21:57:00       30.786       19.614        7.824        8.882        7.967        7.437       78.886       63.472       55.304        0.080        0.010       36.503        5.778        0.025      337.173        8.969      862.003
12/05/2014  21:58:00        7.668       10.233        5.109       12.818        9.466        5.858      164.309       89.598       34.312        0.024        0.014       12.787        7.609        0.354      337.134        8.903      862.032
12/05/2014  21:59:00       -0.701       -8.353        3.958        8.021        4.659        5.852       64.342       21.707       34.243        0.010        0.006        8.382        4.983        0.353      337.106        8.853      862.061
12/05/2014  22:00:00        8.443       -0.725        4.741        8.251        3.533        5.164       68.084       12.480       26.663        0.010        0.005        8.474        2.526        0.089      336.952        8.599      862.069
12/05/2014  22:01:00       30.192       14.436        8.980       13.885       10.789        7.831      192.782      116.413       61.324        0.079        0.019       33.466        7.222        0.047      336.989        8.659      862.055
12/05/2014  22:02:00       57.711       36.361       17.688       18.078       11.645       11.478      326.829      135.599      131.755        0.278        0.030       68.211        6.548        0.009      337.073        8.798      862.039
12/05/2014  22:03:00       48.868       17.546       12.064       27.923       26.014       11.171      779.717      676.732      124.787        0.221        0.079       51.922       13.619        0.069      337.238        9.077      862.037
12/05/2014  22:04:00      -30.468      -33.906       -0.896       17.956       13.326        7.983      322.435      177.574       63.733        0.132        0.028       45.584        5.635        0.015      336.883        8.482      862.051
12/05/2014  22:05:00      -22.928      -29.615       -2.386        9.323       10.454        9.631       86.927      109.284       92.755        0.085        0.014       37.454        6.419        0.029      336.748        8.259      862.066
12/05/2014  22:06:00      -45.703       -3.436       -6.732       10.766       11.692        6.762      115.908      136.708       45.724        0.122        0.015       45.832        3.541        0.006      336.577        7.973      862.065
12/05/2014  22:07:00      -43.265        2.798       -8.844       15.982        8.611        9.056      255.426       74.150       82.009        0.118        0.021       43.355        7.638        0.031      336.635        8.071      862.068
12/05/2014  22:08:00      -66.055      -21.314      -12.209       17.092       15.652        8.293      292.123      244.996       68.772        0.279        0.030       69.408        3.946        0.003      336.474        7.800      862.065
12/05/2014  22:09:00      -67.746      -21.330       -5.750       19.238       23.897       17.685      370.120      571.058      312.750        0.317        0.063       71.024       12.813        0.033      336.306        7.518      862.069
12/05/2014  22:10:00     -108.915       13.805      -15.756       26.935       21.557       17.522      725.505      464.711      307.010        0.690        0.075      109.786        6.222        0.003      336.358        7.606      862.086
12/05/2014  22:11:00      -76.982       -7.784       -3.962       34.152       23.846       16.948     1166.385      568.642      287.227        0.401        0.101       77.375       15.595        0.041      336.319        7.540      862.099
12/05/2014  22:12:00      -95.268        3.161       -8.119       26.821       24.763       16.403      719.392      613.186      269.065        0.538        0.080       95.321       14.938        0.025      336.343        7.581      862.107
12/05/2014  22:13:00      -75.476      -11.630       -3.997       25.179       16.293       11.849      633.990      265.454      140.397        0.344        0.052       76.366       10.452        0.019      336.346        7.586      862.114
12/05/2014  22:14:00      -75.119      -25.507       -1.806       24.618       21.544       11.863      606.067      464.125      140.741        0.375        0.061       79.331       11.972        0.023      336.390        7.659      862.116
12/05/2014  22:15:00      -97.497      -22.993       -4.590       37.740       25.760       19.306     1424.345      663.561      372.712        0.626        0.123      100.171       19.100        0.036      336.346        7.585      862.116
12/05/2014  22:16:00      -63.875       -8.418       -8.614       37.101       38.794       15.880     1376.470     1504.995      252.165        0.368        0.157       64.428       11.402        0.031      336.308        7.524      862.115
12/05/2014  22:17:00      -30.593      -24.090        0.253       20.173       21.531       12.990      406.935      463.605      168.729        0.128        0.052       38.939        6.838        0.031      336.323        7.548      862.142
12/05/2014  22:18:00      -77.610      -31.051       -1.373       19.499       20.058       13.735      380.204      402.312      188.641        0.398        0.049       83.591        7.574        0.008      336.336        7.570      862.184
12/05/2014  22:19:00      -91.104      -22.230       -9.534       21.089       22.341       12.926      444.757      499.128      167.088        0.500        0.056       93.777       11.400        0.015      336.304        7.516      862.214
12/05/2014  22:20:00      -79.370      -40.485      -15.372       20.669       22.013       12.865      427.224      484.551      165.515        0.463        0.054       89.099        4.477        0.003      336.314        7.532      862.220
12/05/2014  22:21:00      -75.078      -29.575      -17.074       27.951       20.863       11.624      781.235      435.261      135.117        0.408        0.068       80.693        6.542        0.007      336.288        7.488      862.228
12/05/2014  22:22:00      -65.604      -46.647       -4.861       27.912       27.853       17.919      779.092      775.773      321.078        0.419        0.094       80.498        9.913        0.015      336.327        7.554      862.249
12/05/2014  22:23:00      -55.673       -1.302       -9.563       16.570       16.401       10.578      274.559      268.982      111.902        0.192        0.033       55.688        4.534        0.007      336.347        7.590      862.247
12/05/2014  22:24:00      -53.832      -14.016      -10.816       15.531       22.455       11.128      241.225      504.227      123.837        0.204        0.043       55.627       10.693        0.037      336.391        7.659      862.227
12/05/2014  22:25:00      -27.223       14.155       -1.135       18.326       16.455        4.689      335.858      270.779       21.983        0.079        0.031       30.684        6.254        0.042      336.692        8.164      862.212
12/05/2014  22:26:00        9.134       37.571        0.770       18.553       15.258       10.246      344.232      232.817      104.982        0.109        0.034       38.665       10.577        0.075      337.064        8.785      862.190
12/05/2014  22:27:00       63.047       43.306        6.458       17.366       13.844       11.111      301.562      191.649      123.462        0.325        0.031       76.487        8.332        0.012      337.037        8.741      862.153
12/05/2014  22:28:00       50.138       38.160        8.943       29.562       23.070       19.307      873.919      532.208      372.743        0.291        0.089       63.008       13.173        0.044      336.836        8.405      862.130
12/05/2014  22:29:00       27.572       16.522       11.777       25.518       20.837       15.160      651.185      434.167      229.817        0.124        0.066       32.143       17.581        0.299      336.639        8.077      862.143
12/05/2014  22:30:00        8.360        6.193       19.849       17.922       18.996       15.428      321.212      360.853      238.022        0.071        0.046       10.405       10.537        1.026      336.550        7.928      862.188
12/05/2014  22:31:00       -1.296      -23.438        0.523       13.030       18.264       15.173      169.777      333.558      230.220        0.064        0.037       23.473       11.962        0.260      336.439        7.741      862.211
12/05/2014  22:32:00        3.076       -3.481       -8.911       17.892        8.737        7.845      320.116       76.342       61.547        0.028        0.023        4.645        8.557        3.394      336.516        7.872      862.215
12/05/2014  22:33:00      -10.251       25.718        5.022       19.272       25.216        9.315      371.395      635.856       86.771        0.094        0.055       27.686       10.285        0.138      336.538        7.906      862.206
12/05/2014  22:34:00       18.038       11.667       28.896       16.601       20.176        7.597      275.600      407.069       57.720        0.102        0.037       21.482        8.728        0.165      336.644        8.085      862.195
12/05/2014  22:35:00       16.331       12.021       24.697       19.318       13.043       11.764      373.174      170.108      138.391        0.085        0.034       20.278        4.110        0.041      336.659        8.109      862.201
12/05/2014  22:36:00       28.246       12.471       14.659       14.243       18.311        9.888      202.876      335.304       97.772        0.090        0.032       30.877        8.033        0.068      336.700        8.179      862.208
12/05/2014  22:37:00        1.477        5.132       13.727       10.718       12.227        8.806      114.871      149.494       77.548        0.028        0.017        5.340        5.250        0.967      336.693        8.166      862.229
12/05/2014  22:38:00       -8.735      -12.232        6.458       10.098       13.767        8.176      101.972      189.519       66.847        0.031        0.018       15.031        5.597        0.139      336.773        8.300      862.233
12/05/2014  22:39:00      -30.814      -34.662       -6.366       14.773       13.180       10.861      218.228      173.724      117.962        0.135        0.025       46.378        9.374        0.041      336.726        8.221      862.244
12/05/2014  22:40:00      -24.816        3.045        4.222        8.669       17.816        7.328       75.150      317.394       53.699        0.054        0.022       25.003        8.732        0.122      336.615        8.037      862.251
12/05/2014  22:41:00       -7.135        7.004        1.185       11.379        6.189        5.845      129.475       38.305       34.168        0.015        0.010        9.998        4.853        0.236      336.712        8.199      862.253
12/05/2014  22:42:00        7.895        7.801       13.930       12.712        7.924        9.087      161.603       62.790       82.569        0.031        0.015       11.099        8.126        0.536      336.676        8.139      862.253
12/05/2014  22:43:00       -0.969       -0.242        0.083        6.206        9.655        6.761       38.516       93.223       45.715        0.009        0.009        0.999        6.595       43.585      336.616        8.040      862.250
12/05/2014  22:44:00      -18.884       -4.200       -0.558       14.996        5.672        5.864      224.869       32.166       34.391        0.033        0.015       19.346        7.803        0.163      336.645        8.088      862.244
12/05/2014  22:45:00      -46.314      -17.851       -9.994        9.486        9.967        5.450       89.983       99.342       29.700        0.139        0.011       49.635        5.038        0.010      336.460        7.776      862.236
12/05/2014  22:46:00      -51.167        4.675       -1.573       12.413       14.312       19.694      154.072      204.822      387.857        0.169        0.037       51.380       12.873        0.063      336.606        8.020      862.216
12/05/2014  22:47:00      -47.266      -15.116       -4.664       17.918       16.885        9.901      321.069      285.111       98.021        0.159        0.035       49.624        9.907        0.040      336.402        7.678      862.202
12/05/2014  22:48:00      -42.312       47.430       10.113       27.516       25.419       21.182      757.106      646.128      448.665        0.300        0.093       63.561       13.100        0.042      336.883        8.484      862.169
12/05/2014  22:49:00      -54.864       -9.536       -9.467       15.271       19.932       11.788      233.205      397.267      138.962        0.198        0.038       55.686        8.547        0.024      336.446        7.755      862.162
12/05/2014  22:50:00      -31.992      -26.757       -4.788       23.208       17.451       15.050      538.600      304.532      226.515        0.142        0.053       41.707        5.612        0.018      336.284        7.483      862.173
12/05/2014  22:51:00      -99.278        5.822      -14.690       17.205       19.256       12.068      296.014      370.782      145.627        0.546        0.041       99.449        6.523        0.004      336.417        7.706      862.185
12/05/2014  22:52:00      -68.466       19.547       -9.704       10.781        7.117        8.758      116.227       50.657       76.700        0.270        0.012       71.202        5.868        0.007      336.441        7.745      862.180
12/05/2014  22:53:00      -31.771        7.096        9.711       13.911       10.491       11.671      193.511      110.051      136.207        0.080        0.022       32.553       11.428        0.123      336.666        8.122      862.176
12/05/2014  22:54:00      -41.763      -10.814        6.038       19.457       14.169       12.493      378.580      200.760      156.084        0.132        0.037       43.141       13.980        0.105      336.497        7.837      862.180
12/05/2014  22:55:00     -102.621      -13.719      -12.453       22.843       18.092       12.661      521.800      327.321      160.301        0.594        0.050      103.534        8.408        0.007      336.330        7.558      862.181
12/05/2014  22:56:00     -129.127      -42.512       -8.877       37.151       22.447       16.828     1380.230      503.868      283.189        1.036        0.108      135.945       14.588        0.012      336.348        7.588      862.199
12/05/2014  22:57:00      -58.403      -43.145        3.265       31.400       27.378       22.232      985.987      749.564      494.241        0.376        0.111       72.611       19.867        0.075      336.299        7.507      862.230
12/05/2014  22:58:00        1.476      -11.895       18.881       13.250       14.960       14.184      175.565      223.801      201.181        0.055        0.030       11.987       11.477        0.917      336.400        7.677      862.257
12/05/2014  22:59:00        8.877      -16.585        4.376       11.835       10.431       12.126      140.077      108.813      147.044        0.038        0.020       18.811        8.790        0.218      336.458        7.773      862.270
12/05/2014  23:00:00       11.787      -36.066       -2.432       10.567       14.021        8.385      111.664      196.594       70.311        0.091        0.019       37.943        6.795        0.032      336.493        7.829      862.274
12/05/2014  23:01:00      -32.119      -51.862       -5.186       13.162       13.936       10.073      173.238      194.225      101.472        0.211        0.023       61.002        7.513        0.015      336.614        8.034      862.286
12/05/2014  23:02:00      -42.534      -22.256       -5.615       10.580        7.898        7.386      111.941       62.383       54.554        0.128        0.011       48.005        5.204        0.012      336.590        7.995      862.305
12/05/2014  23:03:00      -31.735       -5.039        0.826       12.169       16.291        8.756      148.090      265.383       76.662        0.076        0.025       32.133        3.712        0.013      336.609        8.029      862.331
12/05/2014  23:04:00      -29.360      -12.861       -3.971       12.057       12.901        5.469      145.361      166.446       29.915        0.069        0.017       32.053        7.471        0.054      336.638        8.074      862.355
12/05/2014  23:05:00       -0.640       61.872        3.527       26.722       50.410       20.004      714.052     2541.209      400.172        0.375        0.183       61.875        9.578        0.024      336.713        8.201      862.337
12/05/2014  23:06:00       -2.772      -37.702        0.515       41.093       37.205       18.244     1688.674     1384.208      332.857        0.242        0.170       37.803       13.113        0.120      336.717        8.208      862.348
12/05/2014  23:07:00       28.977       20.590       27.108       20.121       26.850       19.355      404.869      720.927      374.597        0.175        0.075       35.547       20.689        0.339      336.784        8.319      862.366
12/05/2014  23:08:00      -15.903       -4.456       14.445       24.981       23.650       20.297      624.072      559.345      411.966        0.104        0.080       16.516       19.274        1.362      336.803        8.351      862.355
12/05/2014  23:09:00      -27.717       -8.412        1.160       16.915       13.040       14.061      286.120      170.030      197.717        0.075        0.033       28.965       12.537        0.187      336.644        8.085      862.354
12/05/2014  23:10:00      -42.498       -3.561       -8.026       15.460       22.456        8.252      238.996      504.270       68.095        0.135        0.041       42.647        9.885        0.054      336.579        7.978      862.359
12/05/2014  23:11:00      -56.353        5.085       -8.512       20.371       12.474        8.078      414.987      155.590       65.261        0.195        0.032       56.582        6.938        0.015      336.773        8.300      862.367
12/05/2014  23:12:00      -98.731      -17.558       -6.212       26.690       17.969       15.878      712.333      322.885      252.121        0.569        0.064      100.280       13.207        0.017      336.587        7.989      862.394
12/05/2014  23:13:00      -31.356      -19.978        9.581       51.565       24.558       19.681     2658.969      603.116      387.331        0.256        0.182       37.180       20.757        0.312      336.663        8.115      862.414
12/05/2014  23:14:00      -56.793      -27.665        3.815       46.733       21.041       13.902     2183.980      442.724      193.261        0.341        0.141       63.173        6.340        0.010      336.705        8.188      862.420
12/05/2014  23:15:00     -175.131      -56.220        2.599       65.131       43.828       24.489     4242.020     1920.853      599.703        2.030        0.338      183.934       27.979        0.023      336.602        8.015      862.406
12/05/2014  23:16:00     -147.310      -41.508      -12.500       41.883       48.314       23.353     1754.191     2334.229      545.379        1.411        0.232      153.046       14.746        0.009      336.489        7.825      862.375
12/05/2014  23:17:00      -72.846      -23.699        7.192       58.030       41.097       24.846     3367.424     1688.968      617.336        0.580        0.284       76.604       24.488        0.102      336.513        7.864      862.372
12/05/2014  23:18:00     -157.911      -17.401      -22.229       31.214       42.081       22.543      974.294     1770.805      508.193        1.449        0.163      158.867       16.539        0.011      336.569        7.958      862.403
12/05/2014  23:19:00      -74.956      -61.275       -3.711       56.979       42.835       24.026     3246.599     1834.799      577.252        0.752        0.283       96.814       21.433        0.049      336.613        8.033      862.431
12/05/2014  23:20:00     -142.349      -45.236        0.343       43.850       33.225       26.875     1922.850     1103.876      722.254        1.303        0.187      149.364       23.917        0.026      336.705        8.186      862.447
12/05/2014  23:21:00     -103.494      -73.897       -7.063       25.165       24.763       21.047      633.264      613.205      442.964        0.896        0.084      127.168       16.995        0.018      336.666        8.122      862.449
12/05/2014  23:22:00      -83.551      -20.756       -6.042       45.582       30.265       21.168     2077.720      915.971      448.104        0.544        0.172       86.091       27.516        0.102      336.722        8.216      862.417
12/05/2014  23:23:00       -3.547      -23.311       14.555       32.338       47.943       23.561     1045.767     2298.532      555.128        0.233        0.195       23.580       21.107        0.801      336.716        8.208      862.394
12/05/2014  23:24:00     -121.972      -49.700      -29.226       72.468       50.347       35.082     5251.585     2534.865     1230.775        1.361        0.451      131.709       29.216        0.049      337.234        9.069      862.360
12/05/2014  23:25:00        8.829       12.686       46.176       31.751       49.319       20.681     1008.140     2432.373      427.702        0.312        0.193       15.456       20.257        1.718      337.200        9.013      862.356
12/05/2014  23:26:00      -81.810      -10.444       -0.108       47.050       42.521       25.885     2213.735     1808.063      670.025        0.575        0.235       82.474       22.700        0.076      337.253        9.102      862.309
12/05/2014  23:27:00      -44.706      -33.257        9.085       61.953       40.456       22.426     3838.137     1636.666      502.915        0.458        0.299       55.720       25.615        0.211      337.212        9.034      862.266
12/05/2014  23:28:00      -63.209      -62.978        4.871      118.895       80.264       37.302    14136.015     6442.257     1391.428        1.497        1.098       89.228       43.272        0.235      337.353        9.270      862.240
12/05/2014  23:29:00       12.189       50.193       65.835       32.821       69.735       36.287     1077.226     4862.942     1316.720        0.713        0.363       51.652       42.734        0.685      337.358        9.279      862.244
12/05/2014  23:30:00        8.474      -55.691        8.014       41.915       60.384       45.391     1756.878     3646.254     2060.326        0.535        0.373       56.332       32.046        0.324      337.510        9.531      862.235
12/05/2014  23:31:00       56.708      -46.148       21.801       62.397       70.068       40.947     3893.412     4909.556     1676.672        0.815        0.524       73.113       37.348        0.261      337.491        9.500      862.233
12/05/2014  23:32:00       38.279     -123.534        9.452      157.760      114.865       80.916    24888.172    13194.082     6547.382        3.071        2.231      129.329       74.339        0.330      337.593        9.671      862.232
12/05/2014  23:33:00      -44.491      -43.934       -2.536       41.052       38.676       27.394     1685.251     1495.844      750.413        0.392        0.197       62.527       21.891        0.123      337.552        9.603      862.265
12/05/2014  23:34:00      -33.649      -37.614       19.835       65.767       52.398       30.144     4325.350     2745.563      908.674        0.546        0.399       50.469       24.275        0.231      337.600        9.685      862.270
12/05/2014  23:35:00       -1.652       13.301       42.056       24.511       46.215       32.245      600.785     2135.811     1039.712        0.286        0.189       13.403       32.906        6.028      337.596        9.678      862.263
12/05/2014  23:36:00        5.976      -26.105       12.522       40.023       54.524       38.028     1601.816     2972.920     1446.159        0.345        0.301       26.781       32.384        1.462      337.719        9.883      862.277
12/05/2014  23:37:00       49.264      -81.509       27.393       71.459      110.219       54.844     5106.375    12148.178     3007.905        1.504        1.013       95.240       55.189        0.336      337.835       10.076      862.285
12/05/2014  23:38:00      -30.839      -70.206       -2.311       96.854       79.402       56.916     9380.615     6304.715     3239.461        1.240        0.946       76.681       50.045        0.426      337.871       10.136      862.281
12/05/2014  23:39:00        4.062     -135.152       27.526       86.188      105.073       61.227     7428.359    11040.315     3748.773        2.062        1.111      135.213       49.667        0.135      338.072       10.473      862.265
12/05/2014  23:40:00      -18.713       10.896       29.062       29.650       43.129       36.821      879.118     1860.146     1355.780        0.270        0.205       21.654       21.207        0.959      337.898       10.183      862.254
12/05/2014  23:41:00       57.609     -163.611       11.892      104.065      123.865       53.025    10829.429    15342.650     2811.668        2.960        1.449      173.457       58.721        0.115      338.036       10.411      862.258
12/05/2014  23:42:00        0.979     -115.996       13.023      105.296      100.116       59.057    11087.288    10023.226     3487.712        1.911        1.230      116.001       56.203        0.235      338.107       10.533      862.274
12/05/2014  23:43:00      -44.619      -99.614        5.762       94.590       73.864       49.119     8947.242     5455.852     2412.635        1.438        0.841      109.150       45.067        0.170      338.000       10.354      862.314
12/05/2014  23:44:00       -2.609      -64.247        1.320       64.920       57.743       42.054     4214.601     3334.201     1768.576        0.672        0.466       64.300       27.321        0.181      338.074       10.479      862.331
12/05/2014  23:45:00      -44.464      -95.239       22.586      165.142      107.448       64.594    27271.934    11545.083     4172.410        2.726        2.149      105.107       54.877        0.273      338.045       10.430      862.332
12/05/2014  23:46:00      -68.760      -31.283       -6.519       76.330       71.331       51.249     5826.292     5088.077     2626.421        0.964        0.677       75.541       25.255        0.112      337.985       10.330      862.346
12/05/2014  23:47:00     -127.833     -159.020       -5.972       92.516       75.691       59.388     8559.303     5729.190     3526.911        2.974        0.891      204.031       41.850        0.042      337.975       10.310      862.367
12/05/2014  23:48:00     -211.901     -104.449       -4.043       69.114       58.658       40.391     4776.749     3440.788     1631.465        3.284        0.492      236.245       39.767        0.028      337.804       10.021      862.396
12/05/2014  23:49:00     -235.727      -42.995        3.531      112.199       64.803       44.950    12588.675     4199.386     2020.480        3.811        0.940      239.616       54.771        0.052      337.545        9.587      862.413
12/05/2014  23:50:00     -281.815      -68.454      -11.447       86.165       93.197       45.099     7424.434     8685.739     2033.928        5.119        0.907      290.010       28.066        0.009      337.435        9.403      862.438
12/05/2014  23:51:00     -148.095     -146.519      -13.821       81.677       58.563       37.923     6671.147     3429.677     1438.173        2.756        0.577      208.326       32.756        0.025      337.473        9.469      862.482
12/05/2014  23:52:00      -78.155     -125.175       -8.472       72.518       72.345       32.877     5258.843     5233.763     1080.871        1.671        0.579      147.570       29.943        0.041      337.493        9.504      862.494
12/05/2014  23:53:00     -203.150      -98.963       -5.611       59.631       56.881       31.895     3555.813     3235.500     1017.283        2.945        0.390      225.973       24.765        0.012      337.441        9.414      862.493
12/05/2014  23:54:00     -252.768     -129.473       -7.115       78.488       83.213       45.350     6160.430     6924.480     2056.594        4.792        0.757      283.998       39.721        0.020      337.303        9.182      862.516
12/05/2014  23:55:00     -193.239     -116.544        2.184       83.497       77.539       43.357     6971.766     6012.314     1879.836        3.289        0.743      225.663       43.711        0.038      337.301        9.180      862.534
12/05/2014  23:56:00     -113.532      -63.591      -12.162       59.868       53.551       28.318     3584.184     2867.723      801.886        1.217        0.363      130.128       19.048        0.021      337.292        9.167      862.541
12/05/2014  23:57:00     -100.740      -39.545       -1.161       69.731       55.342       32.298     4862.470     3062.732     1043.163        1.034        0.448      108.224       28.617        0.070      337.277        9.142      862.534
12/05/2014  23:58:00      -75.702      -69.509        7.264       50.107       44.336       28.009     2510.758     1965.639      784.498        0.794        0.263      102.774       24.891        0.059      337.328        9.227      862.514
12/05/2014  23:59:00        3.604      -27.642       28.979       47.737       32.958       29.266     2278.828     1086.246      856.499        0.292        0.211       27.876       31.683        1.292      337.343        9.253      862.499
